[[{"header":{"parameterUnit":"m.s-1","parameterCategory":1,"la1":30.6,"la2":28.766,"lo1":-90.7593,"lo2":-88.6598,"dy":0.0162,"dx":0.0183,"nx":116,"ny":114,"refTime":"2024-03-26T12:00:00:Z","depth":0,"parameterNumber":2,"parameterNumberName":"U-component_of_WINDS"},"data":[0.0,0.0,0.0,0.0,0.0,0.0,0.0,0.0,0.0,0.0,0.0,0.0,0.0,0.0,0.0,0.0,0.0,0.0,0.0,0.0,0.0,0.0,0.0,0.0,0.0,0.0,0.0,0.0,0.0,0.0,0.0,0.0,0.0,0.0,0.0,0.0,0.0,0.0,0.0,0.0,0.0,0.0,0.0,0.0,0.0,0.0,0.0,0.0,0.0,0.0,0.0,0.0,0.0,0.0,0.0,0.0,0.0,0.0,0.0,0.0,0.0,0.0,0.0,0.0,0.0,0.0,0.0,0.0,0.0,0.0,0.0,0.0,0.0,0.0,0.0,0.0,0.0,0.0,0.0,0.0,0.0,0.0,0.0,0.0,0.0,0.0,0.0,0.0,0.0,0.0,0.0,0.0,0.0,0.0,0.0,0.0,0.0,0.0,0.0,0.0,0.0,0.0,0.0,0.0,0.0,0.0,0.0,0.0,0.0,0.0,0.0,0.0,0.0,0.0,0.0,0.0,0.0,0.0,0.0,0.0,0.0,0.0,0.0,0.0,0.0,0.0,0.0,0.0,0.0,0.0,0.0,0.0,0.0,0.0,0.0,0.0,0.0,0.0,0.0,0.0,0.0,0.0,0.0,0.0,0.0,0.0,0.0,0.0,0.0,0.0,0.0,0.0,0.0,0.0,0.0,0.0,0.0,0.0,0.0,0.0,0.0,0.0,0.0,0.0,0.0,0.0,0.0,0.0,0.0,0.0,0.0,0.0,0.0,0.0,0.0,0.0,0.0,0.0,0.0,0.0,0.0,0.0,0.0,0.0,0.0,0.0,0.0,0.0,0.0,0.0,0.0,0.0,0.0,0.0,0.0,0.0,0.0,0.0,0.0,0.0,0.0,0.0,0.0,0.0,0.0,0.0,0.0,0.0,0.0,0.0,0.0,0.0,0.0,0.0,0.0,0.0,0.0,0.0,0.0,0.0,0.0,0.0,0.0,0.0,0.0,0.0,0.0,0.0,0.0,0.0,0.0,0.0,0.0,0.0,0.0,0.0,0.0,0.0,0.0,0.0,0.0,0.0,0.0,0.0,0.0,0.0,0.0,0.0,0.0,0.0,0.0,0.0,0.0,0.0,0.0,0.0,0.0,0.0,0.0,0.0,0.0,0.0,0.0,0.0,0.0,0.0,0.0,0.0,0.0,0.0,0.0,0.0,0.0,0.0,0.0,0.0,0.0,0.0,0.0,0.0,0.0,0.0,0.0,0.0,0.0,0.0,0.0,0.0,0.0,0.0,0.0,0.0,0.0,0.0,0.0,0.0,0.0,0.0,0.0,0.0,0.0,0.0,0.0,0.0,0.0,0.0,0.0,0.0,0.0,0.0,0.0,0.0,0.0,0.0,0.0,0.0,0.0,0.0,0.0,0.0,0.0,0.0,0.0,0.0,0.0,0.0,0.0,0.0,0.0,0.0,0.0,0.0,0.0,0.0,0.0,0.0,0.0,0.0,0.0,0.0,0.0,0.0,0.0,0.0,0.0,0.0,0.0,0.0,0.0,0.0,0.0,0.0,0.0,0.0,0.0,0.0,0.0,0.0,0.0,0.0,0.0,0.0,0.0,0.0,0.0,0.0,0.0,0.0,0.0,0.0,0.0,0.0,0.0,0.0,0.0,0.0,0.0,0.0,0.0,0.0,0.0,0.0,0.0,0.0,0.0,0.0,0.0,0.0,0.0,0.0,0.0,0.0,0.0,0.0,0.0,0.0,0.0,0.0,0.0,0.0,0.0,0.0,0.0,0.0,0.0,0.0,0.0,0.0,0.0,0.0,0.0,0.0,0.0,0.0,0.0,0.0,0.0,0.0,0.0,0.0,0.0,0.0,0.0,0.0,0.0,0.0,0.0,0.0,0.0,0.0,0.0,0.0,0.0,0.0,0.0,0.0,0.0,0.0,0.0,0.0,0.0,0.0,0.0,0.0,0.0,0.0,0.0,0.0,0.0,0.0,0.0,0.0,0.0,0.0,0.0,0.0,0.0,0.0,0.0,0.0,0.0,0.0,0.0,0.0,0.0,0.0,0.0,0.0,0.0,0.0,0.0,0.0,0.0,0.0,0.0,0.0,0.0,0.0,0.0,0.0,0.0,0.0,0.0,0.0,0.0,0.0,0.0,0.0,0.0,0.0,0.0,0.0,0.0,0.0,0.0,0.0,0.0,0.0,0.0,0.0,0.0,0.0,0.0,0.0,0.0,0.0,0.0,0.0,0.0,0.0,0.0,0.0,0.0,0.0,0.0,0.0,0.0,0.0,0.0,0.0,0.0,0.0,0.0,0.0,0.0,0.0,0.0,0.0,0.0,0.0,0.0,0.0,0.0,0.0,0.0,0.0,0.0,0.0,0.0,0.0,0.0,0.0,0.0,0.0,0.0,0.0,0.0,0.0,0.0,0.0,0.0,0.0,0.0,0.0,0.0,0.0,0.0,0.0,0.0,0.0,0.0,0.0,0.0,0.0,0.0,0.0,0.0,0.0,0.0,0.0,0.0,0.0,0.0,0.0,0.0,0.0,0.0,0.0,0.0,0.0,0.0,0.0,0.0,0.0,0.0,0.0,0.0,0.0,0.0,0.0,0.0,0.0,0.0,0.0,0.0,0.0,0.0,0.0,0.0,0.0,0.0,0.0,0.0,0.0,0.0,0.0,0.0,0.0,0.0,0.0,0.0,0.0,0.0,0.0,0.0,0.0,0.0,0.0,0.0,0.0,0.0,0.0,0.0,0.0,0.0,0.0,0.0,0.0,0.0,0.0,0.0,0.0,0.0,0.0,0.0,0.0,0.0,0.0,0.0,0.0,0.0,0.0,0.0,0.0,0.0,0.0,0.0,0.0,0.0,0.0,0.0,0.0,0.0,0.0,0.0,0.0,0.0,0.0,0.0,0.0,0.0,0.0,0.0,0.0,0.0,0.0,0.0,0.0,0.0,0.0,0.0,0.0,0.0,0.0,0.0,0.0,0.0,0.0,0.0,0.0,0.0,0.0,0.0,0.0,0.0,0.0,0.0,0.0,0.0,0.0,0.0,0.0,0.0,0.0,0.0,0.0,0.0,0.0,0.0,0.0,0.0,0.0,0.0,0.0,0.0,0.0,0.0,0.0,0.0,0.0,0.0,0.0,0.0,0.0,0.0,0.0,0.0,0.0,0.0,0.0,0.0,0.0,0.0,0.0,0.0,0.0,0.0,0.0,0.0,0.0,0.0,0.0,0.0,0.0,0.0,0.0,0.0,0.0,0.0,0.0,0.0,0.0,0.0,0.0,0.0,0.0,0.0,0.0,0.0,0.0,0.0,0.0,0.0,0.0,0.0,0.0,0.0,0.0,0.0,0.0,0.0,0.0,0.0,0.0,0.0,0.0,0.0,0.0,0.0,0.0,0.0,0.0,0.0,0.0,0.0,0.0,0.0,0.0,0.0,0.0,0.0,0.0,0.0,0.0,0.0,0.0,0.0,0.0,0.0,0.0,0.0,0.0,0.0,0.0,0.0,0.0,0.0,0.0,0.0,0.0,0.0,0.0,0.0,0.0,0.0,0.0,0.0,0.0,0.0,0.0,0.0,0.0,0.0,0.0,0.0,0.0,0.0,0.0,0.0,0.0,0.0,0.0,0.0,0.0,0.0,0.0,0.0,0.0,0.0,0.0,0.0,0.0,0.0,0.0,0.0,0.0,0.0,0.0,0.0,0.0,0.0,0.0,0.0,0.0,0.0,0.0,0.0,0.0,0.0,0.0,0.0,0.0,0.0,0.0,0.0,0.0,0.0,0.0,0.0,0.0,0.0,0.0,0.0,0.0,0.0,0.0,0.0,0.0,0.0,0.0,0.0,0.0,0.0,0.0,0.0,0.0,0.0,0.0,0.0,0.0,0.0,0.0,0.0,0.0,0.0,0.0,0.0,0.0,0.0,0.0,0.0,0.0,0.0,0.0,0.0,0.0,0.0,0.0,0.0,0.0,0.0,0.0,0.0,0.0,0.0,0.0,0.0,0.0,0.0,0.0,0.0,0.0,0.0,0.0,0.0,0.0,0.0,0.0,0.0,0.0,0.0,0.0,0.0,0.0,0.0,0.0,0.0,0.0,0.0,0.0,0.0,0.0,0.0,0.0,0.0,0.0,0.0,0.0,0.0,0.0,0.0,0.0,0.0,0.0,0.0,0.0,0.0,0.0,0.0,0.0,0.0,0.0,0.0,0.0,0.0,0.0,0.0,0.0,0.0,0.0,0.0,0.0,0.0,0.0,0.0,0.0,0.0,0.0,0.0,0.0,0.0,0.0,0.0,0.0,0.0,0.0,0.0,0.0,0.0,0.0,0.0,0.0,0.0,0.0,0.0,0.0,0.0,0.0,0.0,0.0,0.0,0.0,0.0,0.0,0.0,0.0,0.0,0.0,0.0,0.0,0.0,0.0,0.0,0.0,0.0,0.0,0.0,0.0,0.0,0.0,0.0,0.0,0.0,0.0,0.0,0.0,0.0,0.0,0.0,0.0,0.0,0.0,0.0,0.0,0.0,0.0,0.0,0.0,0.0,0.0,0.0,0.0,0.0,0.0,0.0,0.0,0.0,0.0,0.0,0.0,0.0,0.0,0.0,0.0,0.0,0.0,0.0,0.0,0.0,0.0,0.0,0.0,0.0,0.0,0.0,0.0,0.0,0.0,0.0,0.0,0.0,0.0,0.0,0.0,0.0,0.0,0.0,0.0,0.0,0.0,0.0,0.0,0.0,0.0,0.0,0.0,0.0,0.0,0.0,0.0,0.0,0.0,0.0,0.0,0.0,0.0,0.0,0.0,0.0,0.0,0.0,0.0,0.0,0.0,0.0,0.0,0.0,0.0,0.0,0.0,0.0,0.0,0.0,0.0,0.0,0.0,0.0,0.0,0.0,0.0,0.0,0.0,0.0,0.0,0.0,0.0,0.0,0.0,0.0,0.0,0.0,0.0,0.0,0.0,0.0,0.0,0.0,0.0,0.0,0.0,0.0,0.0,0.0,0.0,0.0,0.0,0.0,0.0,0.0,0.0,0.0,0.0,0.0,0.0,0.0,0.0,0.0,0.0,0.0,0.0,0.0,0.0,0.0,0.0,0.0,0.0,0.0,0.0,0.0,0.0,0.0,0.0,0.0,0.0,0.0,0.0,0.0,0.0,0.0,0.0,0.0,0.0,0.0,0.0,0.0,0.0,0.0,0.0,0.0,0.0,0.0,0.0,0.0,0.0,0.0,0.0,0.0,0.0,0.0,0.0,0.0,0.0,0.0,0.0,0.0,0.0,0.0,0.0,0.0,0.0,0.0,0.0,0.0,0.0,0.0,0.0,0.0,0.0,0.0,0.0,0.0,0.0,0.0,0.0,0.0,0.0,0.0,0.0,0.0,0.0,0.0,0.0,0.0,0.0,0.0,0.0,0.0,0.0,0.0,0.0,0.0,0.0,0.0,0.0,0.0,0.0,0.0,0.0,0.0,0.0,0.0,0.0,0.0,0.0,0.0,0.0,0.0,0.0,0.0,0.0,0.0,0.0,0.0,0.0,0.0,0.0,0.0,0.0,0.0,0.0,0.0,0.0,0.0,0.0,0.0,0.0,0.0,0.0,0.0,0.0,0.0,0.0,0.0,0.0,0.0,0.0,0.0,0.0,0.0,0.0,0.0,0.0,0.0,0.0,0.0,0.0,0.0,0.0,0.0,0.0,0.0,0.0,0.0,0.0,0.0,0.0,0.0,0.0,0.0,0.0,0.0,0.0,0.0,0.0,0.0,0.0,0.0,0.0,0.0,0.0,0.0,0.0,0.0,0.0,0.0,0.0,0.0,0.0,0.0,0.0,0.0,0.0,0.0,0.0,0.0,0.0,0.0,0.0,0.0,0.0,0.0,0.0,0.0,0.0,0.0,0.0,0.0,0.0,0.0,0.0,0.0,0.0,0.0,0.0,0.0,0.0,0.0,0.0,0.0,0.0,0.0,0.0,0.0,0.0,0.0,0.0,0.0,0.0,0.0,0.0,0.0,0.0,0.0,0.0,0.0,0.0,0.0,0.0,0.0,0.0,0.0,0.0,0.0,0.0,0.0,0.0,0.0,0.0,0.0,0.0,-2.8555,0.0,0.0,0.0,0.0,0.0,0.0,0.0,0.0,0.0,0.0,0.0,0.0,0.0,0.0,0.0,0.0,0.0,0.0,0.0,0.0,0.0,0.0,0.0,0.0,-3.4295,-3.5007,-3.5462,-3.55,-3.55,-3.55,0.0,0.0,0.0,0.0,0.0,-3.4646,-3.4935,-3.4745,-3.3999,-3.4544,-3.5106,-3.561,-3.5202,-3.478,-3.4344,0.0,0.0,0.0,0.0,0.0,0.0,0.0,0.0,0.0,0.0,0.0,0.0,0.0,0.0,0.0,0.0,0.0,0.0,0.0,0.0,0.0,0.0,0.0,0.0,0.0,0.0,0.0,0.0,0.0,0.0,0.0,0.0,0.0,0.0,0.0,0.0,0.0,0.0,0.0,0.0,0.0,0.0,0.0,0.0,0.0,0.0,0.0,0.0,0.0,0.0,0.0,0.0,0.0,0.0,0.0,0.0,0.0,0.0,0.0,0.0,0.0,0.0,0.0,0.0,0.0,0.0,0.0,0.0,0.0,0.0,0.0,-2.9101,0.0,0.0,0.0,0.0,0.0,0.0,0.0,0.0,0.0,0.0,0.0,0.0,0.0,0.0,0.0,0.0,0.0,0.0,0.0,0.0,0.0,-3.3237,-3.4109,-3.4988,-3.55,-3.55,-3.55,-3.55,-3.55,-3.55,0.0,0.0,0.0,-3.5376,-3.5105,-3.5105,-3.4908,-3.4486,-3.5453,-3.6181,-3.6725,-3.6725,-3.634,-3.561,-3.4669,0.0,0.0,0.0,0.0,0.0,0.0,0.0,0.0,0.0,0.0,0.0,0.0,0.0,0.0,0.0,0.0,0.0,0.0,0.0,0.0,0.0,0.0,0.0,0.0,0.0,0.0,0.0,0.0,0.0,0.0,0.0,0.0,0.0,0.0,0.0,0.0,0.0,0.0,0.0,0.0,0.0,0.0,0.0,0.0,0.0,0.0,0.0,0.0,0.0,0.0,0.0,0.0,0.0,0.0,0.0,0.0,0.0,0.0,0.0,0.0,0.0,0.0,0.0,0.0,-3.1777,-3.1797,-3.1797,-3.1797,-3.1777,-3.1621,-3.1816,-3.209,0.0,0.0,0.0,0.0,0.0,0.0,0.0,0.0,0.0,0.0,0.0,0.0,0.0,0.0,0.0,0.0,0.0,0.0,0.0,0.0,-3.3237,-3.4109,-3.4988,-3.55,-3.55,-3.55,-3.55,-3.55,-3.55,-3.55,-3.55,-3.55,-3.5376,-3.5105,-3.5105,-3.5296,-3.5681,-3.6956,-3.7863,-3.8377,-3.8377,-3.8322,-3.8157,-3.6633,-3.555,-3.4839,0.0,0.0,0.0,0.0,0.0,0.0,0.0,0.0,0.0,0.0,0.0,0.0,0.0,0.0,0.0,0.0,0.0,0.0,0.0,0.0,0.0,0.0,0.0,0.0,0.0,0.0,0.0,0.0,0.0,0.0,0.0,0.0,0.0,0.0,0.0,0.0,0.0,0.0,0.0,0.0,0.0,-3.1968,-3.266,0.0,0.0,0.0,0.0,0.0,0.0,0.0,0.0,0.0,0.0,0.0,0.0,0.0,0.0,-3.4016,-3.4035,-3.4438,-3.5246,-3.5246,-3.5262,-3.5332,-3.5332,-3.5332,-3.5293,-3.4531,0.0,-3.2187,-3.1953,0.0,0.0,0.0,0.0,0.0,0.0,0.0,0.0,0.0,0.0,0.0,0.0,0.0,0.0,0.0,0.0,0.0,0.0,0.0,0.0,0.0,-3.5673,-3.6173,-3.6173,-3.6615,-3.6692,-3.6212,-3.6173,-3.5962,-3.5519,-3.55,-3.5376,-3.5105,-3.5686,-3.663,-3.7917,-3.8667,-3.9371,-4.0049,-4.0049,-4.0049,-4.0029,-3.9313,-3.779,-3.5734,-3.5734,0.0,0.0,0.0,0.0,0.0,0.0,0.0,0.0,0.0,0.0,0.0,0.0,0.0,0.0,0.0,0.0,0.0,0.0,0.0,0.0,0.0,0.0,0.0,0.0,0.0,0.0,0.0,0.0,0.0,0.0,0.0,0.0,0.0,0.0,0.0,0.0,0.0,0.0,0.0,-3.1852,-3.2699,-3.3526,-3.3199,-3.2756,0.0,0.0,0.0,0.0,0.0,0.0,0.0,0.0,0.0,-3.4739,-3.4778,-3.5423,-3.6791,-3.6791,-3.7014,-3.7415,-3.7415,-3.7439,-3.7461,-3.7461,-3.7461,-3.7441,-3.7051,-3.6484,-3.5684,-3.4219,-3.332,-3.2793,0.0,0.0,0.0,0.0,0.0,-3.0391,0.0,0.0,0.0,0.0,0.0,0.0,0.0,0.0,0.0,0.0,0.0,0.0,-3.5615,-3.6538,-3.7019,-3.7019,-3.7623,-3.7623,-3.675,-3.6692,-3.6346,-3.5538,-3.55,-3.5417,-3.5207,-3.6519,-3.8146,-4.0046,-4.0436,-4.1117,-4.2012,-4.2012,-4.2012,-4.2012,-4.1809,-3.9937,-3.6909,-3.6909,-3.6303,-3.5316,0.0,0.0,0.0,0.0,0.0,0.0,0.0,0.0,0.0,0.0,0.0,0.0,0.0,0.0,0.0,0.0,0.0,0.0,0.0,0.0,0.0,0.0,0.0,0.0,0.0,0.0,0.0,0.0,0.0,0.0,0.0,0.0,0.0,0.0,0.0,0.0,0.0,-3.2391,-3.3218,-3.4109,-3.3814,-3.3487,0.0,0.0,0.0,0.0,0.0,0.0,-3.4061,-3.414,-3.4881,-3.6462,-3.6536,-3.7186,-3.8475,-3.8503,-3.8529,-3.8552,-3.8552,-3.8573,-3.8594,-3.8594,-3.8594,-3.8594,-3.8594,-3.8594,-3.8457,-3.6504,-3.5176,-3.4375,-3.4141,-3.3164,0.0,-3.1875,-3.1875,-3.1894,0.0,0.0,0.0,0.0,0.0,0.0,0.0,0.0,0.0,0.0,0.0,-3.4776,-3.6462,-3.7411,-3.793,-3.793,-3.7969,-3.7623,-3.675,-3.6692,-3.6346,-3.5538,-3.55,-3.5493,-3.5486,-3.753,-3.9542,-4.1484,-4.2259,-4.3291,-4.4525,-4.4525,-4.4525,-4.4507,-4.3718,-4.1589,-3.8579,-3.8579,-3.7679,-3.6156,-3.5334,0.0,0.0,0.0,0.0,0.0,0.0,0.0,0.0,0.0,0.0,0.0,0.0,0.0,0.0,0.0,0.0,0.0,0.0,0.0,0.0,0.0,0.0,0.0,0.0,0.0,0.0,0.0,0.0,0.0,0.0,0.0,0.0,0.0,0.0,0.0,0.0,0.0,0.0,-3.4109,-3.4891,0.0,0.0,0.0,0.0,-3.4071,-3.4116,-3.4834,-3.6432,-3.6535,-3.6953,-3.7865,-3.8017,-3.8137,-3.8214,-3.8276,-3.8358,-3.8408,-3.8408,-3.8484,-3.8594,-3.8594,-3.8594,-3.8594,-3.8594,-3.8594,-3.8594,-3.8457,-3.7891,-3.7012,-3.6191,-3.5312,-3.4512,-3.4512,-3.4512,-3.4629,0.0,0.0,0.0,0.0,0.0,-3.0404,-3.0404,-3.0404,-3.1,-3.2679,-3.366,-3.4834,-3.6519,-3.7988,-3.8834,-3.8834,-3.9323,-3.9258,-3.843,-3.7853,-3.7161,-3.6308,-3.6269,-3.6945,-3.836,-4.0329,-4.193,-4.3148,-4.4239,-4.5033,-4.548,-4.548,-4.548,-4.5461,-4.5168,-4.3828,-4.1717,-4.0689,-3.9331,-3.7826,-3.7499,-3.6252,0.0,0.0,0.0,0.0,0.0,0.0,0.0,0.0,0.0,0.0,0.0,0.0,0.0,0.0,0.0,0.0,0.0,0.0,0.0,0.0,0.0,0.0,0.0,0.0,0.0,0.0,0.0,0.0,0.0,0.0,0.0,0.0,0.0,0.0,0.0,0.0,0.0,-3.4109,-3.4968,0.0,-3.5064,-3.5507,-3.5815,-3.5815,-3.6363,-3.7229,-3.8376,-3.8485,-3.9159,-4.0599,-4.0684,-4.0985,-4.1534,-4.1574,-4.1646,-4.1755,-4.1755,-4.1799,-4.1875,-4.1875,-4.1875,-4.1875,-4.1875,-4.1875,-4.1836,-4.1289,-3.9902,-3.8105,-3.7793,-3.748,-3.7207,-3.7207,-3.7207,-3.7246,0.0,0.0,0.0,0.0,-3.0404,-3.0404,-3.0404,-3.0404,-3.1,-3.2679,-3.366,-3.4949,-3.693,-3.843,-3.9534,-4.0085,-4.0623,-4.0585,-3.9765,-3.9161,-3.8334,-3.7199,-3.7291,-3.8578,-4.1194,-4.2248,-4.3595,-4.5239,-4.5951,-4.6434,-4.6709,-4.6709,-4.6709,-4.6709,-4.6434,-4.5718,-4.4635,-4.3296,-4.1479,-3.9444,-3.8927,-3.7551,-3.5775,0.0,0.0,0.0,0.0,0.0,0.0,0.0,0.0,0.0,0.0,0.0,0.0,0.0,0.0,0.0,0.0,0.0,0.0,0.0,0.0,0.0,0.0,0.0,0.0,0.0,0.0,0.0,0.0,0.0,0.0,0.0,0.0,0.0,0.0,0.0,-3.3987,-3.4564,-3.5661,-3.6346,-3.6346,-3.7084,-3.77,-3.7969,-3.8826,-3.9734,-4.0597,-4.0692,-4.1247,-4.2396,-4.246,-4.2743,-4.333,-4.3369,-4.3448,-4.3532,-4.3532,-4.3558,-4.3593,-4.3643,-4.3667,-4.3667,-4.3691,-4.3691,-4.3652,-4.3086,-4.1836,-4.0234,-3.9375,-3.8867,-3.8594,-3.8594,-3.8594,-3.8594,0.0,0.0,0.0,-3.0404,-3.0404,-3.0404,-3.0404,-3.0404,-3.1,-3.2679,-3.366,-3.5167,-3.7719,-3.8777,-3.9969,-4.1654,-4.1788,-4.145,-4.0593,-4.0516,-3.9777,-3.8166,-3.86,-4.0383,-4.3683,-4.317,-4.4429,-4.7675,-4.7315,-4.7535,-4.8306,-4.8306,-4.8306,-4.8269,-4.748,-4.7113,-4.7058,-4.6269,-4.4121,-4.1113,-3.9515,-3.834,-3.7401,0.0,0.0,0.0,0.0,0.0,0.0,0.0,0.0,0.0,0.0,0.0,0.0,0.0,0.0,0.0,0.0,0.0,0.0,0.0,0.0,0.0,0.0,0.0,0.0,0.0,0.0,0.0,0.0,0.0,0.0,0.0,0.0,0.0,-3.2987,-3.4462,-3.5558,-3.5577,-3.7065,-3.8084,-3.8084,-3.8892,-3.9746,-4.0516,-4.1354,-4.222,-4.3085,-4.3143,-4.3143,-4.3181,-4.325,-4.3273,-4.3273,-4.3398,-4.348,-4.3465,-4.3465,-4.3484,-4.3473,-4.361,-4.3663,-4.3684,-4.3745,-4.3769,-4.3769,-4.375,-4.373,-4.3496,-4.0996,-3.9492,-3.8769,-3.8769,-3.873,-3.8711,0.0,0.0,-3.0404,-3.0404,-3.0404,-3.0404,-3.0404,-3.0404,-3.1,-3.2679,-3.366,-3.5167,-3.7719,-3.8777,-3.9969,-4.1654,-4.1788,-4.1692,-4.147,-4.0854,-4.0447,-4.033,-4.1663,-4.3159,-4.4753,-4.5814,-4.6633,-4.7242,-4.7738,-4.8067,-4.8306,-4.8306,-4.8306,-4.8306,-4.8086,-4.7645,-4.7094,-4.6856,-4.592,-4.4433,-4.2818,-4.1001,-3.9129,0.0,0.0,0.0,0.0,0.0,0.0,0.0,0.0,0.0,0.0,0.0,0.0,0.0,0.0,0.0,0.0,0.0,0.0,0.0,0.0,0.0,0.0,0.0,0.0,0.0,0.0,0.0,0.0,0.0,0.0,0.0,0.0,-3.4788,-3.4788,-3.5692,-3.6596,-3.7238,-3.8796,-3.9804,-3.9804,-4.1162,-4.2143,-4.2374,-4.2604,-4.3104,-4.3932,-4.397,-4.4259,-4.4902,-4.4933,-4.4938,-4.4938,-4.4974,-4.5032,-4.5142,-4.5142,-4.516,-4.5213,-4.5247,-4.5278,-4.5266,-4.5384,-4.5446,-4.5408,-4.4861,-4.4648,-4.4512,-4.3183,-4.2519,-4.2305,-4.2305,-4.1894,-4.1367,0.0,-3.0404,-3.0404,-3.0404,-3.0404,-3.0404,-3.0404,-3.0404,-3.1,-3.2679,-3.3333,-3.4757,-3.768,-3.845,-3.9719,-4.2124,-4.2,-4.1942,-4.2316,-4.1707,-4.1857,-4.2986,-4.4064,-4.5217,-4.6428,-4.7266,-4.7673,-4.759,-4.8086,-4.8306,-4.8306,-4.8306,-4.8306,-4.8306,-4.8306,-4.8049,-4.759,-4.759,-4.7131,-4.6324,-4.5388,-4.3351,-4.0781,-3.9643,-3.8193,-3.6615,-3.5312,-3.4321,-3.3353,-3.1739,0.0,0.0,0.0,0.0,0.0,0.0,0.0,0.0,0.0,0.0,0.0,0.0,0.0,0.0,0.0,0.0,0.0,0.0,0.0,0.0,0.0,0.0,0.0,0.0,-3.5526,-3.6796,-3.7507,-3.8007,-3.8488,-3.8988,-4.0546,-4.1593,-4.1593,-4.2816,-4.3605,-4.3605,-4.3932,-4.4355,-4.4816,-4.4836,-4.5075,-4.5575,-4.5594,-4.5594,-4.5594,-4.5594,-4.5643,-4.5723,-4.5723,-4.5742,-4.5783,-4.5834,-4.5861,0.0,-4.5967,-4.6027,-4.5972,-4.5542,-4.5379,0.0,0.0,0.0,0.0,0.0,-4.3379,-4.2949,0.0,-3.0404,-3.0404,-3.0404,-3.0404,-3.0404,-3.0404,-3.0404,-3.1,-3.2679,-3.2891,-3.416,-3.7488,-3.795,-3.9296,-4.2527,-4.22,-4.2181,-4.3047,-4.289,-4.3642,-4.5534,-4.5873,-4.6713,-4.8175,-4.7911,-4.7935,-4.8306,-4.8306,-4.8306,-4.8306,-4.8306,-4.8306,-4.8306,-4.8306,-4.8306,-4.8306,-4.8306,-4.7902,-4.7223,-4.7131,-4.5278,-4.2396,-4.0873,-3.9365,-3.7915,-3.6909,-3.6083,-3.5169,-3.3445,0.0,0.0,0.0,0.0,0.0,0.0,0.0,0.0,0.0,0.0,0.0,0.0,0.0,0.0,0.0,0.0,0.0,0.0,0.0,0.0,0.0,0.0,0.0,0.0,-3.6738,-3.8873,-4.0554,-4.0862,-4.09,-4.0804,-4.2239,-4.3239,-4.3239,-4.397,-4.4451,-4.4451,-4.5171,-4.5594,-4.5594,0.0,0.0,0.0,0.0,-4.5594,-4.5594,-4.5594,-4.5594,-4.5594,-4.5594,-4.5594,-4.5603,-4.5711,-4.5789,-4.5783,-4.5861,-4.59,-4.5881,-4.5894,-4.5899,-4.5764,-4.4476,-4.3984,-4.3984,-4.3984,-4.3926,0.0,0.0,-3.0404,-3.0404,-3.0404,-3.0404,-3.0404,-3.0404,-3.0404,-3.1,-3.2679,-3.2891,-3.393,-3.6654,-3.7584,-3.8815,-4.0823,-4.1489,-4.2181,-4.3047,-4.399,-4.4855,-4.5647,-4.6727,-4.7622,-4.8273,-4.8218,-4.8217,-4.8306,-4.8306,-4.8306,-4.8306,-4.8306,-4.8306,-4.8306,-4.8306,-4.8306,-4.8306,-4.8306,-4.8214,-4.8012,-4.7351,-4.5938,-4.414,-4.3167,-4.2194,-4.1093,-3.9001,-3.8138,-3.7628,-3.5316,-3.4105,-3.344,-3.2632,-3.1366,0.0,0.0,0.0,0.0,0.0,0.0,0.0,0.0,0.0,0.0,0.0,0.0,0.0,0.0,0.0,0.0,0.0,0.0,0.0,-3.8072,-3.9265,-4.0631,-4.2354,-4.3162,-4.3316,-4.2662,-4.347,-4.4066,-4.4066,-4.4836,-4.5344,-4.5344,-4.5498,-4.5594,-4.5594,-4.5594,0.0,-4.5594,-4.5594,-4.5594,-4.5594,-4.5594,-4.5594,-4.5594,0.0,0.0,-4.5594,-4.5637,-4.5635,-4.5651,-4.5776,-4.5828,-4.582,-4.5877,-4.5899,-4.5873,-4.5706,-4.5693,-4.5801,-4.5801,-4.5351,-4.4746,0.0,-3.0404,-3.0404,-3.0404,-3.0404,-3.0404,-3.0404,-3.0404,-3.0865,-3.2141,-3.2295,-3.3103,-3.5218,-3.5834,-3.6949,-3.9065,-4.0816,-4.1912,-4.2181,-4.4186,-4.5659,-4.6312,-4.7598,-4.8387,-4.8586,-4.8604,-4.8495,-4.8306,-4.8306,-4.8306,-4.8306,-4.8306,-4.8306,-4.8306,-4.8306,-4.8306,-4.8306,-4.8306,-4.8306,-4.8269,-4.7846,-4.6746,-4.5223,-4.4415,-4.3351,-4.2084,-4.0487,-3.9643,-3.8982,-3.6945,-3.5716,-3.4908,-3.4069,-3.2693,-3.1317,0.0,0.0,0.0,0.0,0.0,0.0,0.0,0.0,0.0,0.0,0.0,0.0,0.0,0.0,-3.434,-3.4776,0.0,-3.8296,-3.9169,-4.0708,-4.2239,-4.3528,-4.4047,-4.4143,-4.3739,-4.4432,-4.496,-4.496,-4.5344,-4.5594,-4.5594,-4.5594,-4.5594,-4.5594,-4.5594,-4.5594,-4.5594,-4.5594,-4.5594,-4.5594,-4.5594,-4.5594,-4.5594,-4.5594,-4.5594,-4.5594,-4.5594,-4.5594,-4.5603,-4.5673,-4.57,-4.5708,-4.5743,-4.5789,-4.5869,-4.5915,-4.6004,-4.6108,-4.6108,-4.587,-4.5555,0.0,-3.0404,-3.0404,-3.0404,-3.0404,-3.0404,-3.0404,-3.0404,-3.0712,-3.1583,-3.1698,-3.2275,-3.3782,-3.4109,-3.5167,-3.7546,-3.9873,-4.1241,-4.1301,-4.4008,-4.598,-4.6864,-4.81,-4.8779,-4.8779,-4.8779,-4.8621,-4.8306,-4.8306,-4.8306,-4.8306,-4.8306,-4.8306,-4.8306,-4.8306,-4.8306,-4.8306,-4.8306,-4.8306,-4.8306,-4.8141,-4.7205,-4.581,-4.5021,-4.3809,-4.2415,-4.1425,-4.0579,-3.968,-3.8227,-3.6982,-3.5954,-3.5426,-3.4032,-3.2472,-3.1825,-3.1525,0.0,0.0,0.0,0.0,0.0,0.0,0.0,0.0,0.0,-3.3578,-3.4704,-3.5071,-3.5449,-3.6315,-3.8296,-3.9892,-4.0227,-4.1989,-4.3624,-4.4432,-4.4547,-4.4547,-4.4547,-4.5171,-4.5594,-4.5594,-4.5594,-4.5594,-4.5594,-4.5594,-4.5594,-4.5594,-4.5594,-4.5691,-4.5845,-4.5845,-4.5941,-4.6075,-4.6095,-4.6095,-4.6095,-4.6095,-4.6095,-4.6095,-4.6095,-4.6095,-4.6075,-4.5922,-4.5845,-4.5845,-4.5671,-4.5657,-4.5768,-4.5768,-4.5796,-4.5852,-4.5881,-4.5974,-4.605,0.0,-3.0404,-3.0404,-3.0404,-3.0404,-3.0404,-3.0404,-3.0404,-3.0712,-3.1583,-3.1698,-3.2045,-3.2949,-3.3744,-3.4911,-3.6692,-3.824,-3.9748,-4.1214,-4.3794,-4.5628,-4.6432,-4.7682,-4.8364,-4.8364,-4.8364,-4.8345,-4.8306,-4.8306,-4.8306,-4.8306,-4.8306,-4.8306,-4.8306,-4.8306,-4.8306,-4.8306,-4.8306,-4.8306,-4.8251,-4.7516,-4.6691,-4.581,-4.5021,-4.414,-4.3167,-4.1662,-4.0579,-3.9753,-3.8872,-3.7041,-3.5261,-3.5936,-3.4523,-3.2583,-3.2491,-3.1953,-3.1231,-3.0411,-3.0265,-3.0391,-3.0668,-3.1792,-3.317,0.0,0.0,-3.6274,-3.7355,-3.818,-3.8977,-3.9785,-4.0816,-4.2008,-4.3489,-4.397,-4.447,-4.5325,-4.546,-4.546,-4.546,-4.5537,-4.5594,-4.5594,-4.5594,-4.5594,-4.5594,-4.5594,-4.5594,-4.5594,-4.5594,-4.5951,-4.674,-4.6759,-4.7105,-4.7817,-4.7817,-4.7817,-4.7817,-4.7817,-4.7817,-4.7817,-4.7817,-4.7817,-4.7778,-4.7067,-4.6759,-4.6701,-4.5913,-4.5612,-4.561,-4.561,-4.5627,-4.5653,-4.5836,-4.5907,-4.592,0.0,0.0,-3.0404,-3.0404,-3.0404,-3.0404,-3.0404,-3.0404,-3.0538,-3.0904,-3.0942,-3.1077,-3.1404,-3.2218,-3.3026,-3.3737,-3.6397,-3.8451,-3.9429,-4.2641,-4.4989,-4.6057,-4.7077,-4.781,-4.8306,-4.8306,-4.8306,-4.8306,-4.8306,-4.8306,-4.8306,-4.8306,-4.8306,-4.8306,-4.8306,-4.8306,-4.8306,-4.8306,-4.8031,-4.7571,-4.7241,-4.6342,-4.5112,-4.4305,-4.3497,-4.258,-4.0983,-3.9882,0.0,-3.7734,-3.627,-3.5059,-3.5426,-3.4197,-3.2601,-3.2601,-3.2027,-3.1433,-3.1568,-3.1604,-3.185,0.0,-3.3684,-3.4538,-3.5754,-3.6436,-3.7119,-3.8246,-3.9287,-4.0265,-4.1104,-4.2354,-4.3489,0.0,-4.472,-4.519,-4.5556,-4.5594,-4.5594,-4.5594,-4.5594,-4.5594,-4.5594,-4.5594,-4.5594,-4.5594,-4.5594,-4.5594,-4.5594,-4.6086,-4.6528,-4.6885,-4.7346,-4.7759,-4.8105,-4.8105,-4.8105,-4.8105,-4.8105,-4.8105,-4.8105,-4.8105,-4.8105,-4.8086,-4.774,-4.7605,-4.7567,-4.7201,-4.6778,-4.6355,-4.6355,-4.6047,-4.5612,-4.5699,-4.5764,-4.5842,0.0,0.0,0.0,-3.0404,-3.0404,-3.0404,-3.0404,-3.0404,-3.0404,-3.0404,-3.0404,-3.0404,-3.0404,-3.0906,-3.1322,-3.1571,-3.4301,-3.6527,-3.7701,-4.1017,-4.3635,-4.5167,-4.6232,-4.7149,-4.7957,-4.7957,-4.8067,-4.8306,-4.8306,-4.8306,-4.8306,-4.8306,-4.8306,-4.8306,-4.8306,-4.8196,-4.7957,-4.7957,-4.7498,-4.6746,-4.6526,-4.5608,-4.4287,-4.3479,-4.2249,-4.0855,-3.99,-3.8909,-3.7826,-3.6413,-3.5078,-3.405,-3.427,-3.339,-3.2284,-3.2284,-3.1861,-3.158,-3.2381,-3.2748,0.0,-3.4656,-3.54,-3.6029,-3.6842,-3.7408,-3.8024,-3.8857,-3.9843,-4.0879,-4.185,-4.3183,-4.4276,-4.4596,-4.519,-4.5594,-4.5594,-4.5594,-4.5594,-4.5594,-4.5594,-4.5594,-4.5594,-4.5594,-4.5594,-4.5594,-4.5594,-4.571,-4.5951,-4.6567,-4.7096,-4.7567,-4.8144,-4.8567,-4.8817,-4.8817,-4.8817,-4.8817,-4.8817,-4.8817,-4.8817,-4.8817,-4.8817,-4.8798,-4.8567,-4.8471,-4.8432,-4.8202,-4.7759,-4.7231,-4.7231,-4.6855,-4.6278,-4.6278,-4.6061,-4.5747,0.0,0.0,0.0,0.0,-3.0404,-3.0404,-3.0404,-3.0404,-3.0404,-3.0404,-3.0404,-3.0404,-3.0404,-3.0202,-3.0402,-3.123,-3.1896,-3.3531,-3.6553,-3.9003,-4.128,-4.3478,-4.5094,-4.6305,-4.7113,-4.7131,-4.7516,-4.8306,-4.8306,-4.8306,-4.8306,-4.8306,-4.8306,-4.8306,-4.8306,-4.7865,-4.7131,-4.7131,-4.6654,-4.5865,-4.5094,-4.4287,-4.3442,-4.2635,-4.0377,-3.7731,-3.8469,-3.7716,-3.6229,-3.5334,-3.3476,-3.1654,-3.243,-3.21,-3.1452,-3.1452,-3.1415,-3.158,-3.2381,-3.3183,-3.3972,-3.4784,-3.6416,-3.7813,-3.7864,-3.8726,-3.9524,-3.9573,-4.0222,-4.1158,-4.2359,-4.3238,-4.4199,-4.5358,-4.5575,-4.5594,-4.5594,-4.5594,-4.5594,-4.5594,-4.5594,-4.5594,0.0,-4.5594,-4.5594,-4.5594,-4.5594,-4.597,-4.6817,-4.6885,-4.7644,-4.926,-4.9356,-4.976,-5.0616,-5.0616,-5.0616,-5.0616,-5.0616,-5.0616,-5.0616,-5.0616,-5.0616,-5.0577,-4.9721,-4.9356,-4.9298,-4.8452,-4.8086,-4.8067,-4.8067,-4.8048,-4.8029,-4.8029,-4.6999,-4.5603,0.0,0.0,0.0,0.0,0.0,-3.0349,-3.0157,-3.0292,-3.0404,-3.0404,-3.0248,0.0,0.0,0.0,0.0,0.0,-3.1392,-3.2714,-3.4146,-3.6846,-3.9234,-4.1036,-4.3149,-4.4672,-4.548,-4.603,-4.6434,-4.6709,-4.6709,-4.6709,-4.6709,-4.6709,-4.6709,-4.6709,-4.6709,-4.6562,-4.6269,-4.5718,-4.5039,-4.4232,-4.3424,-4.1992,-4.023,-3.942,-3.7753,-3.5752,0.0,-3.4289,-3.3733,-3.2889,-3.2063,-3.1452,-3.1715,-3.1256,-3.0705,-3.125,-3.2168,-3.3164,-3.3977,-3.4816,-3.5642,-3.645,-3.7544,-3.8423,-3.8423,-3.8882,-3.9264,-3.9264,-3.9695,-4.0424,-4.1538,-4.1999,-4.2757,-4.4463,-4.4739,-4.494,-4.5518,-4.5594,-4.5594,-4.5594,-4.5594,0.0,0.0,0.0,0.0,-4.5594,-4.5594,-4.597,-4.6846,-4.7413,-4.8221,-4.9356,-4.9952,-5.0404,-5.0712,-5.0712,-5.0712,-5.0712,-5.0712,-5.0712,-5.0712,-5.0712,-5.0712,-5.0673,-5.0385,-5.0269,-5.025,-4.9952,-4.9471,-4.8952,-4.8952,-4.8606,-4.8105,-4.8105,-4.774,-4.7182,0.0,0.0,0.0,0.0,0.0,0.0,0.0,0.0,0.0,0.0,0.0,0.0,0.0,0.0,0.0,0.0,0.0,-3.1503,-3.237,-3.4607,-3.6564,-3.8083,-4.021,-4.1717,-4.2526,-4.3351,-4.3901,-4.4176,-4.447,-4.4617,-4.4617,-4.4911,-4.5039,-4.5039,-4.5039,-4.4874,-4.458,-4.4066,-4.3204,-4.2156,-4.1332,-3.9735,-3.7753,-3.6909,-3.5404,0.0,-3.254,-3.1794,-3.128,-3.1054,-3.0779,-3.0595,-3.087,-3.0797,-3.0797,-3.1586,-3.2761,-3.4045,-3.5151,-3.6083,-3.6923,-3.7716,-3.8322,-3.8707,-3.8707,-3.8829,-3.8897,-3.8704,-3.9024,-3.9533,-4.0154,-4.079,-4.1768,-4.3454,-4.4042,-4.4605,-4.5479,-4.5594,-4.5594,-4.5594,-4.5594,-4.5594,0.0,0.0,0.0,-4.5594,-4.5893,-4.6432,-4.7278,-4.8105,-4.8952,-4.9837,-5.0423,-5.0712,-5.0712,-5.0712,-5.0712,-5.0712,-5.0712,-5.0712,-5.0712,-5.0712,-5.0712,-5.0712,-5.0712,-5.0712,-5.0712,-5.0712,-5.0366,-4.9856,-4.9856,-4.951,-4.9029,-4.9029,-4.8836,-4.8452,0.0,0.0,0.0,0.0,0.0,0.0,0.0,0.0,0.0,0.0,0.0,0.0,0.0,0.0,0.0,0.0,0.0,0.0,-3.1189,-3.2304,-3.3482,-3.4761,-3.645,-3.7716,-3.8505,-3.9294,-4.0084,-4.0838,-4.1625,-4.1992,-4.2011,-4.2763,-4.3129,-4.3129,-4.3129,-4.2708,-4.1992,-4.1956,-4.1056,-3.957,-3.8781,-3.7496,-3.5954,-3.5133,-3.3335,-3.1286,-3.1286,-3.032,-2.917,-2.9898,-2.9647,-2.9207,-3.0008,-3.0834,-3.169,-3.2491,-3.3316,-3.4357,-3.5973,-3.6978,-3.7749,-3.8505,-3.8707,-3.8707,-3.8707,-3.867,-3.8486,-3.7978,-3.8227,-3.8467,-3.8334,0.0,-4.1105,-4.2399,-4.3493,-4.4512,-4.5425,-4.5559,-4.5559,0.0,0.0,0.0,0.0,0.0,0.0,-4.5635,0.0,-4.7269,-4.8125,-4.8952,-4.9798,-5.0673,-5.0712,-5.0712,-5.0712,-5.0712,-5.0712,-5.0712,-5.0712,-5.0712,-5.0712,-5.0712,-5.0712,-5.0712,-5.0712,-5.0712,-5.0712,-5.0712,-5.0712,-5.0712,-5.0712,-5.0712,-5.0712,-5.0712,-5.0192,-4.9356,0.0,0.0,0.0,0.0,0.0,0.0,0.0,0.0,0.0,0.0,0.0,0.0,0.0,0.0,0.0,0.0,0.0,0.0,-2.9597,-3.0998,-3.1967,-3.2302,-3.4449,-3.572,-3.594,-3.678,-3.7312,-3.7514,-3.7734,-3.7826,-3.7826,-3.8028,-3.8138,-3.8138,-3.8138,-3.801,-3.779,-3.7132,-3.6619,-3.6178,-3.5367,-3.4082,-3.2627,-3.2394,-3.1201,-2.961,-2.961,-2.9721,-2.9831,-2.9445,-2.9574,-3.0026,-3.0834,-3.2045,-3.3348,-3.4142,-3.5422,-3.6795,-3.7808,-3.8248,-3.8432,-3.8652,-3.8707,-3.8707,-3.8707,-3.823,-3.7779,-3.7628,-3.6709,-3.6187,-3.6995,-3.7492,0.0,-4.0973,-4.2094,0.0,-4.4652,-4.4842,0.0,-4.4842,0.0,-4.4842,-4.4842,-4.5619,0.0,0.0,-4.6618,-4.7528,-4.899,-4.9279,-4.9798,-5.0673,-5.0712,-5.0712,-5.0712,-5.0712,-5.0712,-5.0712,-5.0712,-5.0712,-5.0712,-5.0712,-5.0712,-5.0712,-5.0712,-5.0712,-5.0712,-5.0712,-5.0712,-5.0712,-5.0712,-5.0712,-5.0712,-5.0712,-5.0558,-5.0346,0.0,0.0,0.0,0.0,0.0,0.0,0.0,0.0,0.0,0.0,0.0,0.0,0.0,0.0,0.0,0.0,0.0,0.0,0.0,-2.9861,-3.0356,-3.0356,-3.1977,-3.2894,-3.2894,-3.3715,-3.4137,-3.4137,-3.4504,-3.4688,-3.4688,-3.5037,-3.5202,-3.5202,-3.5202,-3.5202,-3.5165,-3.4688,-3.427,0.0,0.0,-3.199,-3.0834,-3.0485,-2.9787,-2.9005,-2.9005,-2.9519,-3.0173,-3.0099,0.0,-3.1329,-3.1788,-3.3036,-3.4491,-3.5334,-3.6486,-3.7676,-3.8487,-3.8707,-3.8707,-3.8707,-3.8707,-3.8615,-3.8248,-3.7823,-3.7334,-3.6736,-3.5772,-3.5243,-3.6031,-3.6447,0.0,0.0,0.0,0.0,-4.4366,-4.4593,-4.4593,0.0,-4.49,0.0,-4.5132,-4.6032,-4.6739,0.0,-4.7677,-4.8413,-4.9356,-4.976,-5.0183,-5.0693,-5.0712,-5.0712,-5.0712,-5.0712,-5.0712,-5.0712,-5.0712,-5.0712,-5.0712,-5.0712,-5.0712,-5.0712,0.0,-5.0712,-5.0712,-5.0712,-5.0712,-5.0712,-5.0712,-5.0712,-5.0712,-5.0712,-5.0712,-5.0712,0.0,0.0,0.0,0.0,0.0,0.0,0.0,0.0,0.0,0.0,-2.9005,0.0,0.0,0.0,0.0,0.0,0.0,0.0,0.0,0.0,-2.9005,-2.9005,-2.9666,-3.0044,-3.0044,-3.0723,-3.1085,-3.1085,-3.1775,-3.2124,-3.2142,-3.2852,-3.3164,-3.3164,-3.3164,-3.3164,-3.3164,-3.3164,-3.2761,-3.2051,-3.1366,-3.065,-2.9971,0.0,-2.9005,-2.9005,-2.9115,-2.9684,-3.0485,-3.1292,-3.2027,-3.2619,-3.2729,-3.3867,-3.5316,-3.6083,-3.696,-3.7823,-3.8505,-3.8707,-3.8707,-3.8707,-3.8707,-3.8487,-3.7676,-3.7419,-3.6973,-3.5701,0.0,-3.4954,-3.5361,-3.6,-3.7277,-3.9765,0.0,-4.2396,-4.4052,-4.439,-4.4447,-4.4447,-4.5153,-4.5646,-4.5646,-4.6535,-4.7372,-4.8083,-4.8941,-4.9441,-4.95,-5.0211,-5.0634,-5.0712,-5.0712,-5.0712,-5.0712,-5.0712,-5.0712,-5.0712,-5.0712,-5.0712,-5.0712,-5.0712,-5.0712,-5.0712,0.0,0.0,-5.0712,-5.0712,-5.0712,-5.0712,-5.0712,-5.0712,-5.0712,-5.0712,-5.0712,-5.0712,0.0,0.0,0.0,0.0,0.0,0.0,0.0,0.0,0.0,0.0,-2.9005,-2.9005,0.0,0.0,0.0,0.0,0.0,0.0,0.0,0.0,0.0,-2.9005,-2.9133,-2.9207,-2.9207,-2.9335,-2.9427,-2.9427,-2.9555,-2.9629,-2.9629,-2.9776,-2.9831,-2.9831,-2.9831,-2.9831,-2.9831,-2.9831,-2.9757,-2.961,-2.9464,-2.9335,-2.9189,-2.906,0.0,0.0,-2.9739,-3.0503,-3.1311,-3.2118,-3.2472,-3.2711,-3.3385,-3.4724,-3.6101,-3.6266,-3.7331,-3.8524,-3.867,-3.8707,-3.8707,-3.8707,-3.8707,-3.8487,-3.7676,-3.6997,0.0,0.0,-3.4508,-3.4224,-3.4958,-3.5193,-3.6108,-3.8593,-3.9721,-4.0852,-4.2461,-4.3254,-4.3695,0.0,-4.4398,-4.4898,0.0,0.0,0.0,0.0,0.0,0.0,-4.9954,-5.0118,-5.0358,-5.0683,-5.0712,-5.0712,-5.0712,-5.0712,-5.0712,-5.0712,-5.0712,-5.0712,-5.0712,-5.0712,-5.0712,-5.0712,0.0,0.0,-5.0712,-5.0712,-5.0712,-5.0712,-5.0712,-5.0712,-5.0712,-5.0712,-5.0712,-5.0712,0.0,0.0,0.0,0.0,0.0,0.0,0.0,-2.9005,-2.9005,-2.9005,-2.9005,-2.9005,-2.9005,-2.9005,-2.9005,0.0,0.0,0.0,0.0,0.0,0.0,0.0,-2.9005,-2.9005,-2.9005,-2.9005,-2.9005,-2.9005,0.0,-2.9005,-2.9005,0.0,0.0,0.0,-2.9005,-2.9005,-2.9005,-2.9005,-2.9005,-2.9005,-2.9005,-2.9005,0.0,0.0,0.0,0.0,0.0,-3.0099,-3.0834,-3.1219,-3.1641,-3.2192,-3.3403,-3.4945,-3.6211,-3.5771,-3.7077,-3.8615,-3.8193,-3.8377,-3.8707,-3.8707,-3.8707,-3.8377,-3.7147,0.0,0.0,0.0,-3.3109,-3.2926,-3.4156,-3.438,0.0,-3.7661,-3.9093,-4.0322,-4.1515,-4.2727,0.0,-4.3515,-4.4213,0.0,0.0,0.0,0.0,0.0,0.0,0.0,-4.976,-4.9993,-5.0183,-5.0369,-5.0594,-5.0712,-5.0712,-5.0712,-5.0712,-5.0712,-5.0712,-5.0712,-5.0712,-5.0712,-5.0712,-5.0712,0.0,0.0,-5.0712,-5.0712,-5.0712,-5.0712,-5.0712,-5.0712,-5.0712,-5.0712,-5.0712,-5.0712,0.0,0.0,0.0,0.0,0.0,0.0,-2.9005,-2.9005,-2.9005,-2.9005,-2.9005,-2.9005,-2.9005,-2.9005,-2.9005,0.0,0.0,0.0,0.0,0.0,0.0,0.0,0.0,-2.9005,-2.9005,0.0,0.0,0.0,-2.9005,0.0,0.0,0.0,0.0,0.0,0.0,0.0,0.0,-2.8952,-2.894,0.0,0.0,0.0,0.0,0.0,0.0,0.0,0.0,-2.9519,-3.021,-3.021,-3.0723,-3.1617,-3.2889,-3.4302,-3.544,-3.5096,-3.6509,-3.812,-3.7841,-3.8212,-3.8707,-3.8707,-3.8707,-3.823,-3.645,-3.55,0.0,-3.2711,-3.1843,-3.1892,-3.3495,-3.366,-3.4357,0.0,-3.83,-3.9533,-4.0689,-4.2084,-4.3112,0.0,-4.4213,0.0,0.0,0.0,0.0,0.0,0.0,0.0,0.0,-4.976,-4.9962,-4.9962,-5.0272,-5.0432,-5.0432,-5.0432,-5.0483,-5.0565,-5.0565,-5.0614,-5.0712,-5.0712,-5.0712,-5.0712,0.0,0.0,0.0,-5.0712,-5.0712,-5.0712,-5.0712,-5.0712,-5.0712,-5.0712,-5.0712,-5.0712,0.0,0.0,0.0,0.0,0.0,0.0,-2.9005,-2.9005,-2.9005,-2.9005,-2.9005,-2.9005,-2.9005,-2.9005,-2.9005,0.0,0.0,0.0,0.0,0.0,0.0,0.0,0.0,0.0,0.0,0.0,0.0,0.0,0.0,0.0,0.0,0.0,0.0,0.0,0.0,0.0,0.0,0.0,0.0,0.0,0.0,0.0,0.0,0.0,0.0,0.0,0.0,0.0,-3.021,-3.021,0.0,-3.1433,-3.158,-3.2228,-3.3206,-3.4601,0.0,0.0,-3.8212,-3.8652,-3.8707,-3.8707,-3.8707,-3.8102,-3.5752,0.0,-3.4344,-3.199,-3.1452,-3.1892,-3.3495,-3.3201,-3.3532,-3.6009,-3.6523,-3.7422,-3.968,-4.0781,-4.1864,-4.3331,0.0,0.0,0.0,0.0,0.0,0.0,0.0,0.0,0.0,-4.9341,-4.9566,-4.9566,-4.9575,-4.9603,-4.9603,-4.9603,-4.9787,-5.0159,-5.0159,-5.0347,-5.0712,-5.0712,-5.0712,-5.0712,0.0,0.0,0.0,-5.0712,-5.0712,-5.0712,-5.0712,-5.0712,-5.0712,-5.0712,-5.0712,-5.0712,0.0,0.0,0.0,0.0,0.0,0.0,-2.9005,-2.9005,-2.9005,-2.9005,-2.9005,-2.9005,-2.9005,-2.9005,-2.9005,-2.9005,0.0,0.0,0.0,0.0,0.0,0.0,0.0,0.0,0.0,0.0,-2.9005,-2.9005,0.0,0.0,0.0,0.0,0.0,0.0,0.0,0.0,0.0,0.0,0.0,0.0,0.0,0.0,0.0,0.0,0.0,0.0,0.0,0.0,-2.9482,-2.9482,0.0,0.0,-2.9971,-3.0179,0.0,0.0,-3.4119,-3.5665,-3.6307,-3.7221,-3.8083,-3.8579,-3.834,-3.7459,-3.5481,0.0,-3.3005,-3.1072,-3.0283,-3.0301,-3.1421,-3.177,-3.2357,-3.3844,-3.533,-3.6964,-3.8909,-4.0288,-4.1699,0.0,0.0,0.0,0.0,0.0,0.0,0.0,0.0,0.0,0.0,-4.8913,-4.9139,-4.9139,-4.9371,-4.9489,-4.9489,-4.9489,-4.9575,-4.9746,-4.9974,-5.0183,-5.0347,-5.0594,-5.0712,-5.0712,0.0,0.0,0.0,-5.0712,-5.0712,-5.0712,-5.0712,-5.0712,-5.0712,-5.0712,-5.0712,-5.0712,0.0,0.0,0.0,0.0,0.0,-2.9005,-2.9005,-2.9005,-2.9005,-2.9005,-2.9005,-2.9005,-2.9005,-2.9005,-2.9005,-2.9005,-2.9005,0.0,0.0,0.0,0.0,0.0,0.0,0.0,0.0,0.0,-2.9005,-2.9005,-2.9005,-2.9005,0.0,0.0,0.0,0.0,0.0,0.0,0.0,0.0,0.0,0.0,0.0,0.0,0.0,0.0,0.0,0.0,0.0,0.0,0.0,0.0,0.0,-2.9005,-2.9005,-2.9005,-2.9317,-3.0925,-3.2596,-3.4087,-3.4821,-3.5848,-3.6964,-3.779,-3.7367,-3.6321,0.0,0.0,-3.1788,-3.0191,-2.939,-2.9244,-3.0063,-3.0852,-3.1659,-3.2472,-3.4266,-3.6211,-3.8083,-3.9533,-4.1001,0.0,0.0,0.0,0.0,0.0,0.0,0.0,0.0,0.0,0.0,-4.8568,-4.8709,-4.8709,-4.8996,-4.9158,-4.9158,-4.9158,-4.9202,-4.9326,-4.9603,-4.9813,-4.9936,-5.0225,-5.041,0.0,0.0,0.0,0.0,-5.0712,-5.0624,-5.0514,-5.0514,-5.0442,-5.0358,-5.0483,-5.0462,-5.0388,0.0,0.0,0.0,0.0,0.0,0.0,-2.9005,-2.9005,-2.9005,-2.9005,-2.9005,-2.9005,-2.9005,-2.9005,-2.9005,-2.9005,-2.9005,0.0,0.0,0.0,0.0,0.0,0.0,0.0,0.0,0.0,-2.9005,-2.9005,-2.9005,-2.9005,-2.9005,-2.9005,0.0,0.0,0.0,0.0,0.0,0.0,0.0,0.0,0.0,0.0,-2.7897,0.0,0.0,0.0,0.0,0.0,0.0,0.0,0.0,0.0,0.0,-2.9005,-2.9317,-3.0925,-3.1415,-3.1953,-3.4344,-3.5023,-3.5243,-3.6101,-3.5665,-3.4601,-3.2986,-3.2008,-3.0962,-2.9335,-2.9005,-2.9244,-3.0063,-3.0852,-3.1659,-3.2472,-3.3293,-3.4688,-3.7162,-3.8212,0.0,0.0,0.0,0.0,0.0,0.0,0.0,0.0,0.0,0.0,0.0,0.0,-4.8306,-4.8306,-4.8306,-4.8306,-4.8306,-4.8306,-4.8513,-4.8913,-4.8913,-4.9123,-4.9522,-4.9504,0.0,0.0,0.0,0.0,0.0,-5.0712,-5.0472,-5.0123,-5.0123,-4.9853,-4.9547,-4.9962,-4.984,-4.9636,0.0,0.0,0.0,0.0,0.0,0.0,-2.9005,-2.9005,-2.9005,-2.9005,-2.9005,-2.9005,-2.9005,-2.9005,-2.9005,-2.9005,-2.9005,0.0,0.0,0.0,0.0,0.0,0.0,0.0,0.0,-2.9005,-2.9005,-2.9005,-2.9005,-2.9005,-2.9005,-2.9005,-2.8851,-2.8565,0.0,0.0,0.0,0.0,0.0,0.0,0.0,-2.756,-2.7147,0.0,0.0,0.0,0.0,0.0,0.0,0.0,0.0,0.0,0.0,0.0,0.0,-2.961,-3.0155,-3.087,-3.2173,-3.2931,-3.3555,-3.4394,-3.3972,-3.3078,-3.2027,-3.1164,-3.0283,-2.9225,-2.9005,-2.9078,-2.9335,-3.0485,-3.1488,-3.1733,-3.2926,-3.4468,0.0,0.0,0.0,0.0,0.0,0.0,0.0,0.0,0.0,0.0,0.0,0.0,0.0,0.0,-4.8306,-4.8306,-4.8306,-4.8306,-4.8306,-4.8306,-4.8364,-4.8495,-4.8761,-4.898,-4.9092,-4.9371,0.0,0.0,0.0,0.0,0.0,-4.9885,-4.98,-4.9692,-4.9692,-4.9603,-4.9504,-4.9631,-4.9603,-4.9551,0.0,0.0,0.0,0.0,0.0,0.0,-2.8803,-2.8773,-2.8725,-2.8601,-2.8589,-2.8492,-2.8197,-2.8178,-2.8052,-2.7731,-2.8099,0.0,0.0,0.0,0.0,0.0,0.0,0.0,-2.9005,-2.9005,-2.8929,-2.8773,-2.8773,-2.8713,-2.8589,-2.8589,-2.8438,-2.8197,-2.7837,-2.753,0.0,0.0,0.0,0.0,-2.735,-2.7147,-2.6758,0.0,0.0,0.0,0.0,0.0,0.0,0.0,0.0,0.0,0.0,0.0,0.0,0.0,-2.912,-2.9722,-3.0699,-3.1311,-3.1898,-3.2687,-3.2284,-3.1555,-3.1054,-3.032,-2.961,-2.9097,-2.9005,-2.9005,-2.9005,-3.032,-3.1397,-3.1397,-3.2742,-3.4394,0.0,0.0,0.0,0.0,0.0,0.0,0.0,0.0,0.0,0.0,0.0,0.0,0.0,0.0,-4.8306,-4.8306,-4.8306,-4.8306,-4.8306,-4.8306,-4.8306,-4.8306,-4.855,-4.8675,-4.8675,0.0,0.0,0.0,0.0,0.0,0.0,-4.9489,-4.9416,-4.928,-4.928,-4.9171,-4.9078,-4.9218,-4.9171,-4.9094,0.0,0.0,0.0,0.0,0.0,0.0,0.0,-2.835,-2.8228,-2.7883,-2.7809,-2.7539,-2.6805,-2.6716,-2.6424,-2.5694,-2.6608,0.0,0.0,0.0,0.0,0.0,0.0,0.0,-2.9005,-2.8964,-2.8773,-2.8407,-2.8381,-2.821,-2.7897,-2.7897,-2.7883,-2.784,-2.7472,-2.727,-2.7224,-2.6857,-2.6691,-2.6691,-2.6691,-2.6691,0.0,0.0,0.0,0.0,0.0,0.0,0.0,0.0,0.0,0.0,0.0,0.0,0.0,0.0,0.0,0.0,0.0,-3.0063,-3.0247,-3.1011,-3.0613,-3.0063,-3.0063,-2.9525,0.0,-2.9005,-2.9005,-2.9005,-2.9005,-3.032,-3.1397,-3.1397,-3.2742,-3.4357,0.0,0.0,0.0,0.0,0.0,0.0,0.0,0.0,0.0,0.0,0.0,0.0,0.0,0.0,0.0,-4.8306,-4.8306,-4.8306,-4.8306,-4.8306,-4.8306,-4.8306,-4.8306,-4.8306,-4.8306,0.0,0.0,0.0,0.0,0.0,0.0,-4.9416,-4.9187,-4.8846,-4.8846,-4.8621,-4.8345,-4.8709,-4.8604,-4.842,0.0,0.0,0.0,0.0,0.0,0.0,0.0,0.0,0.0,0.0,-2.7057,-2.6752,-2.5975,-2.5887,-2.5918,0.0,0.0,0.0,0.0,0.0,0.0,0.0,0.0,0.0,-2.9005,-2.8694,-2.8484,-2.8407,-2.8143,-2.7982,-2.7897,-2.7897,-2.7739,-2.7441,-2.7332,-2.7131,-2.6824,-2.6741,-2.6691,-2.6691,-2.6691,-2.6691,0.0,0.0,0.0,0.0,-2.6691,-2.6758,0.0,0.0,0.0,0.0,0.0,0.0,0.0,0.0,-2.8024,-2.8142,-2.868,0.0,-2.8878,-2.906,-2.8951,-2.8824,0.0,-2.8901,-2.9005,-2.9005,-2.9005,-2.9005,-2.9005,-3.032,-3.1397,-3.1397,-3.2742,-3.4156,0.0,0.0,0.0,0.0,0.0,0.0,0.0,0.0,0.0,0.0,0.0,0.0,0.0,0.0,0.0,-4.8306,-4.8306,-4.8306,-4.8306,-4.8306,-4.8306,-4.8306,-4.8306,-4.8306,-4.8306,0.0,0.0,0.0,0.0,0.0,-4.8568,-4.8568,-4.8532,-4.8439,-4.8439,-4.8364,-4.8306,-4.842,-4.8383,-4.8344,0.0,0.0,0.0,0.0,0.0,0.0,0.0,0.0,0.0,0.0,-2.6251,-2.5817,-2.4711,-2.459,-2.4531,0.0,0.0,0.0,0.0,0.0,0.0,0.0,0.0,-2.8719,-2.8719,-2.8355,-2.8071,-2.7904,-2.7722,-2.753,-2.7348,-2.7348,-2.7224,-2.7019,-2.7019,-2.6906,-2.6691,-2.6691,-2.6691,-2.6691,-2.6691,0.0,0.0,0.0,0.0,0.0,-2.6691,-2.6691,0.0,-2.6955,-2.7147,-2.7332,0.0,0.0,0.0,0.0,-2.7619,-2.7663,-2.7848,-2.8152,-2.8407,-2.8407,-2.8407,-2.8407,-2.8407,-2.8565,-2.8773,-2.8952,-2.9005,-2.9115,-2.9482,-3.0558,-3.1525,-3.188,-3.3311,0.0,0.0,0.0,0.0,0.0,0.0,0.0,0.0,0.0,0.0,0.0,0.0,0.0,0.0,0.0,0.0,0.0,-4.8306,-4.8306,-4.8306,-4.8306,-4.8306,-4.8306,-4.8306,-4.8306,-4.8306,0.0,0.0,0.0,0.0,0.0,-4.8306,-4.8306,-4.8306,-4.8306,-4.8306,-4.8306,-4.8306,-4.8306,-4.8306,-4.8306,0.0,0.0,0.0,0.0,0.0,0.0,0.0,0.0,0.0,0.0,0.0,0.0,0.0,0.0,0.0,0.0,0.0,0.0,0.0,0.0,0.0,0.0,-2.7899,-2.8216,-2.8311,-2.7992,-2.7634,-2.7303,-2.7241,-2.7035,-2.6691,-2.6691,-2.6691,-2.6691,-2.6691,-2.6691,-2.6691,-2.6691,-2.6691,-2.6691,-2.6691,0.0,0.0,0.0,0.0,0.0,0.0,0.0,0.0,-2.6691,-2.6923,-2.721,-2.721,0.0,0.0,0.0,0.0,0.0,-2.727,-2.7762,-2.8232,-2.8232,-2.8272,-2.8311,-2.8311,-2.835,-2.8502,-2.8839,-2.8961,-2.9278,-3.0143,-3.1052,0.0,0.0,0.0,0.0,0.0,0.0,0.0,0.0,0.0,0.0,0.0,0.0,0.0,0.0,0.0,0.0,0.0,0.0,0.0,0.0,-4.7939,-4.7939,-4.7939,-4.8177,-4.8306,-4.8306,-4.8306,-4.8306,-4.8306,-4.8306,0.0,0.0,0.0,0.0,-4.8306,-4.8306,-4.8306,-4.8306,-4.8306,-4.8306,-4.8306,-4.8306,-4.8306,-4.8306,0.0,0.0,0.0,0.0,0.0,0.0,0.0,0.0,0.0,0.0,0.0,0.0,0.0,0.0,0.0,0.0,0.0,0.0,0.0,0.0,0.0,-2.5821,-2.6614,-2.7352,-2.7964,-2.7589,-2.7348,-2.7303,-2.6971,-2.6758,-2.6691,-2.6691,-2.6691,-2.6691,-2.6691,-2.6691,-2.6691,-2.6691,-2.6691,-2.6691,-2.6691,0.0,0.0,0.0,0.0,0.0,0.0,0.0,0.0,-2.6691,-2.6741,-2.6791,-2.6791,0.0,0.0,0.0,0.0,0.0,-2.721,-2.7378,-2.747,-2.747,-2.7722,-2.7982,-2.7982,-2.8197,-2.842,-2.8471,-2.8757,-2.9362,-3.0572,-3.1948,-3.3299,0.0,0.0,0.0,0.0,0.0,0.0,0.0,0.0,0.0,0.0,0.0,0.0,0.0,0.0,0.0,0.0,0.0,0.0,0.0,0.0,-4.6269,-4.6269,-4.7627,-4.8306,-4.8306,-4.8306,-4.8306,-4.8306,-4.8306,-4.8306,0.0,0.0,-4.8306,-4.8306,-4.8306,-4.8306,-4.8306,-4.8306,-4.8306,-4.8306,-4.8306,-4.8306,-4.8306,0.0,0.0,0.0,0.0,0.0,0.0,0.0,0.0,0.0,0.0,0.0,0.0,0.0,0.0,0.0,0.0,0.0,0.0,0.0,0.0,-2.3777,-2.4904,-2.5348,-2.6196,-2.7557,-2.7178,-2.6988,-2.6988,-2.6791,-2.6691,-2.6691,-2.6691,-2.6691,-2.6691,-2.6691,-2.6691,-2.6691,-2.6691,-2.6691,-2.6691,0.0,0.0,0.0,0.0,0.0,0.0,0.0,0.0,0.0,0.0,-2.6691,-2.6691,-2.6691,0.0,0.0,0.0,0.0,0.0,-2.6923,-2.6988,-2.7057,-2.7467,-2.7566,-2.7634,-2.7855,-2.7851,-2.7986,-2.861,-2.8884,-2.963,0.0,0.0,-3.4021,-3.6593,0.0,0.0,0.0,0.0,0.0,0.0,0.0,0.0,0.0,0.0,0.0,0.0,0.0,0.0,0.0,0.0,0.0,0.0,0.0,-4.5902,-4.5902,-4.6636,-4.7003,-4.7003,-4.7003,-4.7241,-4.7645,-4.7645,-4.7902,0.0,0.0,-4.8306,-4.8306,-4.8306,-4.8306,-4.8306,-4.8306,-4.8306,-4.8306,-4.8306,-4.8306,-4.8306,0.0,0.0,0.0,0.0,0.0,0.0,0.0,0.0,0.0,0.0,0.0,0.0,0.0,0.0,0.0,0.0,0.0,0.0,0.0,-2.2296,-2.297,-2.444,-2.4491,-2.5324,-2.7112,-2.6857,-2.6691,-2.6691,-2.6691,-2.6691,-2.6691,-2.6691,-2.6691,-2.6691,-2.6691,-2.6691,-2.6691,-2.6691,-2.6691,-2.6691,0.0,0.0,0.0,0.0,0.0,0.0,0.0,0.0,0.0,0.0,0.0,0.0,0.0,0.0,0.0,-2.6691,-2.6691,-2.6691,-2.6691,-2.6691,-2.686,-2.7522,-2.7617,-2.7728,-2.8383,-2.8303,-2.8371,-2.9441,-2.9818,0.0,0.0,-3.424,0.0,0.0,0.0,0.0,0.0,0.0,0.0,0.0,0.0,0.0,0.0,0.0,0.0,0.0,0.0,0.0,0.0,0.0,0.0,0.0,0.0,0.0,-4.5333,-4.5333,-4.5535,-4.5902,-4.5902,-4.6214,-4.6819,-4.6819,-4.7259,-4.8012,-4.8012,-4.8141,-4.8306,-4.8306,-4.8306,-4.8306,-4.8306,-4.8306,-4.8306,-4.8306,-4.8306,-4.8306,0.0,0.0,0.0,0.0,0.0,0.0,0.0,0.0,0.0,0.0,0.0,0.0,0.0,0.0,0.0,0.0,0.0,0.0,0.0,-2.2296,-2.297,-2.444,-2.4491,-2.52,-2.6708,-2.6708,-2.6691,-2.6691,-2.6691,-2.6691,-2.6691,-2.6691,-2.6691,-2.6691,-2.6691,-2.6691,-2.6691,-2.6691,-2.6691,-2.6691,-2.6691,0.0,0.0,0.0,0.0,0.0,0.0,0.0,0.0,0.0,0.0,0.0,0.0,0.0,-2.6691,-2.6691,-2.6691,-2.6691,-2.6691,-2.6691,-2.6791,-2.7231,-2.7827,-2.8691,-3.0093,-3.0387,-3.0594,-3.1425,-3.2243,0.0,0.0,-3.7323,0.0,0.0,0.0,0.0,0.0,0.0,0.0,0.0,0.0,0.0,0.0,0.0,0.0,0.0,0.0,0.0,0.0,0.0,0.0,0.0,0.0,0.0,-4.368,-4.368,-4.4415,-4.5902,-4.5902,-4.592,-4.5993,-4.5993,-4.6434,-4.7186,-4.7186,-4.7608,-4.8306,-4.8306,-4.8306,-4.8306,-4.8306,-4.8306,-4.8306,-4.8306,-4.8306,-4.8306,0.0,0.0,0.0,0.0,0.0,0.0,0.0,0.0,0.0,0.0,0.0,-2.2296,-2.2296,0.0,0.0,0.0,0.0,0.0,0.0,-2.2296,-2.297,-2.444,-2.4491,-2.5185,-2.6657,-2.6691,-2.6691,-2.6691,-2.6691,-2.6691,-2.6691,-2.6691,-2.6691,-2.6691,-2.6691,-2.6691,-2.6691,-2.6691,-2.6691,-2.6691,-2.6691,-2.6691,0.0,0.0,0.0,0.0,0.0,0.0,0.0,0.0,-2.6691,-2.6691,-2.6691,-2.6691,-2.6691,-2.6691,-2.6691,-2.6691,-2.6691,-2.7029,-2.7538,-2.8186,-2.8902,-2.9536,-2.9851,-3.0106,-3.0641,-3.1852,-3.2371,0.0,0.0,0.0,0.0,0.0,0.0,0.0,0.0,0.0,0.0,0.0,0.0,0.0,0.0,0.0,0.0,0.0,0.0,0.0,0.0,0.0,0.0,0.0,0.0,0.0,0.0,-4.3515,-4.3808,-4.4397,-4.4397,-4.4672,-4.5149,-4.5149,-4.559,-4.6361,-4.6361,-4.6819,-4.7553,-4.7553,-4.7846,-4.8306,-4.8306,-4.8306,-4.8306,-4.8306,-4.8306,-4.8306,0.0,0.0,0.0,0.0,0.0,0.0,0.0,0.0,-2.3966,0.0,0.0,0.0,0.0,-2.2296,0.0,0.0,0.0,0.0,-2.2296,-2.2516,-2.319,-2.444,-2.4728,-2.5439,-2.6657,-2.6691,-2.6691,-2.6691,-2.6691,-2.6691,-2.6691,-2.6691,-2.6691,-2.6691,-2.6691,-2.6691,-2.6691,-2.6691,-2.6691,-2.6691,-2.6691,-2.6691,0.0,0.0,0.0,0.0,0.0,0.0,0.0,0.0,-2.6691,-2.6691,-2.6691,-2.6691,-2.6691,-2.6691,-2.6691,-2.6691,-2.6691,-2.7249,-2.7993,-2.8807,-2.9719,-3.0506,-3.0685,-3.0757,-3.1207,-3.2699,-3.3505,-3.4705,-3.7129,0.0,0.0,0.0,0.0,0.0,0.0,0.0,0.0,0.0,0.0,0.0,0.0,0.0,0.0,0.0,0.0,0.0,0.0,0.0,0.0,0.0,0.0,0.0,0.0,-4.3515,-4.3515,-4.3515,-4.3515,-4.3791,-4.4323,-4.4323,-4.4764,-4.5516,-4.5516,-4.5993,-4.6709,-4.6709,-4.7186,-4.7957,-4.8214,-4.8306,-4.8306,-4.8306,-4.8306,-4.8306,0.0,0.0,0.0,0.0,0.0,0.0,0.0,0.0,-2.3966,-2.2482,-2.2296,0.0,0.0,0.0,0.0,0.0,0.0,0.0,-2.2296,-2.2987,-2.3729,-2.4457,-2.5203,-2.5947,-2.6674,-2.6691,-2.6691,-2.6691,-2.6691,-2.6691,-2.6691,-2.6691,-2.6691,-2.6691,-2.6691,-2.6691,-2.6691,-2.6691,-2.6691,-2.6691,-2.6691,-2.6691,-2.6691,0.0,0.0,0.0,0.0,0.0,0.0,0.0,-2.6691,-2.6691,-2.6691,-2.6691,-2.6691,-2.6691,-2.6691,-2.6708,-2.6708,-2.7249,-2.801,-2.8824,-3.0127,-3.1579,-3.3068,-3.2831,-3.2733,-3.4206,-3.6101,-3.7665,-3.8121,0.0,0.0,0.0,0.0,0.0,0.0,0.0,0.0,0.0,0.0,0.0,0.0,0.0,0.0,0.0,0.0,0.0,0.0,0.0,0.0,0.0,0.0,0.0,0.0,-4.3515,-4.3515,-4.3515,-4.3515,-4.3515,-4.3515,-4.3515,-4.392,-4.4691,-4.4691,-4.5149,-4.5883,-4.5902,-4.6379,-4.7186,-4.7994,-4.8306,-4.8306,-4.8306,-4.8306,-4.8306,0.0,0.0,0.0,0.0,0.0,0.0,0.0,0.0,-2.3966,-2.2482,-2.2296,0.0,0.0,0.0,0.0,0.0,0.0,0.0,-2.2296,-2.2987,-2.3729,-2.4457,-2.5203,-2.5947,-2.6674,-2.6691,-2.6691,-2.6691,-2.6691,-2.6691,-2.6691,-2.6691,-2.6691,-2.6691,-2.6691,-2.6691,-2.6691,-2.6691,-2.6691,-2.6691,-2.6691,-2.6691,-2.6691,0.0,0.0,0.0,0.0,0.0,0.0,0.0,0.0,0.0,-2.6691,-2.6691,-2.6691,-2.6691,-2.7063,-2.7469,-2.7469,-2.8415,-2.96,-3.0345,-3.1278,-3.2205,-3.3186,-3.3237,-3.3355,0.0,-3.6656,-3.8539,-3.8538,0.0,0.0,0.0,0.0,0.0,0.0,0.0,0.0,0.0,0.0,0.0,0.0,0.0,0.0,0.0,0.0,0.0,0.0,0.0,0.0,0.0,0.0,0.0,0.0,0.0,-4.3515,-4.3515,-4.3515,-4.3515,-4.3515,-4.3515,-4.3643,-4.3864,-4.3864,-4.4305,-4.5112,-4.5663,-4.6379,-4.7113,-4.7351,-4.7791,-4.8306,-4.8306,-4.8306,-4.8306,0.0,0.0,0.0,0.0,0.0,0.0,-2.5134,-2.4694,-2.4085,-2.2885,-2.2482,-2.2296,0.0,0.0,0.0,-2.2296,-2.2567,0.0,-2.275,-2.3697,-2.4458,-2.4915,-2.5642,-2.6251,-2.6691,-2.6691,-2.6691,-2.6691,-2.6691,-2.6691,-2.6691,-2.6691,-2.6691,-2.6691,-2.6691,-2.6691,-2.6691,-2.6691,-2.6691,-2.6691,-2.6691,-2.6691,-2.6691,0.0,0.0,0.0,0.0,0.0,0.0,0.0,0.0,0.0,-2.6691,-2.6691,-2.6691,-2.6691,-2.7232,-2.7807,-2.7807,-2.8922,-3.0362,-3.1376,-3.2192,-3.3,-3.4049,-3.4264,0.0,0.0,-3.7533,-3.9042,-3.9208,0.0,0.0,0.0,0.0,0.0,0.0,0.0,0.0,0.0,0.0,0.0,0.0,0.0,0.0,0.0,0.0,0.0,0.0,0.0,0.0,0.0,0.0,0.0,0.0,0.0,0.0,-4.3515,-4.3515,-4.3515,-4.3515,-4.3515,-4.3515,-4.3515,-4.3515,-4.3773,-4.4287,-4.5094,-4.5718,-4.6177,-4.6489,-4.7094,-4.781,-4.781,-4.8031,-4.8306,0.0,0.0,-2.6691,-2.6691,0.0,0.0,-2.571,-2.5033,-2.4338,-2.3596,-2.2919,-2.2499,0.0,0.0,0.0,-2.2499,-2.3105,-2.3509,-2.3509,-2.4831,-2.5592,-2.5592,-2.6302,-2.6691,-2.6691,-2.6691,-2.6691,-2.6691,-2.6691,-2.6691,-2.6691,-2.6691,-2.6691,-2.6691,-2.6691,-2.6691,-2.6691,-2.6691,-2.6691,-2.6691,-2.6691,-2.6691,-2.6691,-2.6691,0.0,0.0,0.0,0.0,0.0,0.0,0.0,0.0,-2.6691,-2.6691,-2.6691,-2.6691,-2.7232,-2.7824,-2.7891,-2.8973,-3.048,-3.2022,-3.3,-3.3977,-3.5464,-3.5802,-3.6174,-3.7533,0.0,-3.9276,0.0,0.0,0.0,0.0,0.0,0.0,0.0,0.0,0.0,0.0,0.0,0.0,0.0,0.0,0.0,0.0,0.0,0.0,0.0,0.0,0.0,0.0,0.0,0.0,0.0,0.0,0.0,0.0,-4.3427,-4.3444,-4.3515,-4.3515,-4.3515,-4.3515,-4.3515,-4.3515,-4.357,-4.4287,-4.4635,-4.4782,-4.5516,-4.6287,-4.6984,-4.6984,-4.7443,-4.8104,0.0,0.0,-2.6691,-2.6691,0.0,0.0,-2.571,-2.5473,-2.5101,-2.4355,-2.4135,-2.4034,-2.4034,-2.4034,0.0,-2.4034,-2.4169,-2.4254,-2.4254,-2.5101,-2.5592,-2.5592,-2.6302,-2.6691,-2.6691,-2.6691,-2.6691,-2.6691,-2.6691,-2.6691,-2.6691,-2.6691,-2.6691,-2.6691,-2.6691,-2.6691,-2.6691,-2.6691,-2.6691,-2.6691,-2.6691,-2.6691,-2.6691,-2.6691,-2.6691,0.0,0.0,0.0,0.0,0.0,0.0,0.0,-2.6691,-2.6691,-2.6691,-2.6691,-2.7232,-2.7942,-2.8569,-2.9414,-3.0598,-3.2662,-3.4167,-3.5515,-3.7077,-3.7415,-3.7347,-3.7077,-3.8539,0.0,0.0,0.0,0.0,0.0,0.0,0.0,0.0,0.0,0.0,0.0,0.0,0.0,0.0,0.0,0.0,0.0,0.0,0.0,0.0,0.0,0.0,0.0,0.0,0.0,-4.2165,-4.2165,-4.2404,0.0,-4.2883,-4.3087,-4.3515,-4.3515,-4.3515,-4.3515,-4.3515,-4.3515,-4.3497,-4.3681,-4.4121,-4.4709,-4.4892,-4.5461,-4.6159,-4.6159,-4.6269,-4.6507,0.0,0.0,0.0,0.0,0.0,0.0,0.0,0.0,-2.505,-2.5033,-2.4728,-2.4491,-2.4491,-2.4491,0.0,0.0,-2.4829,-2.5033,-2.5033,-2.571,-2.6133,-2.6133,-2.6488,-2.6691,-2.6691,-2.6691,-2.6691,-2.6691,-2.6691,-2.6691,-2.6691,-2.6691,-2.6691,-2.6691,-2.6691,-2.6691,-2.6691,-2.6691,-2.6691,-2.6691,-2.6691,-2.6691,-2.6691,-2.6691,-2.6691,-2.6691,-2.6691,0.0,0.0,0.0,0.0,0.0,0.0,0.0,-2.6691,-2.6691,-2.7232,-2.7976,-2.879,-2.9533,-3.063,-3.2848,-3.4501,-3.5904,-3.7094,-3.7652,-3.7889,-3.7879,0.0,0.0,0.0,0.0,0.0,0.0,0.0,0.0,0.0,0.0,0.0,0.0,0.0,0.0,0.0,0.0,0.0,0.0,0.0,0.0,0.0,0.0,0.0,0.0,0.0,0.0,-4.181,-4.181,-4.1958,-4.2282,-4.2282,-4.2422,-4.2697,-4.3249,-4.3515,-4.3515,-4.3515,-4.3357,-4.3142,-4.3392,-4.3433,-4.3386,-4.3907,-4.4455,-4.4964,-4.5224,-4.5571,-4.5957,0.0,0.0,0.0,0.0,0.0,0.0,0.0,0.0,0.0,-2.571,-2.5253,-2.488,-2.488,-2.488,-2.488,0.0,0.0,0.0,-2.5795,-2.6353,-2.6691,-2.6691,-2.6691,-2.6691,-2.6691,-2.6691,-2.6691,-2.6691,-2.6691,-2.6691,-2.6691,-2.6691,-2.6691,-2.6691,-2.6691,-2.6691,-2.6691,-2.6691,-2.6691,-2.6691,-2.6691,-2.6691,-2.6691,-2.6691,-2.6691,-2.6691,-2.6691,-2.6691,-2.6691,-2.6691,0.0,0.0,0.0,0.0,-2.6691,-2.6691,-2.7131,-2.7773,-2.8569,-2.9617,-3.0954,-3.2916,-3.4501,-3.5802,-3.6626,-3.7263,-3.7922,-3.865,0.0,0.0,0.0,0.0,0.0,0.0,0.0,0.0,0.0,0.0,0.0,0.0,0.0,0.0,0.0,0.0,0.0,0.0,0.0,0.0,0.0,0.0,-4.099,0.0,0.0,-4.1508,-4.1508,-4.1508,-4.1534,-4.1643,-4.175,-4.181,-4.1814,-4.2772,-4.3214,-4.3214,-4.3321,-4.305,-4.2596,-4.3142,-4.2734,-4.1877,-4.2829,-4.3339,-4.359,-4.4033,-4.4693,-4.537,0.0,0.0,0.0,0.0,0.0,0.0,0.0,0.0,0.0,0.0,-2.6471,-2.6404,-2.6404,-2.6404,-2.6404,-2.6404,-2.6505,-2.6539,-2.6539,0.0,0.0,-2.6691,-2.6691,-2.6691,-2.6691,-2.6691,-2.6691,-2.6691,-2.6691,-2.6691,-2.6691,-2.6691,-2.6691,-2.6691,-2.6691,-2.6691,-2.6691,-2.6691,-2.6691,-2.6691,-2.6691,-2.6691,-2.6691,-2.6691,-2.6691,-2.6691,-2.6691,-2.6691,-2.6691,-2.6691,-2.6691,0.0,0.0,0.0,-2.6691,-2.6691,-2.6759,-2.7012,-2.7756,-2.9939,-3.2242,-3.3169,-3.4501,-3.5802,0.0,0.0,-3.7168,0.0,0.0,0.0,0.0,0.0,0.0,0.0,0.0,0.0,0.0,0.0,0.0,0.0,0.0,0.0,0.0,0.0,0.0,0.0,0.0,0.0,0.0,-4.0204,-4.0254,-4.0311,-4.0328,0.0,-4.0328,-4.0328,-4.057,-4.1018,-4.1556,-4.181,-4.181,-4.1958,-4.2041,-4.2062,-4.2578,-4.248,-4.1958,-4.2559,-4.2402,-4.1832,-4.1979,-4.2053,-4.2097,-4.2163,-4.2597,-4.3242,0.0,0.0,0.0,0.0,0.0,0.0,0.0,0.0,0.0,0.0,0.0,-2.6691,-2.6691,-2.6691,-2.6691,-2.6691,-2.6691,-2.6691,-2.6691,-2.6691,-2.6691,-2.6691,-2.6691,-2.6691,-2.6691,-2.6691,-2.6691,-2.6691,-2.6691,-2.6691,-2.6691,-2.6691,-2.6691,-2.6691,-2.6691,-2.6691,-2.6691,-2.6691,-2.6691,-2.6691,-2.6691,-2.6691,-2.6691,-2.6691,-2.6691,-2.6691,-2.6691,-2.6691,-2.6691,-2.6691,-2.6691,-2.6691,-2.6691,0.0,0.0,0.0,-2.6691,-2.686,-2.7604,-2.9702,-3.187,-3.2594,-3.388,-3.5182,-3.5943,0.0,-3.6897,0.0,0.0,0.0,0.0,0.0,0.0,0.0,0.0,0.0,0.0,0.0,0.0,0.0,0.0,0.0,0.0,0.0,0.0,0.0,0.0,0.0,-4.0096,-4.0096,-4.0096,-4.0096,-4.0096,0.0,-4.0096,-4.0096,-4.0229,-4.0449,-4.072,-4.0861,-4.0861,-4.0861,-4.1213,-4.1793,-4.208,-4.1853,-4.1358,-4.1937,-4.166,-4.0914,-4.1552,-4.1599,-4.1335,-4.1664,-4.1958,-4.2236,0.0,0.0,0.0,0.0,0.0,0.0,0.0,0.0,0.0,0.0,0.0,-2.6691,-2.6691,0.0,0.0,0.0,-2.6691,-2.6691,-2.6691,-2.6691,-2.6691,-2.6691,-2.6691,-2.6691,-2.6691,-2.6691,-2.6691,-2.6691,-2.6691,-2.6691,-2.6691,-2.6691,-2.6691,-2.6691,-2.6691,-2.6691,-2.6691,-2.6691,-2.6691,-2.6691,-2.6691,-2.6691,-2.6691,-2.6691,-2.6691,-2.6691,-2.6691,-2.6691,-2.6691,-2.6691,-2.6691,-2.6691,-2.6691,-2.6691,0.0,0.0,0.0,-2.686,-2.7604,-2.9194,-3.0871,-3.1802,-3.3139,-3.4404,0.0,0.0,0.0,0.0,0.0,0.0,0.0,0.0,0.0,0.0,0.0,0.0,0.0,0.0,0.0,0.0,0.0,0.0,0.0,0.0,0.0,0.0,0.0,0.0,-4.0096,-4.0096,-4.0096,-4.0096,-4.0096,-4.0096,-4.0096,-4.0096,-4.0096,-4.0096,-4.0096,-4.0096,-4.0096,-4.0096,-4.0546,-4.1375,-4.1512,-4.1246,-4.0733,-4.1335,-4.0984,-4.0179,-4.103,-4.1105,-4.075,-4.1196,-4.1446,-4.1578,0.0,0.0,0.0,0.0,0.0,0.0,0.0,0.0,0.0,0.0,0.0,-2.6691,-2.6691,-2.6691,-2.6691,-2.6691,-2.6691,-2.6691,-2.6691,-2.6691,-2.6691,-2.6691,-2.6691,0.0,-2.6691,-2.6691,-2.6691,-2.6691,-2.6691,-2.6691,-2.6691,-2.6691,-2.6691,-2.6691,-2.6691,-2.6691,-2.6691,-2.6691,-2.6691,-2.6691,-2.6691,-2.6691,-2.6691,-2.6691,-2.6691,-2.6691,-2.6691,-2.6691,-2.6691,-2.6691,-2.6691,-2.6691,-2.6691,-2.6691,-2.6691,0.0,0.0,0.0,-2.7604,-2.845,-2.9467,-3.0886,-3.2374,-3.366,0.0,0.0,0.0,0.0,0.0,0.0,0.0,0.0,0.0,0.0,0.0,0.0,0.0,0.0,0.0,0.0,0.0,0.0,0.0,0.0,0.0,0.0,0.0,0.0,-4.0096,-4.0096,-4.0096,-4.0096,-4.0096,-4.0096,-4.0096,-4.0096,-4.0096,-4.0096,-4.0096,-4.0096,-4.0096,-4.0096,-4.0121,-4.0204,-4.0726,-4.0631,-4.0179,-4.0709,-4.0625,-4.0113,-4.0171,-4.0171,-4.0146,-4.0171,-4.0521,-4.0949,0.0,0.0,0.0,0.0,0.0,0.0,0.0,0.0,0.0,0.0,0.0,0.0,0.0,-2.6691,-2.6691,-2.6691,-2.6691,-2.6691,-2.6691,-2.6691,-2.6691,-2.6691,-2.6691,-2.6691,-2.6691,-2.6691,-2.6691,-2.6691,-2.6691,-2.6691,-2.6691,-2.6691,-2.6691,-2.6691,-2.6691,-2.6691,-2.6691,-2.6691,-2.6962,-2.7401,-2.7401,-2.7723,-2.818,-2.818,-2.818,-2.8248,-2.8704,0.0,0.0,0.0,0.0,-2.7401,-2.7401,-2.708,-2.6691,-2.6691,-2.6691,-2.6759,-2.7029,-2.7655,-2.8484,-2.9534,-3.0531,-3.1596,-3.2797,0.0,0.0,0.0,0.0,0.0,0.0,0.0,0.0,0.0,0.0,0.0,0.0,0.0,0.0,0.0,0.0,0.0,0.0,0.0,0.0,0.0,0.0,0.0,-3.8684,-3.9123,-3.9402,-3.9402,-3.9859,-4.0096,-4.0096,-4.0096,-4.0096,-4.0096,-4.0096,-4.0096,-4.0096,-4.0096,-4.0096,-4.0096,-4.0311,-4.0286,-4.0121,-4.0311,-4.0262,-4.0096,-4.0096,-4.0096,-4.0096,-4.0096,-4.0229,-4.0392,0.0,0.0,0.0,-2.6691,0.0,-2.6691,-2.6691,-2.6691,-2.6691,-2.6691,0.0,0.0,0.0,0.0,-2.6691,-2.6691,-2.6691,-2.6691,-2.6691,-2.6691,-2.6691,-2.6691,-2.6691,-2.6691,-2.6691,-2.6691,-2.6691,-2.6691,-2.6691,-2.6691,-2.6691,-2.6691,-2.6691,-2.6708,-2.6962,-2.7063,-2.7063,-2.7063,-2.752,-2.8213,-2.8213,-2.8518,-2.9027,-2.9281,-2.9382,-2.9484,0.0,0.0,0.0,0.0,0.0,0.0,-2.8213,-2.752,-2.6691,-2.6691,-2.6691,-2.6691,-2.6691,-2.7063,0.0,0.0,-2.9161,-3.0057,-3.1275,0.0,0.0,0.0,0.0,0.0,0.0,0.0,0.0,0.0,0.0,0.0,0.0,0.0,0.0,0.0,0.0,0.0,0.0,0.0,0.0,0.0,0.0,0.0,-3.7905,-3.8362,-3.8633,-3.8633,-3.9368,-3.974,-3.974,-3.9977,-4.0096,-4.0096,-4.0096,-4.0096,-4.0096,-4.0096,-4.0096,-4.0096,-4.0096,-4.0096,-4.0096,-4.0096,-4.0096,-4.0096,-4.0096,-4.0096,-4.0096,-4.0096,-4.0096,-4.0096,-2.6691,-2.6691,-2.6691,-2.6691,-2.6691,-2.6691,-2.6691,-2.6691,-2.6691,-2.6691,0.0,0.0,0.0,0.0,0.0,-2.6691,-2.6691,-2.6691,-2.6691,-2.6691,-2.6691,-2.6691,-2.6691,-2.6691,-2.6691,-2.6691,-2.6691,-2.6691,-2.6691,-2.6691,-2.6691,-2.6691,-2.6691,-2.6725,-2.7469,-2.7824,-2.7841,-2.7841,-2.8298,-2.9027,-2.9061,-2.9077,-2.9179,-2.9922,0.0,0.0,-3.1021,-3.1275,0.0,-3.1275,0.0,0.0,-2.8993,-2.7943,-2.6725,-2.6725,-2.6691,-2.6691,0.0,0.0,0.0,0.0,0.0,0.0,-2.9888,0.0,0.0,0.0,0.0,0.0,0.0,0.0,0.0,0.0,0.0,0.0,0.0,0.0,0.0,0.0,0.0,0.0,0.0,0.0,0.0,0.0,0.0,-3.7838,-3.7838,-3.7855,-3.7889,-3.7905,-3.8582,-3.8954,-3.8954,-3.9706,-4.0079,-4.0079,-4.0096,-4.0096,-4.0096,-4.0096,-4.0096,-4.0096,-4.0096,-4.0096,-4.0096,-4.0096,-4.0096,-4.0096,-4.0096,-4.0096,-4.0096,-4.0096,-4.0096,-4.0096,-2.6691,-2.6691,-2.6691,-2.6691,-2.6691,-2.6691,-2.6691,-2.6691,-2.6691,0.0,0.0,0.0,-2.6691,-2.6691,-2.6691,-2.6691,-2.6691,-2.6691,-2.6691,-2.6691,-2.6691,-2.6691,-2.6691,-2.6691,-2.6691,-2.6691,-2.6691,-2.6691,-2.6691,-2.6691,-2.6691,-2.6691,-2.6691,-2.6725,-2.7469,-2.8111,-2.8671,-2.8671,-2.9093,-2.9837,-3.0378,-3.0922,-3.1481,0.0,0.0,0.0,0.0,-3.3237,-3.2865,0.0,-3.2239,-3.0294,0.0,-2.7841,-2.7384,-2.686,-2.6691,-2.6691,-2.6691,0.0,0.0,0.0,0.0,0.0,-2.901,-2.9788,0.0,0.0,0.0,0.0,0.0,0.0,0.0,0.0,0.0,0.0,0.0,0.0,0.0,0.0,0.0,0.0,0.0,0.0,0.0,0.0,-3.6225,-3.6225,-3.6225,-3.6789,-3.7347,-3.7889,-3.8108,-3.821,-3.821,-3.8937,-3.9292,-3.9292,-3.9859,-4.0096,-4.0096,-4.0096,-4.0096,-4.0096,-4.0096,-4.0096,-4.0096,-4.0096,-4.0096,-4.0096,-4.0096,-4.0096,-4.0096,-4.0096,-4.0096,-4.0096,-2.6691,-2.6691,-2.6691,-2.6691,-2.6691,-2.6691,-2.6691,-2.6691,-2.6691,0.0,0.0,0.0,-2.6691,-2.6691,-2.6691,-2.6691,-2.6691,-2.6691,-2.6691,-2.6691,-2.6691,-2.6691,-2.6691,-2.6691,-2.6691,-2.6691,-2.6691,-2.6691,-2.6691,-2.6691,-2.6691,-2.6691,-2.686,-2.7199,-2.796,-2.8738,-2.9465,-2.9788,-3.0328,-3.1021,-3.114,0.0,0.0,-3.3119,-3.3406,0.0,0.0,0.0,-3.4366,-3.481,-3.3694,0.0,0.0,0.0,-2.8551,-2.7469,-2.7165,-2.7097,0.0,0.0,0.0,0.0,0.0,0.0,-2.7842,-2.8536,-2.945,0.0,0.0,0.0,0.0,0.0,0.0,0.0,0.0,0.0,0.0,0.0,0.0,0.0,0.0,0.0,0.0,0.0,0.0,0.0,-3.56,-3.56,-3.56,-3.6045,-3.6502,-3.6918,-3.7263,-3.7432,-3.7432,-3.8159,-3.87,-3.9005,-3.9453,-3.9808,-4.0096,-4.0096,-4.0096,-4.0096,-4.0096,-4.0096,-4.0096,-4.0096,-4.0096,-4.0096,-4.0096,-4.0096,-4.0096,-4.0096,-4.0096,-4.0096,0.0,-2.6691,-2.6691,-2.6691,-2.6691,-2.6691,-2.6691,-2.6691,-2.6691,0.0,-2.6691,-2.6691,-2.6691,-2.6691,-2.6691,-2.6691,-2.6691,-2.6691,-2.6691,-2.6691,-2.6691,-2.6691,-2.6691,-2.6691,-2.6691,-2.6691,-2.6691,-2.6691,-2.6691,-2.6691,-2.6691,-2.6776,-2.7182,-2.7841,-2.8721,-2.9482,-3.014,-3.0886,-3.1684,-3.2361,-3.1698,-3.1935,0.0,0.0,-3.3829,-3.4083,-3.538,-3.5853,-3.5819,-3.5549,-3.4602,0.0,0.0,0.0,0.0,0.0,-2.7904,0.0,0.0,0.0,0.0,0.0,0.0,0.0,-2.6742,-2.7772,-2.8993,0.0,0.0,0.0,0.0,0.0,0.0,0.0,0.0,0.0,0.0,0.0,0.0,0.0,0.0,0.0,0.0,0.0,-3.56,-3.56,-3.56,-3.56,-3.56,-3.56,-3.56,-3.56,-3.6282,-3.6677,-3.6677,-3.7398,-3.8108,-3.8751,-3.8903,-3.9326,-3.9977,-4.0062,-4.0096,-4.0096,-4.0096,-4.0096,-4.0096,-4.0096,-4.0096,-4.0096,-4.0096,-4.0096,-4.0096,-4.0096,-4.0096,-4.0096,-2.6691,-2.6691,-2.6691,-2.6691,-2.6691,-2.6691,-2.6691,-2.6691,-2.6691,-2.6691,-2.6691,-2.6691,-2.6691,-2.6691,-2.6691,-2.6691,-2.6691,-2.6691,-2.6691,-2.6691,-2.6691,-2.6691,-2.6691,-2.6691,-2.6691,-2.6691,-2.6691,-2.6691,-2.6691,-2.6691,-2.6708,-2.73,-2.7655,-2.7858,-2.9261,-2.9973,-3.014,-3.0886,0.0,-3.3169,-3.3034,0.0,-3.5025,-3.5825,-3.6502,-3.706,-3.7364,-3.7442,-3.7178,-3.5334,-3.4523,-3.3863,0.0,0.0,0.0,-2.9181,0.0,0.0,0.0,0.0,0.0,0.0,0.0,0.0,-2.6957,-2.7089,-2.7554,0.0,0.0,0.0,0.0,0.0,0.0,0.0,0.0,0.0,0.0,0.0,0.0,0.0,0.0,0.0,0.0,0.0,-3.56,-3.56,-3.56,-3.56,-3.56,-3.56,-3.56,-3.56,-3.5752,-3.5819,-3.5819,-3.662,-3.71,-3.7252,-3.8413,-3.9073,-3.9225,-3.9842,-4.0096,-4.0096,-4.0096,-4.0096,-4.0096,-4.0096,-4.0096,-4.0096,-4.0096,-4.0096,-4.0096,-4.0096,-4.0096,-4.0096,-2.6691,-2.6691,-2.6691,-2.6691,-2.6691,-2.6691,-2.6691,-2.6691,-2.6691,-2.6691,-2.6691,-2.6843,-2.7215,-2.7249,-2.7418,-2.7808,-2.7859,-2.7859,-2.7859,-2.7859,-2.7655,-2.7283,-2.7249,-2.708,-2.6708,-2.7063,-2.7249,-2.7249,-2.7638,-2.7859,-2.7859,-2.823,-2.8602,-2.8973,-2.9751,-3.0311,-3.0717,-3.1833,-3.2933,-3.3914,-3.3558,0.0,-3.5684,-3.6485,-3.7032,-3.7398,-3.777,-3.7905,-3.7669,-3.6169,-3.5385,0.0,0.0,-3.2122,-3.1083,0.0,-2.9239,-2.8414,0.0,0.0,0.0,-2.6605,0.0,0.0,0.0,-2.6457,-2.6667,0.0,0.0,0.0,0.0,0.0,0.0,0.0,0.0,0.0,0.0,0.0,0.0,0.0,0.0,0.0,0.0,0.0,-3.5194,-3.5566,-3.56,-3.56,-3.56,-3.56,-3.56,-3.56,-3.56,-3.56,-3.56,-3.6011,-3.64,-3.6812,-3.7922,-3.8633,-3.9022,-3.9774,-4.0096,-4.0096,-4.0096,-4.0096,-4.0096,-4.0096,-4.0096,-4.0096,-4.0096,-4.0096,-4.0096,-4.0096,-4.0096,-4.0096,-2.6691,-2.6691,-2.6691,-2.6691,-2.6691,-2.6691,-2.6691,-2.6691,-2.6742,-2.6894,-2.7046,-2.7418,-2.8162,-2.8111,-2.8349,-2.9145,-2.9077,-2.8993,-2.8993,-2.8993,-2.8704,-2.806,-2.8027,-2.7757,-2.7165,-2.774,-2.8027,-2.8027,-2.867,-2.8993,-2.8993,-2.9145,-2.9533,-3.0125,-3.026,-3.0801,-3.1698,-3.2899,0.0,-3.4895,0.0,-3.4996,-3.6124,-3.6907,-3.7218,-3.732,-3.8058,-3.8227,-3.7983,-3.7071,-3.6437,-3.583,-3.4656,-3.3407,0.0,0.0,0.0,0.0,0.0,0.0,0.0,0.0,0.0,-2.601,0.0,0.0,0.0,0.0,0.0,0.0,0.0,0.0,0.0,0.0,0.0,0.0,0.0,0.0,0.0,0.0,0.0,0.0,0.0,0.0,-3.459,-3.5329,-3.538,-3.5447,-3.5583,-3.56,-3.56,-3.56,-3.56,-3.56,-3.56,-3.56,-3.5943,-3.6592,-3.733,-3.8075,-3.8802,-3.9554,-3.9977,-4.0096,-4.0096,-4.0096,-4.0096,-4.0096,-4.0096,-4.0096,-4.0096,-4.0096,-4.0096,-4.0096,-4.0096,-4.0096,-2.6691,-2.6691,-2.6691,-2.6691,-2.6691,-2.6691,-2.6691,-2.6691,-2.6928,-2.7587,-2.8298,-2.9027,-2.977,-2.9262,-2.9161,-2.9922,-2.9382,0.0,-2.8993,-2.8993,-2.8959,-2.8874,-2.8857,-2.8824,-2.8739,-2.8824,-2.8857,-2.8857,-2.8959,-2.8993,-2.901,-2.9668,-3.0023,-3.0123,-3.0784,-3.185,-3.3169,0.0,-3.4607,0.0,-3.7161,-3.7499,0.0,-3.8464,-3.8734,-3.8836,-3.9605,-3.9436,-3.8661,0.0,-3.7127,-3.7145,0.0,-3.3125,-3.2369,-3.0912,0.0,0.0,0.0,0.0,0.0,0.0,-2.632,0.0,0.0,0.0,-2.5313,0.0,0.0,0.0,0.0,0.0,0.0,0.0,0.0,0.0,0.0,0.0,0.0,0.0,0.0,0.0,0.0,0.0,0.0,-3.4573,-3.4624,-3.4912,-3.5566,-3.56,-3.56,-3.56,-3.56,-3.56,-3.56,-3.56,-3.565,-3.5735,-3.6535,-3.7297,-3.8058,-3.8785,-3.9486,-4.0096,-4.0096,-4.0096,-4.0096,-4.0096,-4.0096,-4.0096,-4.0096,-4.0096,-4.0096,-4.0096,-4.0096,-4.0096,-2.6691,-2.6691,-2.6691,-2.6691,-2.6691,-2.6843,-2.7283,-2.7723,-2.8163,-2.845,-2.8807,-2.945,-3.0615,0.0,0.0,-3.1918,0.0,-3.1546,0.0,0.0,-3.0905,-3.0905,-3.0091,-2.9634,-2.9634,-2.9634,-2.9634,-2.9634,-3.0057,-3.0279,-3.0296,-3.0581,-3.0734,-3.0784,-3.1952,0.0,-3.3525,0.0,-3.6315,0.0,0.0,0.0,0.0,-3.9191,-3.9656,-3.969,-3.9994,-3.991,-3.9463,0.0,-3.763,0.0,0.0,0.0,0.0,0.0,0.0,0.0,0.0,0.0,0.0,0.0,0.0,0.0,-2.6125,0.0,-2.5304,0.0,0.0,0.0,0.0,0.0,0.0,0.0,0.0,0.0,0.0,0.0,0.0,0.0,0.0,0.0,0.0,0.0,0.0,0.0,0.0,-3.3998,-3.4298,-3.5126,-3.56,-3.56,-3.56,-3.56,-3.56,-3.56,-3.56,-3.56,-3.6417,-3.7178,-3.7939,-3.8667,-3.9394,-4.0096,-4.0096,-4.0096,-4.0096,-4.0096,-4.0096,-4.0096,-4.0096,-4.0096,-4.0096,-4.0096,-4.0096,-4.0096,-2.7317,-2.6996,-2.6759,-2.6962,-2.6996,-2.7266,-2.801,-2.8789,-2.9382,-2.9585,-2.9788,0.0,-3.2222,-3.2222,0.0,0.0,-3.4134,-3.3994,0.0,0.0,-3.2987,0.0,-3.1799,0.0,-3.1004,-3.0818,-3.0598,-3.0395,-3.0937,-3.119,-3.119,-3.1413,-3.1515,-3.1546,-3.2831,-3.3744,-3.4472,0.0,-3.7635,-3.7811,-3.8877,-3.8971,-3.8599,-3.9462,-3.9926,-4.0096,-4.0096,-4.0096,-3.9978,-3.9166,-3.819,0.0,-3.658,0.0,0.0,0.0,0.0,0.0,-2.9294,0.0,0.0,0.0,0.0,0.0,0.0,0.0,0.0,0.0,0.0,0.0,0.0,0.0,0.0,0.0,0.0,0.0,0.0,0.0,0.0,0.0,0.0,0.0,0.0,0.0,0.0,0.0,0.0,0.0,-3.3372,-3.4416,-3.5177,-3.5583,-3.56,-3.56,-3.56,-3.56,-3.56,-3.56,-3.6417,-3.7178,-3.7939,-3.8667,-3.9394,-4.0096,-4.0096,-4.0096,-4.0096,-4.0096,-4.0096,-4.0096,-4.0096,-4.0096,-4.0096,-4.0096,-4.0096,-4.0096,-2.8925,-2.7723,-2.6928,-2.7638,-2.7773,-2.8027,-2.884,-2.9583,-3.0328,-3.1038,0.0,0.0,0.0,0.0,0.0,0.0,0.0,-3.5532,-3.5532,0.0,-3.4742,0.0,0.0,-3.3305,0.0,-3.2598,-3.1887,-3.1157,-3.119,-3.119,-3.1207,-3.1938,-3.2259,-3.2293,-3.3051,-3.4624,-3.6694,-3.6795,-3.8065,-3.9994,-4.0045,-4.0045,-3.996,0.0,-3.9486,-4.0096,-4.0096,0.0,0.0,-3.9166,-3.8875,0.0,0.0,0.0,0.0,0.0,0.0,0.0,0.0,0.0,0.0,-2.9574,0.0,0.0,0.0,0.0,-2.5413,0.0,0.0,0.0,0.0,0.0,0.0,0.0,0.0,0.0,0.0,0.0,0.0,0.0,0.0,0.0,0.0,0.0,0.0,0.0,0.0,0.0,-3.3288,-3.3457,-3.4112,-3.5549,-3.56,-3.56,-3.56,-3.56,-3.56,-3.56,-3.6417,-3.7178,-3.7939,-3.8667,-3.9394,-4.0096,-4.0096,-4.0096,-4.0096,-4.0096,-4.0096,-4.0096,-4.0096,-4.0096,-4.0096,-4.0096,-4.0096,-4.0096,-2.8993,-2.8587,-2.8299,-2.8552,-2.8586,-2.8839,-2.9617,-3.0768,-3.1816,0.0,-3.3288,0.0,0.0,-3.6163,-3.644,0.0,0.0,-3.7104,-3.7104,-3.6417,0.0,0.0,0.0,-3.4856,0.0,0.0,-3.3389,-3.2662,-3.2662,-3.2662,-3.2662,-3.2916,-3.3034,-3.3085,-3.432,-3.5588,0.0,0.0,0.0,0.0,0.0,-3.9073,-3.8717,0.0,0.0,-4.002,-3.9489,-3.9636,0.0,-3.7987,-3.7745,-3.7853,-3.6089,-3.5095,-3.4379,-3.3411,-3.269,0.0,0.0,0.0,-3.142,-3.0986,0.0,0.0,0.0,0.0,0.0,0.0,0.0,0.0,0.0,0.0,0.0,0.0,0.0,0.0,0.0,0.0,0.0,0.0,0.0,0.0,0.0,0.0,0.0,0.0,0.0,0.0,0.0,-3.2882,-3.4083,-3.5549,-3.56,-3.56,-3.56,-3.56,-3.56,-3.56,-3.6417,-3.7178,-3.7939,-3.8667,-3.9394,-4.0096,-4.0096,-4.0096,-4.0096,-4.0096,-4.0096,-4.0096,-4.0096,-4.0096,-4.0096,-4.0096,-4.0096,-4.0096,-2.9788,-2.9788,-2.9704,-2.945,-2.9839,-3.033,-3.0801,-3.2121,0.0,0.0,-3.4675,0.0,-3.7043,0.0,-3.7895,0.0,-3.8684,-3.8684,-3.8684,-3.7973,0.0,-3.8254,-3.6798,0.0,0.0,0.0,0.0,0.0,0.0,-3.3406,-3.3406,-3.3677,-3.3795,-3.3846,-3.5042,-3.6045,-3.688,-3.8091,-3.8751,0.0,0.0,-3.8717,0.0,0.0,-3.9723,-3.964,0.0,-3.9236,-3.9411,-3.7629,-3.7189,-3.7189,-3.6212,-3.5416,-3.4756,-3.4337,-3.3918,-3.3514,-3.3275,-3.3036,0.0,-3.2303,-3.136,0.0,-2.9747,0.0,0.0,0.0,0.0,0.0,0.0,0.0,0.0,0.0,0.0,0.0,0.0,-2.4736,0.0,0.0,0.0,0.0,0.0,0.0,0.0,0.0,0.0,0.0,0.0,0.0,-3.3406,-3.5143,-3.5447,-3.56,-3.56,-3.56,-3.56,-3.5616,-3.6688,-3.7432,-3.7939,-3.8937,-3.9656,-4.0096,-4.0096,-4.0096,-4.0096,-4.0096,-4.0096,-4.007,-3.9782,-3.985,-4.0096,-4.0096,-4.0096,-4.0096,-3.1309,-3.1309,-3.1089,-3.0395,-3.141,0.0,0.0,0.0,-3.4506,0.0,-3.5932,-3.7202,-3.7939,-3.87,-3.9445,-4.0146,-4.0214,-4.0214,-4.0214,-3.9546,0.0,0.0,-3.7682,-3.6545,-3.5735,0.0,0.0,0.0,0.0,-3.3508,-3.3525,-3.4235,-3.4539,-3.4573,-3.5301,0.0,-3.6846,-3.755,-3.8294,-3.8988,-3.9039,-3.9022,-3.8988,-3.9039,0.0,-3.8974,-3.8891,-3.8881,-3.8772,-3.7978,-3.7203,-3.6569,-3.6554,-3.6054,-3.5504,-3.5504,-3.5504,-3.5355,-3.4728,-3.4068,-3.3589,-3.3559,0.0,0.0,0.0,0.0,-2.9472,0.0,0.0,0.0,0.0,0.0,0.0,0.0,0.0,0.0,0.0,0.0,0.0,0.0,0.0,0.0,0.0,0.0,0.0,0.0,0.0,0.0,0.0,0.0,0.0,-3.437,-3.5199,-3.56,-3.56,-3.56,-3.5616,-3.5667,-3.7195,-3.7922,-3.8007,-3.9453,-4.0096,-4.0096,-4.0096,-4.0096,-4.0096,-4.0096,-4.007,-3.9952,-3.9209,-3.9342,-3.9995,-4.007,-4.0096,-4.0096,-3.2848,-3.2848,-3.278,0.0,-3.2865,-3.3119,0.0,0.0,0.0,0.0,-3.7144,-3.8717,-3.9445,-4.0663,-4.1525,-4.1711,-4.1728,0.0,0.0,0.0,0.0,-4.0622,-4.0253,-3.9161,-3.729,-3.7087,0.0,-3.503,0.0,0.0,-3.5042,-3.5228,-3.5312,-3.5329,-3.5515,-3.6045,-3.6812,-3.7015,-3.7804,-3.9039,-3.9605,-3.9503,0.0,0.0,-3.9486,-3.8924,-3.8297,-3.8442,-3.8591,-3.6738,-3.6321,-3.6492,-3.5943,-3.5636,-3.5504,-3.5504,-3.5504,-3.5474,-3.5295,-3.5115,-3.4876,-3.4352,-3.3469,-3.2512,0.0,0.0,0.0,0.0,0.0,0.0,0.0,0.0,0.0,0.0,0.0,0.0,0.0,0.0,0.0,-2.3815,0.0,0.0,0.0,0.0,0.0,0.0,0.0,0.0,0.0,0.0,0.0,-3.3626,-3.4923,-3.56,-3.56,-3.56,-3.591,-3.6485,-3.7449,-3.8193,-3.8751,-3.969,-4.0096,-4.0096,-4.0096,-4.0096,-4.0096,-4.0096,-3.9756,-3.9193,-3.8962,-3.869,-3.8513,-3.9679,-4.0096,-4.0096,-3.3406,-3.366,0.0,-3.388,0.0,0.0,-3.4349,0.0,0.0,-3.7043,-3.9056,0.0,-4.0561,-4.1593,-4.2286,-4.2286,-4.2286,0.0,-4.1749,0.0,0.0,-4.0119,-3.9793,-3.8868,-3.7286,-3.6991,0.0,-3.5113,0.0,0.0,-3.4728,-3.4728,-3.4728,-3.4728,0.0,-3.5419,-3.5894,-3.6499,-3.7439,-3.8558,-3.8933,0.0,0.0,-3.8923,-3.8842,-3.8371,-3.7559,-3.7761,-3.8133,-3.6164,-3.5782,-3.607,-3.5651,-3.5504,-3.5504,-3.5504,-3.5504,-3.5504,-3.5504,-3.5504,-3.5415,-3.5026,-3.4427,-3.3724,-3.2991,-3.2078,-3.1285,0.0,0.0,0.0,0.0,0.0,0.0,0.0,0.0,0.0,0.0,0.0,0.0,0.0,0.0,0.0,0.0,0.0,0.0,0.0,0.0,0.0,0.0,0.0,0.0,-3.2865,-3.4353,-3.4852,-3.4253,-3.4866,-3.5245,-3.5397,-3.6447,-3.7323,-3.8008,-3.8762,-3.9076,-3.9076,-3.9076,-3.9076,-3.9076,-3.9076,-3.8816,-3.8414,-3.8414,-3.7962,-3.7411,-3.8652,-3.9305,-3.9584,-3.3694,-3.4201,0.0,0.0,0.0,0.0,0.0,-3.7719,0.0,-3.9106,0.0,-4.2049,-4.1407,-4.21,-4.2591,-4.2591,0.0,-4.2286,-4.1522,-4.1465,-4.0759,-3.9122,-3.8529,-3.7743,-3.6797,-3.6152,0.0,0.0,0.0,0.0,-3.3735,-3.3735,-3.3684,-3.3633,0.0,0.0,0.0,-3.6123,-3.7103,-3.7759,-3.7774,-3.78,-3.78,-3.78,-3.7811,-3.769,-3.6873,-3.7054,-3.7427,-3.599,-3.5504,-3.5504,-3.5504,-3.5504,-3.5504,-3.5504,-3.5504,-3.5504,-3.5504,-3.5504,-3.5504,-3.5504,-3.5055,-3.4623,-3.4533,-3.3589,-3.2721,-3.2557,-3.1584,0.0,0.0,0.0,0.0,0.0,0.0,0.0,0.0,0.0,0.0,0.0,0.0,0.0,0.0,0.0,0.0,0.0,0.0,0.0,0.0,0.0,0.0,0.0,-3.3545,0.0,-3.2644,0.0,-3.4284,-3.3886,-3.5118,-3.6082,-3.6853,-3.7505,-3.7793,-3.7793,-3.7793,-3.7793,-3.7793,-3.7793,-3.7719,-3.7632,-3.7531,-3.707,-3.6538,-3.7235,-3.7962,-3.8619,-3.5211,0.0,0.0,0.0,0.0,-3.7212,-3.9031,-3.8633,-3.8531,-3.9757,-4.1288,-4.2236,-4.2117,-4.3379,-4.4209,-4.4209,-4.4209,0.0,0.0,0.0,0.0,-4.1637,-4.1461,-4.0394,-3.8277,-3.7634,-3.693,0.0,0.0,0.0,-3.4431,-3.4431,-3.4137,-3.3633,0.0,0.0,-3.549,-3.6353,0.0,-3.6954,-3.7568,-3.7801,-3.7801,-3.7801,-3.7796,-3.769,-3.6873,-3.6691,-3.6676,-3.5782,-3.5504,-3.5504,-3.5504,-3.5504,-3.5504,-3.5504,-3.5504,-3.5504,-3.5504,-3.5504,-3.5504,-3.5504,-3.5415,-3.5175,-3.4638,-3.4324,-3.3829,-3.2736,-3.2317,-3.1794,-3.0567,0.0,0.0,0.0,0.0,0.0,0.0,0.0,0.0,0.0,0.0,0.0,0.0,0.0,0.0,0.0,0.0,0.0,0.0,0.0,0.0,0.0,0.0,0.0,0.0,0.0,0.0,-3.5342,-3.5582,-3.6382,-3.7601,-3.7729,-3.7793,-3.7793,-3.7793,-3.7793,-3.7793,-3.7793,-3.7427,-3.6768,-3.6133,-3.5829,-3.5701,-3.5846,-3.6384,-3.7098,0.0,0.0,0.0,0.0,0.0,0.0,0.0,-4.0392,0.0,-4.166,-4.2777,-4.3498,-4.3498,-4.4175,-4.4412,-4.3977,-4.3948,-4.3545,-4.2629,-4.2598,-4.2028,-4.0808,-4.0398,0.0,-3.85,-3.7856,-3.6878,-3.5458,0.0,0.0,-3.2981,-3.2981,-3.2837,-3.2544,0.0,-3.4432,0.0,0.0,0.0,-3.6761,-3.7449,-3.7679,-3.7726,-3.8072,-3.7966,-3.7526,-3.7157,-3.6995,-3.6871,-3.5829,-3.5504,-3.5504,-3.5504,-3.5504,-3.5504,-3.5504,-3.5504,-3.5504,-3.5504,-3.5504,-3.5504,-3.5504,-3.5504,-3.5415,-3.5085,-3.4758,-3.4324,-3.3664,-3.2991,-3.2108,-3.0746,-2.946,0.0,0.0,0.0,0.0,0.0,0.0,0.0,0.0,0.0,0.0,0.0,0.0,0.0,0.0,0.0,0.0,0.0,0.0,0.0,0.0,0.0,0.0,0.0,0.0,0.0,-3.3534,-3.4231,-3.527,-3.66,-3.66,-3.66,-3.66,-3.66,-3.66,-3.66,-3.66,-3.6368,-3.6006,-3.5651,-3.5504,-3.5504,-3.5504,-3.5718,-3.6149,0.0,-3.6941,0.0,0.0,-3.8308,0.0,-4.1178,-4.1916,-4.2614,-4.3527,-4.4198,-4.4615,-4.4615,-4.444,-4.4121,-4.3621,-4.3246,-4.252,-4.1346,-4.108,-4.0603,-3.9702,-3.9174,-3.8797,-3.8616,-3.7958,-3.6877,0.0,0.0,0.0,0.0,0.0,0.0,0.0,0.0,0.0,0.0,0.0,-3.6097,-3.6702,-3.7296,-3.7568,-3.7629,-3.815,-3.795,-3.7404,-3.7404,-3.7404,-3.7255,-3.6252,-3.5818,-3.5684,-3.5549,-3.5504,-3.5504,-3.5504,-3.5504,-3.5504,-3.5504,-3.5504,-3.5504,-3.5504,-3.5504,-3.5504,-3.5504,-3.5085,-3.4683,-3.4533,-3.3425,-3.2198,-3.1135,-3.0298,0.0,0.0,0.0,0.0,0.0,0.0,0.0,0.0,0.0,0.0,0.0,0.0,0.0,0.0,0.0,0.0,0.0,0.0,0.0,0.0,0.0,0.0,-2.9726,0.0,-3.2229,0.0,-3.314,-3.4337,-3.5504,-3.5504,-3.5504,-3.5504,-3.5504,-3.5504,-3.5504,-3.5504,-3.5504,-3.5504,-3.5504,-3.5504,-3.5504,-3.5504,-3.5504,-3.5587,0.0,0.0,0.0,0.0,0.0,0.0,0.0,-4.22,-4.2762,-4.4311,-4.4564,-4.4615,-4.4615,-4.3902,-4.3726,-4.4412,-4.3031,-4.2395,-4.3017,-4.2332,-4.1478,-4.0622,-4.0526,-4.0113,-3.932,-3.8646,-3.8228,0.0,0.0,0.0,0.0,0.0,0.0,0.0,0.0,0.0,0.0,-3.6136,-3.644,-3.6574,-3.7166,-3.7417,-3.7417,-3.7477,-3.7473,-3.7404,-3.7404,-3.7404,-3.7389,-3.727,-3.6866,-3.6297,-3.5684,-3.5504,-3.5504,-3.5504,-3.5504,-3.5504,-3.5504,-3.5504,-3.5504,-3.5504,-3.5504,-3.5504,-3.5504,-3.5459,-3.5235,-3.4638,-3.3425,-3.2452,-3.2347,-3.1285,-3.0013,0.0,0.0,0.0,0.0,0.0,0.0,0.0,0.0,0.0,0.0,0.0,0.0,0.0,0.0,0.0,0.0,0.0,0.0,0.0,0.0,-2.999,-3.0397,-3.1197,0.0,-3.332,-3.4069,-3.4786,-3.5504,-3.5504,-3.5504,-3.5504,-3.5504,-3.5504,-3.5504,-3.5504,-3.5504,-3.5504,-3.5504,-3.5504,-3.5504,-3.5504,-3.5504,-3.5504,0.0,0.0,0.0,0.0,0.0,0.0,0.0,-4.291,-4.3096,-4.3752,-4.4281,-4.4412,-4.3873,-4.3502,-4.3017,-4.23,-4.1626,-4.1162,-4.0977,-4.0653,-4.0289,-3.992,-3.992,-3.9773,-3.9424,-3.9155,-3.8607,0.0,0.0,0.0,0.0,0.0,0.0,0.0,0.0,-3.4985,-3.5576,-3.6622,-3.7029,-3.7105,-3.7734,-3.8003,-3.8033,-3.8452,-3.8616,-3.8616,-3.8616,-3.8616,-3.8556,-3.8138,-3.7569,-3.6926,-3.6297,-3.6088,-3.6013,-3.5624,-3.5504,-3.5504,-3.5504,-3.5504,-3.5504,-3.5504,-3.5504,-3.5504,-3.5504,-3.5504,-3.5429,-3.516,-3.4023,-3.2976,-3.2557,-3.172,-3.0793,0.0,0.0,0.0,0.0,0.0,0.0,0.0,0.0,0.0,0.0,0.0,0.0,0.0,0.0,0.0,0.0,0.0,0.0,-2.8845,0.0,-3.0233,-3.0497,-3.1159,-3.1974,-3.2916,-3.3978,-3.4846,-3.5504,-3.5504,-3.5504,-3.5504,-3.5504,-3.5504,-3.5504,-3.5504,-3.5504,-3.5504,-3.5504,-3.5504,-3.5504,-3.5504,-3.5504,-3.5504,-4.128,0.0,-4.1767,0.0,-4.2156,-4.2653,-4.2653,-4.2586,-4.2614,-4.2878,-4.3456,-4.3604,-4.297,-4.2693,-4.2125,-4.118,-4.0588,-4.0185,-3.9809,-3.9538,-3.9388,-3.9388,-3.9388,0.0,-3.9388,-3.9388,-3.896,-3.8003,-3.7165,0.0,0.0,0.0,0.0,0.0,-3.537,-3.5893,-3.6133,-3.724,-3.7704,-3.7749,-3.8422,-3.8691,-3.8751,-3.923,-3.9388,-3.9388,-3.9388,-3.9388,-3.9349,-3.8856,-3.8377,-3.7853,-3.7015,-3.6761,-3.6626,-3.5983,-3.5789,-3.5744,-3.5549,-3.5504,-3.5504,-3.5504,-3.5504,-3.5504,-3.5504,-3.5504,-3.5504,-3.5504,-3.4592,-3.3589,-3.2916,-3.2243,-3.1511,-3.0642,0.0,0.0,0.0,0.0,0.0,0.0,-2.6482,-2.6692,-2.6228,0.0,0.0,0.0,0.0,0.0,0.0,0.0,0.0,0.0,0.0,0.0,0.0,0.0,-3.2034,-3.3095,-3.4247,-3.504,-3.5504,-3.5504,-3.5504,-3.5504,-3.5504,-3.5504,-3.5504,-3.5504,-3.5504,-3.5504,-3.5504,-3.5504,-3.5504,-3.5504,-3.5504,-3.5504,-4.4395,-4.391,-4.3121,-4.2332,-4.1482,-4.0911,-4.0911,-4.0807,-4.1046,-4.1901,-4.2029,-4.2029,-4.2029,-4.1247,-4.108,-4.1901,-4.0413,-3.9773,-4.0622,-3.99,-3.9388,0.0,0.0,-3.9388,-3.9388,-3.9388,-3.9373,-3.9394,0.0,0.0,-3.6447,0.0,-3.5207,-3.6447,-3.6462,-3.6806,-3.7434,-3.8093,-3.8377,-3.8437,-3.9125,-3.9373,-3.9373,-3.9388,-3.9388,-3.9388,-3.9388,-3.9388,-3.9388,-3.9373,-3.9394,-3.9119,-3.7823,-3.7404,-3.727,-3.6656,-3.6477,-3.6327,-3.5684,-3.5504,-3.5504,-3.5504,-3.5504,-3.5504,-3.5504,-3.5504,-3.5504,-3.5504,-3.4951,-3.4294,-3.3604,-3.2946,-3.2063,-3.0717,0.0,0.0,0.0,0.0,0.0,0.0,-2.718,-2.7585,-2.757,0.0,0.0,0.0,0.0,0.0,0.0,0.0,0.0,-2.8562,-2.7974,0.0,-3.0477,-3.1152,-3.2512,-3.4488,-3.516,-3.5489,-3.5504,-3.5504,-3.5504,-3.5504,-3.5504,-3.5504,-3.5504,-3.5504,-3.5504,-3.5504,-3.5504,-3.5504,-3.5504,-3.5504,-3.5504,-3.5504,-4.2684,-4.2604,-4.2349,-4.2118,-4.182,-4.1646,-4.1646,-4.1105,-4.0811,-4.108,-4.0603,-4.022,-4.022,-4.05,-4.0569,0.0,-3.9702,-3.9517,0.0,-3.9538,-3.9388,-3.9388,-3.9388,-3.9388,-3.9388,-3.9388,-3.9388,-3.9388,0.0,0.0,0.0,-3.7135,-3.7135,-3.7135,-3.7584,-3.7898,-3.8123,-3.8811,-3.9095,-3.911,-3.9334,-3.9388,-3.9388,-3.9388,-3.9388,-3.9388,-3.9388,-3.9388,-3.9388,-3.9388,-3.9388,-3.9313,-3.8916,-3.8452,-3.7943,-3.73,-3.6821,-3.6432,-3.6237,-3.5848,-3.5504,-3.5504,-3.5504,-3.5504,-3.5504,-3.5504,-3.5504,-3.5504,-3.4966,-3.4444,-3.4234,-3.326,-3.2198,-3.1316,0.0,0.0,0.0,0.0,0.0,0.0,0.0,-2.8263,0.0,-2.769,0.0,0.0,0.0,0.0,0.0,0.0,0.0,0.0,-2.9684,0.0,-3.1869,-3.2064,-3.2961,-3.4518,-3.5175,-3.5504,-3.5504,-3.5504,-3.5504,-3.5504,-3.5504,-3.5504,-3.5504,-3.5504,-3.5504,-3.5504,-3.5504,-3.5504,-3.5504,-3.5504,-3.5504,-3.5504,-4.1917,-4.1997,-4.1901,-4.1576,-4.1511,-4.1412,-4.1062,-4.0569,-4.0205,-4.0205,-3.9737,-3.9388,-3.9388,-3.99,0.0,-3.9445,-3.9388,-3.9388,-3.9388,-3.9388,-3.9388,-3.9388,-3.9388,-3.9388,-3.9388,0.0,0.0,-3.9388,-3.899,-3.8571,-3.8167,-3.8586,-3.8556,-3.8182,-3.8601,-3.8781,-3.8796,-3.923,-3.9388,-3.9388,-3.9388,-3.9388,-3.9388,-3.9388,-3.9388,-3.9388,-3.9388,-3.9388,-3.9388,-3.9388,-3.9388,-3.9388,-3.9388,-3.9125,-3.8646,-3.7973,-3.7509,-3.709,-3.6611,-3.6193,-3.5818,-3.5564,-3.5504,-3.5504,-3.5504,-3.5504,-3.5504,-3.5504,-3.516,-3.4786,-3.4563,-3.3604,-3.2662,-3.1974,0.0,-3.1122,-3.0088,0.0,0.0,0.0,0.0,0.0,0.0,-2.8921,0.0,0.0,0.0,0.0,0.0,0.0,0.0,-3.0133,-3.0372,0.0,-3.2497,-3.2766,-3.3544,-3.4861,-3.5295,-3.5504,-3.5504,-3.5504,-3.5504,-3.5504,-3.5504,-3.5504,-3.5504,-3.5504,-3.5504,-3.5504,-3.5504,-3.5504,-3.5504,-3.5504,-3.5504,-3.5504,-4.1804,-4.1804,0.0,0.0,-4.0622,0.0,-3.9502,-3.9388,-3.9388,-3.9388,-3.9388,-3.9388,-3.9388,-3.9388,-3.9388,-3.9388,0.0,0.0,0.0,-3.9388,-3.9388,-3.9388,-3.9388,-3.9388,-3.9388,-3.9388,-3.9388,-3.9388,-3.9388,-3.9388,-3.9388,-3.9388,-3.9388,-3.9388,-3.9388,-3.9388,-3.9388,-3.9388,-3.9388,-3.9388,-3.9388,-3.9388,-3.9388,-3.9388,-3.9388,-3.9388,-3.9388,-3.9388,-3.9388,-3.9388,-3.9388,-3.9388,-3.9388,-3.9388,-3.929,-3.8646,-3.8422,-3.8123,-3.6941,-3.6552,-3.6342,-3.5729,-3.5534,-3.5504,-3.5504,-3.5504,-3.5504,-3.5504,-3.5504,-3.531,-3.4666,-3.4008,-3.335,-3.2691,-3.2004,-3.1316,-3.0612,0.0,0.0,0.0,0.0,0.0,0.0,-3.0567,-3.0552,0.0,0.0,0.0,0.0,0.0,-2.9861,-2.9816,-3.0387,-3.133,-3.2647,-3.326,-3.4218,-3.5504,-3.5504,-3.5504,-3.5504,-3.5504,-3.5504,-3.5504,-3.5504,-3.5504,-3.5504,-3.5504,-3.5504,-3.5504,-3.5504,-3.5504,-3.5504,-3.5504,-3.5504,-3.5504,0.0,0.0,-3.997,-3.9737,-3.9702,-3.9646,-3.9409,-3.9388,-3.9388,-3.9388,-3.9388,-3.9388,-3.9388,-3.9388,-3.9388,-3.9388,-3.9388,-3.9388,-3.9388,-3.9388,-3.9388,-3.9388,-3.9388,-3.9388,-3.9388,-3.9388,-3.9388,-3.9388,-3.9388,-3.9388,-3.9388,-3.9388,-3.9388,-3.9388,-3.9388,-3.9388,-3.9388,-3.9388,-3.9388,-3.9388,-3.9388,-3.9388,-3.9388,-3.9388,-3.9388,-3.9388,-3.9388,-3.9388,-3.9388,-3.9388,-3.9388,-3.9388,-3.9388,-3.9388,-3.9394,-3.923,-3.8796,-3.8317,-3.8018,-3.7225,-3.6447,-3.6297,-3.5878,-3.5504,-3.5504,-3.5504,-3.5504,-3.5504,-3.5504,-3.5459,-3.5295,-3.4711,-3.4023,-3.3365,-3.2706,-3.1839,-3.0672,-3.0642,0.0,0.0,-3.0417,-3.0717,-3.1212,-3.1256,-3.1047,0.0,0.0,0.0,0.0,0.0,-3.2332,-3.1839,-3.2452,-3.3185,-3.4039,-3.4158,-3.4666,-3.5504,-3.5504,-3.5504,-3.5504,-3.5504,-3.5504,-3.5504,-3.5504,-3.5504,-3.5504,-3.5504,-3.5504,-3.5504,-3.5504,-3.5504,-3.5504,-3.5504,-3.5504,-3.5504,-3.9388,-3.9388,-3.9388,-3.9388,-3.9388,-3.9388,-3.9388,-3.9388,-3.9388,-3.9388,-3.9388,-3.9388,-3.9388,-3.9388,-3.9388,-3.9388,-3.9388,-3.9388,-3.9388,-3.9388,-3.9388,-3.9388,-3.9388,-3.9388,-3.9388,-3.9388,-3.9388,-3.9388,-3.9388,-3.9388,-3.9388,-3.9388,-3.9388,-3.9388,-3.9388,-3.9388,-3.9388,-3.9388,-3.9388,-3.9388,-3.9388,-3.9388,-3.9388,-3.9388,-3.9388,-3.9388,-3.9388,-3.9388,-3.9388,-3.9388,-3.9388,-3.9388,-3.9388,-3.9388,-3.9388,-3.9388,-3.9155,-3.8796,-3.8467,-3.7659,-3.6761,-3.6193,-3.5774,-3.5504,-3.5504,-3.5504,-3.5504,-3.5504,-3.5504,-3.5504,-3.5504,-3.4936,-3.4384,-3.4039,-3.314,-3.2123,-3.1092,-3.0943,0.0,-3.0537,-3.1046,-3.1569,-3.1914,-3.2228,-3.2243,-3.1898,0.0,0.0,-3.1884,-3.2901,-3.3185,-3.2512,-3.344,-3.4113,-3.4503,-3.4786,-3.513,-3.5504,-3.5504,-3.5504,-3.5504,-3.5504,-3.5504,-3.5504,-3.5504,-3.5504,-3.5504,-3.5504,-3.5504,-3.5504,-3.5504,-3.5504,-3.5504,-3.5504,-3.5504,-3.5504,-3.9388,-3.9388,-3.9388,-3.9388,-3.9388,-3.9388,-3.9388,-3.9388,-3.9388,-3.9388,-3.9388,-3.9388,-3.9388,-3.9388,-3.9388,-3.9388,-3.9388,-3.9388,-3.9388,-3.9388,-3.9388,-3.9388,-3.9388,-3.9388,-3.9388,-3.9388,-3.9388,-3.9388,-3.9388,-3.9388,-3.9388,-3.9388,-3.9388,-3.9388,-3.9388,-3.9388,-3.9388,-3.9388,-3.9388,-3.9388,-3.9388,-3.9388,-3.9388,-3.9388,-3.9388,-3.9388,-3.9388,-3.9388,-3.9388,-3.9388,-3.9388,-3.9388,-3.9388,-3.9388,-3.9388,-3.9388,-3.9388,-3.929,-3.8706,-3.7988,-3.712,-3.5953,-3.5579,-3.5504,-3.5504,-3.5504,-3.5504,-3.5504,-3.5504,-3.5504,-3.5504,-3.5026,-3.4593,-3.4399,-3.338,-3.2363,-3.1615,0.0,-3.1436,-3.0881,-3.1913,-3.2662,-3.2662,-3.317,-3.3499,-3.3499,-3.3066,0.0,0.0,-3.3679,-3.3499,-3.2826,-3.3993,-3.4668,-3.4668,-3.522,-3.5504,-3.5504,-3.5504,-3.5504,-3.5504,-3.5504,-3.5504,-3.5504,-3.5504,-3.5504,-3.5504,-3.5504,-3.5504,-3.5504,-3.5504,-3.5504,-3.5504,-3.5504,-3.5504,-3.5504,-3.9388,-3.9388,-3.9388,-3.9388,-3.9388,-3.9388,-3.9388,-3.9388,-3.9388,-3.9388,-3.9388,-3.9388,-3.9388,-3.9388,-3.9388,-3.9388,-3.9388,-3.9388,-3.9388,-3.9388,-3.9388,-3.9388,-3.9388,-3.9388,-3.9388,-3.9388,-3.9388,-3.9388,-3.9388,-3.9388,-3.9388,-3.9388,-3.9388,-3.9388,-3.9388,-3.9388,-3.9388,-3.9388,-3.9388,-3.9388,-3.9388,-3.9388,-3.9388,-3.9388,-3.9388,-3.9388,-3.9388,-3.9388,-3.9388,-3.9388,-3.9388,-3.9388,-3.9388,-3.9388,-3.9388,-3.9388,-3.9388,-3.9394,-3.9254,-3.8347,-3.724,-3.6507,-3.5923,-3.5504,-3.5504,-3.5504,-3.5504,-3.5504,-3.5504,-3.5504,-3.5504,-3.5415,-3.4981,-3.3829,-3.3469,-3.2916,-3.1675,0.0,-3.2317,-3.2183,-3.2871,-3.3335,-3.3335,-3.344,-3.3499,-3.3499,-3.3918,-3.3978,-3.3514,-3.4577,-3.4876,-3.4219,-3.4936,-3.534,-3.534,-3.5444,-3.5504,-3.5504,-3.5504,-3.5504,-3.5504,-3.5504,-3.5504,-3.5504,-3.5504,-3.5504,-3.5504,-3.5504,-3.5504,-3.5504,-3.5504,-3.5504,-3.5504,-3.5504,-3.5504,-3.5504,-3.9388,-3.9388,-3.9388,-3.9388,-3.9388,-3.9388,-3.9388,-3.9388,-3.9388,-3.9388,-3.9388,-3.9388,-3.9388,-3.9388,-3.9388,-3.9388,-3.9388,-3.9388,-3.9388,-3.9388,-3.9388,-3.9388,-3.9388,-3.9388,-3.9388,-3.9388,-3.9388,-3.9388,-3.9388,-3.9388,-3.9388,-3.9388,-3.9388,-3.9388,-3.9388,-3.9388,-3.9388,-3.9388,-3.9388,-3.9388,-3.9388,-3.9388,-3.9388,-3.9388,-3.9388,-3.9388,-3.9388,-3.9388,-3.9388,-3.9388,-3.9388,-3.9388,-3.9388,-3.9388,-3.9388,-3.9388,-3.9388,-3.9298,-3.896,-3.8407,-3.7778,-3.7135,-3.6507,-3.6028,-3.6028,-3.5759,-3.5504,-3.5504,-3.5504,-3.5504,-3.5504,-3.5504,-3.5175,-3.4188,-3.4054,0.0,0.0,-3.2632,-3.2901,-3.2557,-3.341,-3.4054,-3.4054,-3.4367,-3.4577,-3.4577,-3.4861,-3.4891,-3.4592,-3.516,-3.5355,-3.504,-3.534,-3.5504,-3.5504,-3.5504,-3.5504,-3.5504,-3.5504,-3.5504,-3.5504,-3.5504,-3.5504,-3.5504,-3.5504,-3.5504,-3.5504,-3.5504,-3.5504,-3.5504,-3.5504,-3.5504,-3.5504,-3.5504,-3.5504,-3.5504,-3.9388,-3.9388,-3.9388,-3.9388,-3.9388,-3.9388,-3.9388,-3.9388,-3.9388,-3.9388,-3.9388,-3.9388,-3.9388,-3.9388,-3.9388,-3.9388,-3.9388,-3.9388,-3.9388,-3.9388,-3.9388,-3.9388,-3.9388,-3.9388,-3.9388,-3.9388,-3.9388,-3.9388,-3.9388,-3.9388,-3.9388,-3.9388,-3.9388,-3.9388,-3.9388,-3.9388,-3.9388,-3.9388,-3.9388,-3.9388,-3.9388,-3.9388,-3.9388,-3.9388,-3.9388,-3.9388,-3.9388,-3.9388,-3.9388,-3.9388,-3.9388,-3.9388,-3.9388,-3.9388,-3.9388,-3.9388,-3.9388,-3.9305,-3.8781,-3.8512,-3.8272,-3.7764,-3.7165,-3.6656,-3.6522,-3.6088,-3.5684,-3.5534,-3.5504,-3.5504,-3.5504,-3.5504,-3.528,-3.4623,0.0,0.0,0.0,-3.341,-3.3604,-3.3245,-3.4098,-3.4711,-3.4711,-3.519,-3.5504,-3.5504,-3.5504,-3.5504,-3.5504,-3.5504,-3.5504,-3.5504,-3.5504,-3.5504,-3.5504,-3.5504,-3.5504,-3.5504,-3.5669,-3.5729,-3.5744,-3.5893,-3.5953,-3.5953,-3.5953,-3.5863,-3.5729,-3.5729,-3.5639,-3.5504,-3.5504,-3.5504,-3.5504,-3.5504,-3.5504,-3.5504,-3.9388,-3.9388,-3.9388,-3.9388,-3.9388,-3.9388,-3.9388,-3.9388,-3.9388,-3.9388,-3.9388,-3.9388,-3.9388,-3.9388,-3.9388,-3.9388,-3.9388,-3.9388,-3.9388,-3.9388,-3.9388,-3.9388,-3.9388,-3.9388,-3.9388,-3.9388,-3.9388,-3.9388,-3.9388,-3.9388,-3.9388,-3.9388,-3.9388,-3.9388,-3.9388,-3.9388,-3.9388,-3.9388,-3.9388,-3.9388,-3.9388,-3.9388,-3.9388,-3.9388,-3.9388,-3.9388,-3.9388,-3.9388,-3.9388,-3.9388,-3.9388,-3.9388,-3.9388,-3.9388,-3.9388,-3.9388,-3.9388,-3.9373,-3.9328,-3.8871,-3.8377,-3.8332,-3.7823,-3.7195,-3.6611,-3.6447,-3.6237,-3.5624,-3.5504,-3.5504,-3.5504,-3.5504,-3.528,-3.4623,0.0,0.0,-3.4384,-3.4414,-3.4653,-3.522,-3.537,-3.5429,-3.5429,-3.5474,-3.5504,-3.5504,-3.5504,-3.5504,-3.5504,-3.5504,-3.5504,-3.5504,-3.5504,-3.5504,-3.5504,-3.5504,-3.5504,-3.5519,-3.6118,-3.6417,-3.6432,-3.7015,-3.727,-3.727,-3.727,-3.6941,-3.6417,-3.6417,-3.6058,-3.5504,-3.5504,-3.5504,-3.5504,-3.5504,-3.5504,-3.5504,-3.9388,-3.9388,-3.9388,-3.9388,-3.9388,-3.9388,-3.9388,-3.9388,-3.9388,-3.9388,-3.9388,-3.9388,-3.9388,-3.9388,-3.9388,-3.9388,-3.9388,-3.9388,-3.9388,-3.9388,-3.9388,-3.9388,-3.9388,-3.9388,-3.9388,-3.9388,-3.9388,-3.9388,-3.9388,-3.9388,-3.9388,-3.9388,-3.9388,-3.9388,-3.9388,-3.9388,-3.9388,-3.9388,-3.9388,-3.9388,-3.9388,-3.9388,-3.9388,-3.9388,-3.9388,-3.9388,-3.9388,-3.9388,-3.9388,-3.9388,-3.9388,-3.9388,-3.9388,-3.9388,-3.9388,-3.9388,-3.9388,-3.9388,-3.9388,-3.923,-3.9035,-3.9035,-3.8512,-3.7958,-3.7719,-3.7345,-3.6881,-3.6252,-3.6118,-3.5983,-3.5579,-3.5504,-3.528,-3.4623,0.0,-3.4966,-3.4563,-3.4846,-3.5205,-3.5474,-3.5504,-3.5504,-3.5504,-3.5504,-3.5504,-3.5504,-3.5504,-3.5504,-3.5504,-3.5504,-3.5504,-3.5504,-3.5893,-3.6118,-3.6118,-3.6118,-3.6312,-3.6686,-3.6941,-3.706,-3.706,-3.73,-3.7404,-3.7404,-3.7404,-3.727,-3.706,-3.706,-3.6911,-3.6686,-3.6686,-3.6447,-3.6118,-3.6118,-3.5863,-3.5504,-3.9388,-3.9388,-3.9388,-3.9388,-3.9388,-3.9388,-3.9388,-3.9388,-3.9388,-3.9388,-3.9388,-3.9388,-3.9388,-3.9388,-3.9388,-3.9388,-3.9388,-3.9388,-3.9388,-3.9388,-3.9388,-3.9388,-3.9388,-3.9388,-3.9388,-3.9388,-3.9388,-3.9388,-3.9388,-3.9388,-3.9388,-3.9388,-3.9388,-3.9388,-3.9388,-3.9388,-3.9388,-3.9388,-3.9388,-3.9388,-3.9388,-3.9388,-3.9388,-3.9388,-3.9388,-3.9388,-3.9388,-3.9388,-3.9388,-3.9388,-3.9388,-3.9388,-3.9388,-3.9388,-3.9388,-3.9388,-3.9388,-3.9388,-3.9388,-3.9388,-3.9388,-3.9388,-3.9065,-3.8661,-3.8437,-3.8033,-3.7539,-3.6911,-3.6776,-3.6582,-3.5923,-3.5804,-3.5594,-3.4906,-3.519,-3.534,-3.4861,-3.5205,-3.5504,-3.5504,-3.5504,-3.5504,-3.5504,-3.5504,-3.5504,-3.5504,-3.5504,-3.5594,-3.5804,-3.5804,-3.5908,-3.6103,-3.6537,-3.6866,-3.7075,-3.6881,-3.6985,-3.7404,-3.7614,-3.7719,-3.7719,-3.7943,-3.8033,-3.8033,-3.8033,-3.7913,-3.7719,-3.7719,-3.7599,-3.7404,-3.7404,-3.703,-3.6492,-3.6492,-3.6073,-3.5504,-3.9388,-3.9388,-3.9388,-3.9388,-3.9388,-3.9388,-3.9388,-3.9388,-3.9388,-3.9388,-3.9388,-3.9388,-3.9388,-3.9388,-3.9388,-3.9388,-3.9388,-3.9388,-3.9388,-3.9388,-3.9388,-3.9388,-3.9388,-3.9388,-3.9388,-3.9388,-3.9388,-3.9388,-3.9388,-3.9388,-3.9388,-3.9388,-3.9388,-3.9388,-3.9388,-3.9388,-3.9388,-3.9388,-3.9388,-3.9388,-3.9388,-3.9388,-3.9388,-3.9388,-3.9388,-3.9388,-3.9388,-3.9388,-3.9388,-3.9388,-3.9388,-3.9388,-3.9388,-3.9388,-3.9388,-3.9388,-3.9388,-3.9388,-3.9388,-3.9388,-3.9388,-3.9388,-3.9388,-3.9245,-3.8556,-3.8407,-3.8212,-3.7554,-3.7419,-3.7225,-3.6611,-3.6492,-3.6282,-3.5624,-3.5519,-3.5504,-3.5504,-3.5504,-3.5504,-3.5504,-3.5504,-3.5504,-3.5504,-3.5504,-3.5504,-3.5504,-3.5504,-3.5804,-3.6462,-3.6492,-3.6776,-3.7389,-3.7419,-3.7734,-3.8377,-3.7749,-3.7419,-3.7434,-3.8078,-3.8407,-3.8422,-3.911,-3.9388,-3.9388,-3.9388,-3.9035,-3.8407,-3.8407,-3.8018,-3.7419,-3.7419,-3.7045,-3.6492,-3.6492,-3.6088,-3.5519,-3.9388,-3.9388,-3.9388,-3.9388,-3.9388,-3.9388,-3.9388,-3.9388,-3.9388,-3.9388,-3.9388,-3.9388,-3.9388,-3.9388,-3.9388,-3.9388,-3.9388,-3.9388,-3.9388,-3.9388,-3.9388,-3.9388,-3.9388,-3.9388,-3.9388,-3.9388,-3.9388,-3.9388,-3.9388,-3.9388,-3.9388,-3.9388,-3.9388,-3.9388,-3.9388,-3.9388,-3.9388,-3.9388,-3.9388,-3.9388,-3.9388,-3.9388,-3.9388,-3.9388,-3.9388,-3.9388,-3.9388,-3.9388,-3.9388,-3.9388,-3.9388,-3.9388,-3.9388,-3.9388,-3.9388,-3.9388,-3.9388,-3.9388,-3.9388,-3.9388,-3.9388,-3.9388,-3.9388,-3.9364,-3.9155,-3.911,-3.8916,-3.8242,-3.8093,-3.7898,-3.7255,-3.7135,-3.6926,-3.6297,-3.6193,-3.6028,-3.5564,-3.5504,-3.5504,-3.5504,-3.5504,-3.5504,-3.5504,-3.5504,-3.5504,-3.5504,-3.5938,-3.6462,-3.7105,-3.7135,-3.721,-3.7404,-3.7853,-3.8197,-3.8392,-3.8197,-3.8332,-3.8826,-3.902,-3.911,-3.9125,-3.9334,-3.9388,-3.9388,-3.9388,-3.9305,-3.911,-3.911,-3.899,-3.8811,-3.8811,-3.8422,-3.7823,-3.7823,-3.7135,-3.6193,-4.0187,-4.0187,-4.0187,-4.0187,-4.0187,-4.0187,-4.0187,-4.0187,-4.0187,-4.0187,-3.9963,-3.9813,-3.9813,-3.9574,-3.9388,-3.9388,-3.9388,-3.9388,-3.9388,-3.9388,-3.9388,-3.9388,-3.9388,-3.9388,-3.9388,-3.9388,-3.9388,-3.9388,-3.9388,-3.9388,-3.9388,-3.9388,-3.9388,-3.9388,-3.9388,-3.9388,-3.9388,-3.9388,-3.9388,-3.9388,-3.9388,-3.9388,-3.9388,-3.9388,-3.9388,-3.9388,-3.9388,-3.9388,-3.9388,-3.9388,-3.9388,-3.9388,-3.9388,-3.9388,-3.9388,-3.9388,-3.9388,-3.9388,-3.9388,-3.9388,-3.9388,-3.9388,-3.9388,-3.9388,-3.9388,-3.9388,-3.9305,-3.8886,-3.8796,-3.8586,-3.7913,-3.7808,-3.7584,-3.6956,-3.6851,-3.6701,-3.6312,-3.6252,-3.6163,-3.5923,-3.6103,-3.6163,-3.5923,-3.6118,-3.6252,-3.6252,-3.6626,-3.712,-3.7764,-3.7808,-3.7928,-3.8197,-3.8586,-3.8796,-3.8796,-3.8796,-3.9005,-3.9388,-3.9388,-3.9388,-3.9388,-3.9388,-3.9388,-3.9388,-3.9388,-3.9388,-3.9388,-3.9388,-3.9388,-3.9388,-3.9388,-3.899,-3.8392,-3.8392,-3.7734,-3.6851,-4.1422,-4.1422,-4.1422,-4.1422,-4.1422,-4.1422,-4.1422,-4.1422,-4.1422,-4.1422,-4.0861,-4.0487,-4.0487,-3.9903,-3.9514,-3.9514,-3.9418,-3.9388,-3.9388,-3.9388,-3.9388,-3.9388,-3.9388,-3.9388,-3.9388,-3.9388,-3.9388,-3.9388,-3.9388,-3.9388,-3.9388,-3.9388,-3.9388,-3.9388,-3.9388,-3.9388,-3.9388,-3.9388,-3.9388,-3.9388,-3.9388,-3.9388,-3.9388,-3.9388,-3.9388,-3.9388,-3.9388,-3.9388,-3.9388,-3.9388,-3.9388,-3.9388,-3.9388,-3.9388,-3.9388,-3.9388,-3.9388,-3.9388,-3.9388,-3.9388,-3.9388,-3.9388,-3.9388,-3.9388,-3.9388,-3.9388,-3.9388,-3.9388,-3.9388,-3.923,-3.8601,-3.8482,-3.8257,-3.7599,-3.7494,-3.7479,-3.7419,-3.7404,-3.721,-3.6641,-3.706,-3.718,-3.6626,-3.7075,-3.7434,-3.7494,-3.7494,-3.7778,-3.8437,-3.8482,-3.8766,-3.9394,-3.9388,-3.9388,-3.9388,-3.9388,-3.9388,-3.9388,-3.9388,-3.9388,-3.9388,-3.9388,-3.9388,-3.9388,-3.9388,-3.9388,-3.9388,-3.9388,-3.9388,-3.9388,-3.9388,-3.9035,-3.8482,-3.8482,-3.8063,-3.7479,-4.1422,-4.1422,-4.1422,-4.1422,-4.1422,-4.1422,-4.1422,-4.1422,-4.1422,-4.1422,-4.125,-4.1175,-4.1175,-4.0576,-4.0187,-4.0187,-3.9709,-3.9388,-3.9388,-3.9388,-3.9388,-3.9388,-3.9388,-3.9388,-3.9388,-3.9388,-3.9388,-3.9388,-3.9388,-3.9388,-3.9388,-3.9388,-3.9388,-3.9388,-3.9388,-3.9388,-3.9388,-3.9388,-3.9388,-3.9388,-3.9388,-3.9388,-3.9388,-3.9388,-3.9388,-3.9388,-3.9388,-3.9388,-3.9388,-3.9388,-3.9388,-3.9388,-3.9388,-3.9388,-3.9388,-3.9388,-3.9388,-3.9388,-3.9388,-3.9388,-3.9388,-3.9388,-3.9388,-3.9388,-3.9388,-3.9388,-3.9388,-3.9388,-3.9388,-3.9379,-3.923,-3.9185,-3.8975,-3.8287,-3.8182,-3.8003,-3.7479,-3.7404,-3.736,-3.7225,-3.733,-3.736,-3.7225,-3.733,-3.7629,-3.8138,-3.8182,-3.8482,-3.9155,-3.9185,-3.926,-3.9388,-3.9388,-3.9388,-3.9388,-3.9388,-3.9388,-3.9388,-3.9388,-3.9388,-3.9388,-3.9388,-3.9388,-3.9388,-3.9388,-3.9388,-3.9388,-3.9388,-3.9388,-3.9388,-3.9388,-3.9334,-3.9185,-3.9185,-3.8766,-3.8108,-4.2312,-4.2312,-4.2312,-4.2312,-4.2312,-4.2312,-4.2312,-4.2312,-4.2312,-4.2312,-4.2043,-4.1886,-4.1886,-4.1265,-4.0741,-4.0427,-4.0083,-3.9753,-3.9403,-3.9388,-3.9388,-3.9388,-3.9388,-3.9388,-3.9388,-3.9388,-3.9388,-3.9388,-3.9388,-3.9388,-3.9388,-3.9388,-3.9388,-3.9388,-3.9388,-3.9388,-3.9388,-3.9388,-3.9388,-3.9388,-3.9388,-3.9388,-3.9388,-3.9388,-3.9388,-3.9388,-3.9388,-3.9388,-3.9388,-3.9388,-3.9388,-3.9388,-3.9388,-3.9388,-3.9388,-3.9388,-3.9388,-3.9388,-3.9388,-3.9388,-3.9388,-3.9388,-3.9388,-3.9388,-3.9388,-3.9388,-3.9388,-3.9388,-3.9388,-3.9388,-3.9388,-3.9388,-3.9305,-3.8931,-3.8886,-3.8751,-3.8407,-3.8362,-3.8242,-3.7913,-3.8167,-3.8362,-3.8362,-3.8362,-3.8512,-3.8856,-3.8886,-3.9035,-3.9394,-3.9388,-3.9388,-3.9388,-3.9388,-3.9388,-3.9388,-3.9388,-3.9388,-3.9388,-3.9388,-3.9388,-3.9388,-3.9388,-3.9388,-3.9388,-3.9388,-3.9388,-3.9388,-3.9388,-3.9388,-3.9388,-3.9388,-3.9388,-3.9388,-3.9388,-3.9185,-3.8841,-4.329,-4.329,-4.329,-4.329,-4.329,-4.329,-4.329,-4.329,-4.329,-4.329,-4.2865,-4.256,-4.256,-4.1976,-4.128,-4.0621,-4.0561,-4.0292,-3.9634,-3.9553,-3.9508,-3.9388,-3.9388,-3.9388,-3.9388,-3.9388,-3.9388,-3.9388,-3.9388,-3.9388,-3.9388,-3.9388,-3.9388,-3.9388,-3.9388,-3.9388,-3.9388,-3.9388,-3.9388,-3.9388,-3.9388,-3.9388,-3.9388,-3.9388,-3.9388,-3.9388,-3.9388,-3.9388,-3.9388,-3.9388,-3.9388,-3.9388,-3.9388,-3.9388,-3.9388,-3.9388,-3.9388,-3.9388,-3.9388,-3.9265,-3.9177,-3.9337,-3.9265,-3.9177,-3.9337,-3.9388,-3.9388,-3.9388,-3.9388,-3.9388,-3.9388,-3.9388,-3.9388,-3.9388,-3.9388,-3.9388,-3.9388,-3.9388,-3.92,-3.8631,-3.9065,-3.9388,-3.9388,-3.9388,-3.9388,-3.9388,-3.9388,-3.9388,-3.9388,-3.9388,-3.9388,-3.9388,-3.9388,-3.9388,-3.9388,-3.9388,-3.9388,-3.9388,-3.9388,-3.9388,-3.9388,-3.9388,-3.9388,-3.9388,-3.9388,-3.9388,-3.9388,-3.9177,-3.9228,-3.9388,-3.9177,-3.9228,-3.9388,-3.9388,-3.9388,-3.9373,-4.329,-4.329,-4.329,-4.329,-4.329,-4.329,-4.329,-4.329,-4.329,-4.329,-4.3215,-4.317,-4.317,-4.2626,-4.2006,-4.1309,-4.125,-4.0965,-4.0307,-4.0262,-4.0008,-3.9454,-3.9388,-3.9388,-3.9388,-3.9388,-3.9388,-3.9388,-3.9388,-3.9388,-3.9388,-3.9388,-3.9388,-3.9388,-3.9388,-3.9388,-3.9388,-3.9388,-3.9388,-3.9388,-3.9388,-3.9388,-3.9388,-3.9388,-3.9388,-3.9388,-3.9388,-3.9388,-3.9388,-3.9388,-3.9388,-3.9388,-3.9388,-3.9388,-3.9388,-3.9388,-3.9388,-3.9388,-3.9388,-3.8708,-3.8234,-3.9177,-3.8708,-3.8271,-3.9177,-3.9388,-3.9388,-3.9388,-3.9388,-3.9388,-3.9388,-3.9388,-3.9388,-3.9388,-3.9388,-3.9388,-3.9388,-3.9388,-3.9394,-3.929,-3.9328,-3.9388,-3.9388,-3.9388,-3.9388,-3.9388,-3.9388,-3.9388,-3.9388,-3.9388,-3.9388,-3.9388,-3.9388,-3.9388,-3.9388,-3.9388,-3.9388,-3.9388,-3.9388,-3.9388,-3.9388,-3.9388,-3.9388,-3.9388,-3.9388,-3.9388,-3.9337,-3.8383,-3.8546,-3.9301,-3.8383,-3.8583,-3.9388,-3.9388,-3.9388,-3.9265,-4.329,-4.329,-4.329,-4.329,-4.329,-4.329,-4.329,-4.329,-4.329,-4.329,-4.329,-4.329,-4.329,-4.3075,-4.2641,-4.2021,-4.1976,-4.1692,-4.0995,-4.095,-4.0816,-4.0531,-4.0516,-4.0337,-3.9978,-3.9963,-3.9783,-3.9388,-3.9388,-3.9388,-3.9388,-3.9388,-3.9388,-3.9388,-3.9388,-3.9388,-3.9388,-3.9388,-3.9388,-3.9388,-3.9388,-3.9388,-3.9388,-3.9388,-3.9388,-3.9388,-3.9388,-3.9388,-3.9388,-3.9388,-3.9388,-3.9388,-3.9388,-3.9388,-3.9388,-3.9388,-3.9388,-3.9388,-3.9388,-3.862,-3.7919,-3.8383,-3.7701,-3.7007,-3.7482,-3.8092,-3.8671,-3.9265,-3.9388,-3.9388,-3.9388,-3.9388,-3.9388,-3.9388,-3.9388,-3.9388,-3.9388,-3.9388,-3.9388,-3.9388,-3.9388,-3.9141,-3.8546,-3.8509,-3.8256,-3.7648,-3.761,-3.761,-3.761,-3.761,-3.761,-3.761,-3.761,-3.761,-3.761,-3.761,-3.761,-3.761,-3.761,-3.8242,-3.9388,-3.9388,-3.9388,-3.9373,-3.8782,-3.8509,-3.842,-3.7343,-3.7175,-3.7572,-3.7084,-3.7214,-3.7686,-3.8308,-3.8509,-3.8435]},{"header":{"parameterUnit":"m.s-1","parameterCategory":1,"la1":30.6,"la2":28.766,"lo1":-90.7593,"lo2":-88.6598,"dy":0.0162,"dx":0.0183,"nx":116,"ny":114,"refTime":"2024-03-26T12:00:00:Z","depth":0,"parameterNumber":3,"parameterNumberName":"V-component_of_WINDS"},"data":[0.0,0.0,0.0,0.0,0.0,0.0,0.0,0.0,0.0,0.0,0.0,0.0,0.0,0.0,0.0,0.0,0.0,0.0,0.0,0.0,0.0,0.0,0.0,0.0,0.0,0.0,0.0,0.0,0.0,0.0,0.0,0.0,0.0,0.0,0.0,0.0,0.0,0.0,0.0,0.0,0.0,0.0,0.0,0.0,0.0,0.0,0.0,0.0,0.0,0.0,0.0,0.0,0.0,0.0,0.0,0.0,0.0,0.0,0.0,0.0,0.0,0.0,0.0,0.0,0.0,0.0,0.0,0.0,0.0,0.0,0.0,0.0,0.0,0.0,0.0,0.0,0.0,0.0,0.0,0.0,0.0,0.0,0.0,0.0,0.0,0.0,0.0,0.0,0.0,0.0,0.0,0.0,0.0,0.0,0.0,0.0,0.0,0.0,0.0,0.0,0.0,0.0,0.0,0.0,0.0,0.0,0.0,0.0,0.0,0.0,0.0,0.0,0.0,0.0,0.0,0.0,0.0,0.0,0.0,0.0,0.0,0.0,0.0,0.0,0.0,0.0,0.0,0.0,0.0,0.0,0.0,0.0,0.0,0.0,0.0,0.0,0.0,0.0,0.0,0.0,0.0,0.0,0.0,0.0,0.0,0.0,0.0,0.0,0.0,0.0,0.0,0.0,0.0,0.0,0.0,0.0,0.0,0.0,0.0,0.0,0.0,0.0,0.0,0.0,0.0,0.0,0.0,0.0,0.0,0.0,0.0,0.0,0.0,0.0,0.0,0.0,0.0,0.0,0.0,0.0,0.0,0.0,0.0,0.0,0.0,0.0,0.0,0.0,0.0,0.0,0.0,0.0,0.0,0.0,0.0,0.0,0.0,0.0,0.0,0.0,0.0,0.0,0.0,0.0,0.0,0.0,0.0,0.0,0.0,0.0,0.0,0.0,0.0,0.0,0.0,0.0,0.0,0.0,0.0,0.0,0.0,0.0,0.0,0.0,0.0,0.0,0.0,0.0,0.0,0.0,0.0,0.0,0.0,0.0,0.0,0.0,0.0,0.0,0.0,0.0,0.0,0.0,0.0,0.0,0.0,0.0,0.0,0.0,0.0,0.0,0.0,0.0,0.0,0.0,0.0,0.0,0.0,0.0,0.0,0.0,0.0,0.0,0.0,0.0,0.0,0.0,0.0,0.0,0.0,0.0,0.0,0.0,0.0,0.0,0.0,0.0,0.0,0.0,0.0,0.0,0.0,0.0,0.0,0.0,0.0,0.0,0.0,0.0,0.0,0.0,0.0,0.0,0.0,0.0,0.0,0.0,0.0,0.0,0.0,0.0,0.0,0.0,0.0,0.0,0.0,0.0,0.0,0.0,0.0,0.0,0.0,0.0,0.0,0.0,0.0,0.0,0.0,0.0,0.0,0.0,0.0,0.0,0.0,0.0,0.0,0.0,0.0,0.0,0.0,0.0,0.0,0.0,0.0,0.0,0.0,0.0,0.0,0.0,0.0,0.0,0.0,0.0,0.0,0.0,0.0,0.0,0.0,0.0,0.0,0.0,0.0,0.0,0.0,0.0,0.0,0.0,0.0,0.0,0.0,0.0,0.0,0.0,0.0,0.0,0.0,0.0,0.0,0.0,0.0,0.0,0.0,0.0,0.0,0.0,0.0,0.0,0.0,0.0,0.0,0.0,0.0,0.0,0.0,0.0,0.0,0.0,0.0,0.0,0.0,0.0,0.0,0.0,0.0,0.0,0.0,0.0,0.0,0.0,0.0,0.0,0.0,0.0,0.0,0.0,0.0,0.0,0.0,0.0,0.0,0.0,0.0,0.0,0.0,0.0,0.0,0.0,0.0,0.0,0.0,0.0,0.0,0.0,0.0,0.0,0.0,0.0,0.0,0.0,0.0,0.0,0.0,0.0,0.0,0.0,0.0,0.0,0.0,0.0,0.0,0.0,0.0,0.0,0.0,0.0,0.0,0.0,0.0,0.0,0.0,0.0,0.0,0.0,0.0,0.0,0.0,0.0,0.0,0.0,0.0,0.0,0.0,0.0,0.0,0.0,0.0,0.0,0.0,0.0,0.0,0.0,0.0,0.0,0.0,0.0,0.0,0.0,0.0,0.0,0.0,0.0,0.0,0.0,0.0,0.0,0.0,0.0,0.0,0.0,0.0,0.0,0.0,0.0,0.0,0.0,0.0,0.0,0.0,0.0,0.0,0.0,0.0,0.0,0.0,0.0,0.0,0.0,0.0,0.0,0.0,0.0,0.0,0.0,0.0,0.0,0.0,0.0,0.0,0.0,0.0,0.0,0.0,0.0,0.0,0.0,0.0,0.0,0.0,0.0,0.0,0.0,0.0,0.0,0.0,0.0,0.0,0.0,0.0,0.0,0.0,0.0,0.0,0.0,0.0,0.0,0.0,0.0,0.0,0.0,0.0,0.0,0.0,0.0,0.0,0.0,0.0,0.0,0.0,0.0,0.0,0.0,0.0,0.0,0.0,0.0,0.0,0.0,0.0,0.0,0.0,0.0,0.0,0.0,0.0,0.0,0.0,0.0,0.0,0.0,0.0,0.0,0.0,0.0,0.0,0.0,0.0,0.0,0.0,0.0,0.0,0.0,0.0,0.0,0.0,0.0,0.0,0.0,0.0,0.0,0.0,0.0,0.0,0.0,0.0,0.0,0.0,0.0,0.0,0.0,0.0,0.0,0.0,0.0,0.0,0.0,0.0,0.0,0.0,0.0,0.0,0.0,0.0,0.0,0.0,0.0,0.0,0.0,0.0,0.0,0.0,0.0,0.0,0.0,0.0,0.0,0.0,0.0,0.0,0.0,0.0,0.0,0.0,0.0,0.0,0.0,0.0,0.0,0.0,0.0,0.0,0.0,0.0,0.0,0.0,0.0,0.0,0.0,0.0,0.0,0.0,0.0,0.0,0.0,0.0,0.0,0.0,0.0,0.0,0.0,0.0,0.0,0.0,0.0,0.0,0.0,0.0,0.0,0.0,0.0,0.0,0.0,0.0,0.0,0.0,0.0,0.0,0.0,0.0,0.0,0.0,0.0,0.0,0.0,0.0,0.0,0.0,0.0,0.0,0.0,0.0,0.0,0.0,0.0,0.0,0.0,0.0,0.0,0.0,0.0,0.0,0.0,0.0,0.0,0.0,0.0,0.0,0.0,0.0,0.0,0.0,0.0,0.0,0.0,0.0,0.0,0.0,0.0,0.0,0.0,0.0,0.0,0.0,0.0,0.0,0.0,0.0,0.0,0.0,0.0,0.0,0.0,0.0,0.0,0.0,0.0,0.0,0.0,0.0,0.0,0.0,0.0,0.0,0.0,0.0,0.0,0.0,0.0,0.0,0.0,0.0,0.0,0.0,0.0,0.0,0.0,0.0,0.0,0.0,0.0,0.0,0.0,0.0,0.0,0.0,0.0,0.0,0.0,0.0,0.0,0.0,0.0,0.0,0.0,0.0,0.0,0.0,0.0,0.0,0.0,0.0,0.0,0.0,0.0,0.0,0.0,0.0,0.0,0.0,0.0,0.0,0.0,0.0,0.0,0.0,0.0,0.0,0.0,0.0,0.0,0.0,0.0,0.0,0.0,0.0,0.0,0.0,0.0,0.0,0.0,0.0,0.0,0.0,0.0,0.0,0.0,0.0,0.0,0.0,0.0,0.0,0.0,0.0,0.0,0.0,0.0,0.0,0.0,0.0,0.0,0.0,0.0,0.0,0.0,0.0,0.0,0.0,0.0,0.0,0.0,0.0,0.0,0.0,0.0,0.0,0.0,0.0,0.0,0.0,0.0,0.0,0.0,0.0,0.0,0.0,0.0,0.0,0.0,0.0,0.0,0.0,0.0,0.0,0.0,0.0,0.0,0.0,0.0,0.0,0.0,0.0,0.0,0.0,0.0,0.0,0.0,0.0,0.0,0.0,0.0,0.0,0.0,0.0,0.0,0.0,0.0,0.0,0.0,0.0,0.0,0.0,0.0,0.0,0.0,0.0,0.0,0.0,0.0,0.0,0.0,0.0,0.0,0.0,0.0,0.0,0.0,0.0,0.0,0.0,0.0,0.0,0.0,0.0,0.0,0.0,0.0,0.0,0.0,0.0,0.0,0.0,0.0,0.0,0.0,0.0,0.0,0.0,0.0,0.0,0.0,0.0,0.0,0.0,0.0,0.0,0.0,0.0,0.0,0.0,0.0,0.0,0.0,0.0,0.0,0.0,0.0,0.0,0.0,0.0,0.0,0.0,0.0,0.0,0.0,0.0,0.0,0.0,0.0,0.0,0.0,0.0,0.0,0.0,0.0,0.0,0.0,0.0,0.0,0.0,0.0,0.0,0.0,0.0,0.0,0.0,0.0,0.0,0.0,0.0,0.0,0.0,0.0,0.0,0.0,0.0,0.0,0.0,0.0,0.0,0.0,0.0,0.0,0.0,0.0,0.0,0.0,0.0,0.0,0.0,0.0,0.0,0.0,0.0,0.0,0.0,0.0,0.0,0.0,0.0,0.0,0.0,0.0,0.0,0.0,0.0,0.0,0.0,0.0,0.0,0.0,0.0,0.0,0.0,0.0,0.0,0.0,0.0,0.0,0.0,0.0,0.0,0.0,0.0,0.0,0.0,0.0,0.0,0.0,0.0,0.0,0.0,0.0,0.0,0.0,0.0,0.0,0.0,0.0,0.0,0.0,0.0,0.0,0.0,0.0,0.0,0.0,0.0,0.0,0.0,0.0,0.0,0.0,0.0,0.0,0.0,0.0,0.0,0.0,0.0,0.0,0.0,0.0,0.0,0.0,0.0,0.0,0.0,0.0,0.0,0.0,0.0,0.0,0.0,0.0,0.0,0.0,0.0,0.0,0.0,0.0,0.0,0.0,0.0,0.0,0.0,0.0,0.0,0.0,0.0,0.0,0.0,0.0,0.0,0.0,0.0,0.0,0.0,0.0,0.0,0.0,0.0,0.0,0.0,0.0,0.0,0.0,0.0,0.0,0.0,0.0,0.0,0.0,0.0,0.0,0.0,0.0,0.0,0.0,0.0,0.0,0.0,0.0,0.0,0.0,0.0,0.0,0.0,0.0,0.0,0.0,0.0,0.0,0.0,0.0,0.0,0.0,0.0,0.0,0.0,0.0,0.0,0.0,0.0,0.0,0.0,0.0,0.0,0.0,0.0,0.0,0.0,0.0,0.0,0.0,0.0,0.0,0.0,0.0,0.0,0.0,0.0,0.0,0.0,0.0,0.0,0.0,0.0,0.0,0.0,0.0,0.0,0.0,0.0,0.0,0.0,0.0,0.0,0.0,0.0,0.0,0.0,0.0,0.0,0.0,0.0,0.0,0.0,0.0,0.0,0.0,0.0,0.0,0.0,0.0,0.0,0.0,0.0,0.0,0.0,0.0,0.0,0.0,0.0,0.0,0.0,0.0,0.0,0.0,0.0,0.0,0.0,0.0,0.0,0.0,0.0,0.0,0.0,0.0,0.0,0.0,0.0,0.0,0.0,0.0,0.0,0.0,0.0,0.0,0.0,0.0,0.0,0.0,0.0,0.0,0.0,0.0,0.0,0.0,0.0,0.0,0.0,0.0,0.0,0.0,0.0,0.0,0.0,0.0,0.0,0.0,0.0,0.0,0.0,0.0,0.0,0.0,0.0,0.0,0.0,0.0,0.0,0.0,0.0,0.0,0.0,0.0,0.0,0.0,0.0,0.0,0.0,0.0,0.0,0.0,0.0,0.0,0.0,0.0,0.0,0.0,0.0,0.0,0.0,0.0,0.0,0.0,0.0,0.0,0.0,0.0,0.0,0.0,0.0,0.0,0.0,0.0,0.0,0.0,0.0,0.0,0.0,0.0,0.0,0.0,0.0,0.0,0.0,0.0,0.0,0.0,0.0,0.0,0.0,0.0,0.0,0.0,0.0,0.0,0.0,0.0,0.0,0.0,0.0,0.0,0.0,0.0,0.0,0.0,0.0,0.0,0.0,0.0,0.0,0.0,0.0,0.0,0.0,0.0,0.0,0.0,0.0,0.0,0.0,0.0,0.0,0.0,0.0,0.0,0.0,0.0,0.0,0.0,0.0,0.0,0.0,0.0,0.0,0.0,0.0,0.0,0.0,0.0,0.0,0.0,0.0,0.0,0.0,0.0,0.0,0.0,0.0,0.0,0.0,0.0,0.0,0.0,0.0,0.0,0.0,0.0,0.0,0.0,0.0,0.0,0.0,0.0,0.0,0.6047,0.6173,0.6293,0.63,0.63,0.63,0.0,0.0,0.0,0.0,0.0,0.9324,0.8347,0.9026,1.1583,1.1182,1.1661,1.3005,1.2812,1.2659,1.2543,0.0,0.0,0.0,0.0,0.0,0.0,0.0,0.0,0.0,0.0,0.0,0.0,0.0,0.0,0.0,0.0,0.0,0.0,0.0,0.0,0.0,0.0,0.0,0.0,0.0,0.0,0.0,0.0,0.0,0.0,0.0,0.0,0.0,0.0,0.0,0.0,0.0,0.0,0.0,0.0,0.0,0.0,0.0,0.0,0.0,0.0,0.0,0.0,0.0,0.0,0.0,0.0,0.0,0.0,0.0,0.0,0.0,0.0,0.0,0.0,0.0,0.0,0.0,0.0,0.0,0.0,0.0,0.0,0.0,0.0,0.0,0.0,0.0,0.0,0.0,0.0,0.0,0.0,0.0,0.0,0.0,0.0,0.0,0.0,0.0,0.0,0.0,0.0,0.0,0.0,0.0,0.0,0.0,0.5861,0.5976,0.6169,0.63,0.63,0.63,0.63,0.63,0.63,0.0,0.0,0.0,0.6756,0.7783,0.7783,0.8703,1.0585,1.1093,1.2018,1.3367,1.3367,1.3227,1.3005,1.2619,0.0,0.0,0.0,0.0,0.0,0.0,0.0,0.0,0.0,0.0,0.0,0.0,0.0,0.0,0.0,0.0,0.0,0.0,0.0,0.0,0.0,0.0,0.0,0.0,0.0,0.0,0.0,0.0,0.0,0.0,0.0,0.0,0.0,0.0,0.0,0.0,0.0,0.0,0.0,0.0,0.0,0.0,0.0,0.0,0.0,0.0,0.0,0.0,0.0,0.0,0.0,0.0,0.0,0.0,0.0,0.0,0.0,0.0,0.0,0.0,0.0,0.0,0.0,0.0,0.0173,0.0,0.0,0.0,0.0,0.0,0.0,0.0,0.0,0.0,0.0,0.0,0.0,0.0,0.0,0.0,0.0,0.0,0.0,0.0,0.0,0.0,0.0,0.0,0.0,0.0,0.0,0.0,0.5861,0.5976,0.6169,0.63,0.63,0.63,0.63,0.63,0.63,0.63,0.63,0.63,0.6756,0.7783,0.7783,0.8433,0.9686,1.1123,1.2531,1.3968,1.3968,1.3948,1.3888,1.3333,1.2939,1.2723,0.0,0.0,0.0,0.0,0.0,0.0,0.0,0.0,0.0,0.0,0.0,0.0,0.0,0.0,0.0,0.0,0.0,0.0,0.0,0.0,0.0,0.0,0.0,0.0,0.0,0.0,0.0,0.0,0.0,0.0,0.0,0.0,0.0,0.0,0.0,0.0,0.0,0.0,0.0,0.0,0.0,0.5637,0.5759,0.0,0.0,0.0,0.0,0.0,0.0,0.0,0.0,0.0,0.0,0.0,0.0,0.0,0.0,0.2677,0.2679,0.2257,0.1385,0.1385,0.0885,0.0,0.0,0.0,0.0,0.0,0.0,0.0,0.0,0.0,0.0,0.0,0.0,0.0,0.0,0.0,0.0,0.0,0.0,0.0,0.0,0.0,0.0,0.0,0.0,0.0,0.0,0.0,0.0,0.0,0.633,0.6419,0.6419,0.6497,0.6511,0.6426,0.6419,0.6381,0.6303,0.63,0.6756,0.7783,0.7301,0.8121,1.0248,1.2331,1.3797,1.4626,1.4626,1.4626,1.4569,1.4309,1.3754,1.3006,1.3006,0.0,0.0,0.0,0.0,0.0,0.0,0.0,0.0,0.0,0.0,0.0,0.0,0.0,0.0,0.0,0.0,0.0,0.0,0.0,0.0,0.0,0.0,0.0,0.0,0.0,0.0,0.0,0.0,0.0,0.0,0.0,0.0,0.0,0.0,0.0,0.0,0.0,0.0,0.0,0.5616,0.5766,0.5911,0.5854,0.5776,0.0,0.0,0.0,0.0,0.0,0.0,0.0,0.0,0.0,0.1365,0.1366,0.1353,0.1365,0.1365,0.1131,0.0694,0.0694,0.0449,0.0,0.0,0.0,0.0,0.0,0.0,0.0,0.0,0.0,0.0,0.0,0.0,0.0,0.0,0.0,0.0,0.0,0.0,0.0,0.0,0.0,0.0,0.0,0.0,0.0,0.0,0.0,0.0,0.632,0.6484,0.6569,0.6569,0.6634,0.6634,0.6521,0.6511,0.645,0.6306,0.63,0.6644,0.7403,0.7223,0.85,1.1341,1.3334,1.4661,1.5343,1.5343,1.5343,1.5343,1.5217,1.4536,1.3434,1.3434,1.3213,1.2898,0.0,0.0,0.0,0.0,0.0,0.0,0.0,0.0,0.0,0.0,0.0,0.0,0.0,0.0,0.0,0.0,0.0,0.0,0.0,0.0,0.0,0.0,0.0,0.0,0.0,0.0,0.0,0.0,0.0,0.0,0.0,0.0,0.0,0.0,0.0,0.0,0.0,0.5711,0.5857,0.5976,0.5962,0.5905,0.0,0.0,0.0,0.0,0.0,0.0,0.3843,0.3062,0.2363,0.1751,0.1396,0.1258,0.126,0.0966,0.0673,0.0421,0.0421,0.0252,0.0,0.0,0.0,0.0,0.0,0.0,0.0,0.0,0.0,0.0,0.0,0.0,0.0,0.0,0.0,0.0,0.0,0.0,0.0,0.0,0.0,0.0,0.0,0.0,0.0,0.0,0.0,0.6132,0.647,0.6597,0.6688,0.6688,0.6695,0.6634,0.6521,0.6511,0.645,0.6306,0.63,0.6338,0.6377,0.7934,1.0134,1.2881,1.3476,1.459,1.6206,1.6206,1.6206,1.6199,1.5912,1.5137,1.4041,1.4041,1.3714,1.316,1.2904,0.0,0.0,0.0,0.0,0.0,0.0,0.0,0.0,0.0,0.0,0.0,0.0,0.0,0.0,0.0,0.0,0.0,0.0,0.0,0.0,0.0,0.0,0.0,0.0,0.0,0.0,0.0,0.0,0.0,0.0,0.0,0.0,0.0,0.0,0.0,0.0,0.0,0.0,0.5976,0.6152,0.0,0.0,0.0,0.0,0.5969,0.5939,0.6025,0.6301,0.6278,0.6267,0.6379,0.5258,0.464,0.465,0.3517,0.2472,0.1509,0.1509,0.0966,0.0,0.0,0.0,0.0,0.0,0.0,0.0,0.0,0.0,0.0,0.0,0.0,0.0,0.0,0.0,0.0,0.0,0.0,0.0,0.0,0.0,0.5395,0.5395,0.5395,0.5501,0.5762,0.5935,0.6142,0.648,0.6698,0.6848,0.6848,0.6889,0.6922,0.6776,0.6675,0.6552,0.6443,0.6436,0.6973,0.8066,1.0524,1.242,1.3708,1.5017,1.5947,1.6553,1.6553,1.6553,1.6547,1.644,1.5952,1.5184,1.481,1.4315,1.3768,1.3695,1.3239,0.0,0.0,0.0,0.0,0.0,0.0,0.0,0.0,0.0,0.0,0.0,0.0,0.0,0.0,0.0,0.0,0.0,0.0,0.0,0.0,0.0,0.0,0.0,0.0,0.0,0.0,0.0,0.0,0.0,0.0,0.0,0.0,0.0,0.0,0.0,0.0,0.0,0.5976,0.6166,0.0,0.6183,0.6261,0.6315,0.6315,0.5759,0.5522,0.5778,0.5152,0.4808,0.494,0.4545,0.4308,0.432,0.3912,0.3049,0.1869,0.1869,0.1186,0.0,0.0,0.0,0.0,0.0,0.0,0.0,0.0,0.0,0.0,0.0,0.0,0.0,0.0,0.0,0.0,0.0,0.0,0.0,0.0,0.5395,0.5395,0.5395,0.5395,0.5501,0.5762,0.5935,0.6162,0.6512,0.6776,0.6927,0.7068,0.7163,0.7156,0.6967,0.6905,0.6759,0.6559,0.7038,0.798,0.9369,1.2164,1.385,1.4481,1.6103,1.6901,1.7001,1.7001,1.7001,1.7001,1.6901,1.664,1.6246,1.5758,1.5097,1.4405,1.4168,1.3667,1.3065,0.0,0.0,0.0,0.0,0.0,0.0,0.0,0.0,0.0,0.0,0.0,0.0,0.0,0.0,0.0,0.0,0.0,0.0,0.0,0.0,0.0,0.0,0.0,0.0,0.0,0.0,0.0,0.0,0.0,0.0,0.0,0.0,0.0,0.0,0.0,0.5993,0.6095,0.6288,0.645,0.645,0.6539,0.6647,0.6695,0.6193,0.5938,0.6113,0.5447,0.511,0.5206,0.4838,0.4587,0.4602,0.4224,0.3563,0.2663,0.2663,0.2188,0.1332,0.0905,0.0667,0.0667,0.0191,0.0,0.0,0.0,0.0,0.0,0.0,0.0,0.0,0.0,0.0,0.0,0.0,0.0,0.0,0.5395,0.5395,0.5395,0.5395,0.5395,0.5501,0.5762,0.5935,0.6161,0.6651,0.6837,0.7048,0.7392,0.7415,0.7309,0.7112,0.7098,0.7014,0.6816,0.8161,0.9323,1.0135,1.2634,1.4382,1.5261,1.6581,1.736,1.7582,1.7582,1.7582,1.7569,1.734,1.7206,1.7186,1.684,1.6059,1.5015,1.4382,1.3955,1.3567,0.0,0.0,0.0,0.0,0.0,0.0,0.0,0.0,0.0,0.0,0.0,0.0,0.0,0.0,0.0,0.0,0.0,0.0,0.0,0.0,0.0,0.0,0.0,0.0,0.0,0.0,0.0,0.0,0.0,0.0,0.0,0.0,0.0,0.5817,0.6115,0.631,0.6313,0.6536,0.6715,0.6715,0.6858,0.6964,0.7098,0.7292,0.7444,0.7597,0.7607,0.7607,0.7614,0.6464,0.5889,0.5889,0.4705,0.4091,0.4042,0.4042,0.4043,0.3947,0.2667,0.205,0.2003,0.0668,0.0048,0.0048,0.0,0.0,0.0,0.0,0.0,0.0,0.0,0.0,0.0,0.0,0.0,0.5395,0.5395,0.5395,0.5395,0.5395,0.5395,0.5501,0.5762,0.5935,0.6161,0.6651,0.6837,0.7048,0.7392,0.7415,0.7398,0.7312,0.7204,0.7588,0.8664,0.9332,1.0811,1.3203,1.428,1.5434,1.6671,1.7199,1.7554,1.7582,1.7582,1.7582,1.7582,1.7502,1.74,1.7199,1.7112,1.6714,1.6172,1.5585,1.4923,1.4242,0.0,0.0,0.0,0.0,0.0,0.0,0.0,0.0,0.0,0.0,0.0,0.0,0.0,0.0,0.0,0.0,0.0,0.0,0.0,0.0,0.0,0.0,0.0,0.0,0.0,0.0,0.0,0.0,0.0,0.0,0.0,0.0,0.6173,0.6173,0.6334,0.6494,0.6566,0.6841,0.6974,0.6974,0.7258,0.7431,0.7472,0.7512,0.76,0.7746,0.7753,0.7804,0.7867,0.757,0.7419,0.7419,0.7073,0.6429,0.5443,0.5443,0.4946,0.4005,0.3611,0.3464,0.3364,0.2031,0.1438,0.1387,0.0392,0.0,0.0,0.0,0.0,0.0,0.0,0.0,0.0,0.0,0.5395,0.5395,0.5395,0.5395,0.5395,0.5395,0.5395,0.5501,0.5762,0.5878,0.6129,0.6644,0.678,0.7004,0.7428,0.7453,0.7443,0.7461,0.7965,0.8421,0.8843,1.0224,1.1905,1.3808,1.4676,1.5836,1.738,1.7502,1.7582,1.7582,1.7582,1.7582,1.7582,1.7582,1.7488,1.738,1.738,1.7213,1.686,1.652,1.5778,1.4843,1.4429,1.3901,1.3327,1.2852,1.2492,1.2181,1.1591,0.0,0.0,0.0,0.0,0.0,0.0,0.0,0.0,0.0,0.0,0.0,0.0,0.0,0.0,0.0,0.0,0.0,0.0,0.0,0.0,0.0,0.0,0.0,0.0,0.6264,0.6488,0.6614,0.6702,0.6787,0.6875,0.7149,0.7287,0.7287,0.755,0.7689,0.7689,0.7746,0.7821,0.7902,0.7906,0.7897,0.7985,0.7988,0.7988,0.7988,0.7988,0.7587,0.6833,0.6833,0.6429,0.5672,0.507,0.482,0.0,0.3416,0.2815,0.2761,0.1988,0.1684,0.0,0.0,0.0,0.0,0.0,0.0,0.0,0.0,0.5395,0.5395,0.5395,0.5395,0.5395,0.5395,0.5395,0.5501,0.5762,0.58,0.6023,0.661,0.6692,0.6929,0.7499,0.7441,0.7438,0.759,0.9019,0.9426,0.8542,1.1225,1.2955,1.353,1.4705,1.6039,1.7582,1.7582,1.7582,1.7582,1.7582,1.7582,1.7582,1.7582,1.7582,1.7582,1.7582,1.7435,1.7246,1.7213,1.6536,1.5431,1.4877,1.4279,1.3753,1.3434,1.3133,1.2844,1.2214,0.0,0.0,0.0,0.0,0.0,0.0,0.0,0.0,0.0,0.0,0.0,0.0,0.0,0.0,0.0,0.0,0.0,0.0,0.0,0.0,0.0,0.0,0.0,0.0,0.6478,0.6854,0.7105,0.7159,0.7166,0.7149,0.7448,0.7624,0.7624,0.7753,0.7838,0.7838,0.7914,0.7988,0.7988,0.0,0.0,0.0,0.0,0.7988,0.7988,0.7988,0.7988,0.7988,0.7988,0.7988,0.7939,0.6781,0.6232,0.6129,0.482,0.4218,0.4216,0.4066,0.4016,0.3752,0.1213,0.0144,0.0,0.0,0.0,0.0,0.0,0.5395,0.5395,0.5395,0.5395,0.5395,0.5395,0.5395,0.5501,0.5762,0.58,0.5983,0.6504,0.6627,0.6844,0.7152,0.7316,0.7438,0.759,0.92,1.0614,1.1646,1.362,1.5301,1.6681,1.6957,1.7252,1.7582,1.7582,1.7582,1.7582,1.7582,1.7582,1.7582,1.7582,1.7582,1.7582,1.7582,1.7549,1.7475,1.7293,1.6777,1.6066,1.5712,1.5357,1.4957,1.4195,1.3881,1.3742,1.2898,1.2455,1.2171,1.1877,1.1416,0.0,0.0,0.0,0.0,0.0,0.0,0.0,0.0,0.0,0.0,0.0,0.0,0.0,0.0,0.0,0.0,0.0,0.0,0.0,0.667,0.6879,0.7119,0.7468,0.7611,0.7638,0.7522,0.7665,0.777,0.777,0.7906,0.7944,0.7944,0.7971,0.7988,0.7988,0.7988,0.0,0.7988,0.7988,0.7988,0.7988,0.7988,0.7988,0.7988,0.0,0.0,0.7988,0.7739,0.7637,0.7537,0.6179,0.5627,0.5525,0.4468,0.4016,0.3862,0.2245,0.0947,0.0,0.0,0.0,0.0,0.0,0.5395,0.5395,0.5395,0.5395,0.5395,0.5395,0.5395,0.5477,0.5667,0.5694,0.5837,0.621,0.6318,0.6515,0.6888,0.7197,0.7721,0.839,1.0303,1.1755,1.2572,1.4325,1.5664,1.6493,1.6499,1.6876,1.7582,1.7582,1.7582,1.7582,1.7582,1.7582,1.7582,1.7582,1.7582,1.7582,1.7582,1.7582,1.7569,1.7474,1.7014,1.646,1.6166,1.5778,1.5317,1.4736,1.4429,1.4188,1.3447,1.2999,1.2705,1.2442,1.194,1.1437,0.0,0.0,0.0,0.0,0.0,0.0,0.0,0.0,0.0,0.0,0.0,0.0,0.0,0.0,0.6016,0.6132,0.0,0.6753,0.6862,0.7132,0.7448,0.7675,0.7767,0.7784,0.7712,0.7834,0.7877,0.7877,0.7944,0.7988,0.7988,0.7988,0.7988,0.7988,0.7988,0.7988,0.7988,0.7988,0.7988,0.7988,0.7988,0.7988,0.7988,0.7988,0.7988,0.7988,0.7988,0.7988,0.7939,0.7285,0.6983,0.6933,0.6276,0.5622,0.4922,0.427,0.3167,0.2013,0.2013,0.1602,0.0994,0.0,0.5395,0.5395,0.5395,0.5395,0.5395,0.5395,0.5395,0.545,0.5569,0.5589,0.5691,0.5919,0.5976,0.6161,0.662,0.7255,0.811,0.9251,1.1586,1.2968,1.2997,1.4821,1.5849,1.5849,1.5849,1.6387,1.7582,1.7582,1.7582,1.7582,1.7582,1.7582,1.7582,1.7582,1.7582,1.7582,1.7582,1.7582,1.7582,1.7522,1.7181,1.6673,1.6386,1.5945,1.5438,1.5129,1.477,1.4442,1.3866,1.346,1.3086,1.2938,1.2429,1.1859,1.1583,1.1435,0.0,0.0,0.0,0.0,0.0,0.0,0.0,0.0,0.0,0.7175,0.6315,0.6145,0.6251,0.6403,0.6753,0.7034,0.7048,0.7404,0.7692,0.7834,0.7855,0.7855,0.7855,0.7914,0.7988,0.7988,0.7988,0.7988,0.7988,0.7988,0.7988,0.7988,0.7988,0.8005,0.8032,0.8032,0.8049,0.8073,0.8076,0.8076,0.8076,0.8076,0.8076,0.8076,0.8076,0.8076,0.8073,0.8046,0.8032,0.8032,0.8002,0.7385,0.6381,0.6381,0.5724,0.4718,0.4216,0.3316,0.2413,0.0,0.5395,0.5395,0.5395,0.5395,0.5395,0.5395,0.5395,0.545,0.5569,0.5589,0.565,0.581,0.5912,0.6156,0.6511,0.778,0.8766,0.9279,1.23,1.4222,1.4529,1.636,1.7364,1.7364,1.7364,1.7417,1.7582,1.7582,1.7582,1.7582,1.7582,1.7582,1.7582,1.7582,1.7582,1.7582,1.7582,1.7582,1.7562,1.7353,1.7052,1.6673,1.6386,1.6066,1.5712,1.5164,1.477,1.4469,1.4148,1.3527,1.2878,1.308,1.2565,1.1899,1.1866,1.163,1.1329,1.1069,1.1015,1.0837,0.9965,0.991,0.9668,0.0,0.0,0.7545,0.6797,0.6732,0.6829,0.697,0.7197,0.7407,0.7668,0.7753,0.7841,0.7941,0.7965,0.7965,0.7965,0.7978,0.7988,0.7988,0.7988,0.7988,0.7988,0.7988,0.7988,0.7988,0.7988,0.8102,0.8241,0.8245,0.8306,0.8431,0.8431,0.8431,0.8431,0.8431,0.8431,0.8431,0.8431,0.8431,0.8425,0.8299,0.8245,0.8235,0.8096,0.7889,0.7786,0.7786,0.7686,0.7282,0.4868,0.3915,0.3765,0.0,0.0,0.5395,0.5395,0.5395,0.5395,0.5395,0.5395,0.5419,0.5484,0.5491,0.5515,0.5573,0.5681,0.5823,0.5949,0.7529,0.901,1.0105,1.2631,1.4618,1.5859,1.6844,1.746,1.7582,1.7582,1.7582,1.7582,1.7582,1.7582,1.7582,1.7582,1.7582,1.7582,1.7582,1.7582,1.7582,1.7582,1.7482,1.7373,1.7253,1.6924,1.642,1.6126,1.5832,1.5498,1.4917,1.4516,0.0,1.3734,1.3246,1.2804,1.2938,1.2489,1.1906,1.1906,1.1657,1.1402,1.149,1.1503,1.1514,0.0,1.1598,1.1389,1.0295,0.9508,0.8783,0.8042,0.7414,0.7055,0.7248,0.7468,0.7668,0.0,0.7885,0.7917,0.7982,0.7988,0.7988,0.7988,0.7988,0.7988,0.7988,0.7988,0.7988,0.7988,0.7988,0.7988,0.7988,0.8126,0.8204,0.832,0.8402,0.8421,0.8482,0.8482,0.8482,0.8482,0.8482,0.8482,0.8482,0.8482,0.8482,0.8479,0.8418,0.8394,0.8387,0.8323,0.8248,0.8174,0.8174,0.8119,0.7889,0.6728,0.5822,0.5172,0.0,0.0,0.0,0.5395,0.5395,0.5395,0.5395,0.5395,0.5395,0.5395,0.5395,0.5395,0.5395,0.5693,0.5911,0.5958,0.7526,0.9234,1.0944,1.2736,1.4547,1.6384,1.6827,1.7219,1.7455,1.7514,1.7554,1.7582,1.7582,1.7582,1.7582,1.7582,1.7582,1.7582,1.7582,1.7542,1.7514,1.7514,1.7347,1.7072,1.6991,1.6656,1.6119,1.5825,1.5378,1.487,1.4522,1.4162,1.3768,1.3253,1.2811,1.2435,1.2516,1.2194,1.175,1.175,1.1597,1.1455,1.1826,1.196,0.0,1.2656,1.2666,1.2406,1.1882,1.0903,0.9922,0.9329,0.8696,0.8131,0.7945,0.815,0.8256,0.7914,0.7917,0.7988,0.7988,0.7988,0.7988,0.7988,0.7988,0.7988,0.7988,0.7988,0.7988,0.7988,0.7988,0.8008,0.8102,0.8211,0.8357,0.8387,0.8489,0.8564,0.8608,0.8608,0.8608,0.8608,0.8608,0.8608,0.8608,0.8608,0.8608,0.8604,0.8564,0.8547,0.854,0.8499,0.8421,0.8381,0.8381,0.8262,0.816,0.816,0.745,0.6531,0.0,0.0,0.0,0.0,0.5395,0.5395,0.5395,0.5395,0.5395,0.5395,0.5395,0.5395,0.5395,0.6145,0.6705,0.6852,0.8027,0.9615,1.1569,1.2626,1.4013,1.5771,1.6413,1.6854,1.7206,1.7213,1.7353,1.7582,1.7582,1.7582,1.7582,1.7582,1.7582,1.7582,1.7582,1.7481,1.7213,1.7213,1.7038,1.6693,1.6413,1.6119,1.5812,1.5518,1.4696,1.3686,1.4001,1.3728,1.3186,1.2904,1.2184,1.1482,1.1804,1.1683,1.1409,1.1409,1.1395,1.1455,1.1826,1.2078,1.2365,1.2703,1.2362,1.1922,1.1893,1.1196,1.059,1.0557,1.0777,1.0596,0.9439,0.9536,0.9344,0.8202,0.7985,0.7988,0.7988,0.7988,0.7988,0.7988,0.7988,0.7988,0.0,0.7988,0.7988,0.7988,0.7988,0.8106,0.8255,0.832,0.8401,0.8686,0.8703,0.8774,0.8868,0.8868,0.8868,0.8868,0.8868,0.8868,0.8868,0.8868,0.8868,0.8861,0.8767,0.8703,0.8693,0.8543,0.8479,0.8476,0.8476,0.8472,0.8469,0.8469,0.8234,0.7939,0.0,0.0,0.0,0.0,0.0,0.5591,0.617,0.5785,0.5395,0.5395,0.5914,0.0,0.0,0.0,0.0,0.0,0.8338,0.9419,1.0889,1.2552,1.3893,1.4885,1.5705,1.6259,1.661,1.6754,1.6901,1.7001,1.7001,1.7001,1.7001,1.7001,1.7001,1.7001,1.7001,1.6947,1.684,1.6697,1.6393,1.6099,1.5805,1.5284,1.4643,1.4299,1.3741,1.3013,0.0,1.2522,1.2278,1.1971,1.167,1.1409,1.1543,1.1376,1.1176,1.1335,1.1668,1.2071,1.2409,1.2672,1.2973,1.3267,1.3341,1.3371,1.3371,1.2493,1.1724,1.1724,1.1148,1.0313,0.9352,0.9167,0.8893,0.799,0.7889,0.7874,0.7975,0.7988,0.7988,0.7988,0.7988,0.0,0.0,0.0,0.0,0.7988,0.7988,0.8106,0.8313,0.836,0.8503,0.8703,0.8808,0.8831,0.8885,0.8885,0.8885,0.8885,0.8885,0.8885,0.8885,0.8885,0.8885,0.8878,0.8828,0.8807,0.8804,0.8808,0.8723,0.8632,0.8632,0.857,0.8482,0.8482,0.8418,0.8319,0.0,0.0,0.0,0.0,0.0,0.0,0.0,0.0,0.0,0.0,0.0,0.0,0.0,0.0,0.0,0.0,0.0,0.9519,1.0791,1.1916,1.2948,1.3861,1.4585,1.5184,1.5531,1.5778,1.5979,1.6079,1.6186,1.6239,1.6239,1.6346,1.6393,1.6393,1.6393,1.6333,1.6226,1.6039,1.5725,1.5291,1.5044,1.4462,1.3741,1.3434,1.2886,0.0,1.1844,1.1611,1.1424,1.1303,1.1202,1.1136,1.1236,1.1209,1.1209,1.1496,1.1924,1.2392,1.2837,1.3133,1.3393,1.3728,1.3948,1.4088,1.4088,1.3512,1.2826,1.2343,1.1977,1.1289,0.9779,0.9558,0.9308,0.8397,0.8014,0.7865,0.7968,0.7988,0.7988,0.7988,0.7988,0.7988,0.0,0.0,0.0,0.7988,0.8092,0.8187,0.8336,0.8482,0.8632,0.8788,0.8834,0.8885,0.8885,0.8885,0.8885,0.8885,0.8885,0.8885,0.8885,0.8885,0.8885,0.8885,0.8885,0.8885,0.8885,0.8885,0.8824,0.8791,0.8791,0.873,0.8645,0.8645,0.8611,0.8543,0.0,0.0,0.0,0.0,0.0,0.0,0.0,0.0,0.0,0.0,0.0,0.0,0.0,0.0,0.0,0.0,0.0,0.0,1.1275,1.0926,1.1284,1.2652,1.3267,1.3728,1.4015,1.4302,1.4589,1.4914,1.515,1.5284,1.5291,1.5565,1.5644,1.5644,1.5644,1.5545,1.5284,1.5271,1.4943,1.4402,1.4115,1.3647,1.3086,1.2831,1.2174,1.1349,1.1349,1.1035,1.0653,1.0882,1.0827,1.0667,1.0922,1.1223,1.1495,1.1866,1.2167,1.2505,1.3093,1.3413,1.3693,1.4015,1.4088,1.4088,1.4088,1.4075,1.3723,1.2431,1.3163,1.3245,1.0721,0.0,1.0487,0.9351,0.8503,0.8049,0.8163,0.8187,0.8187,0.0,0.0,0.0,0.0,0.0,0.0,0.8098,0.0,0.8388,0.8486,0.8632,0.8781,0.8878,0.8885,0.8885,0.8885,0.8885,0.8885,0.8885,0.8885,0.8885,0.8885,0.8885,0.8885,0.8885,0.8885,0.8885,0.8885,0.8885,0.8885,0.8885,0.8885,0.8885,0.8885,0.8885,0.8794,0.8703,0.0,0.0,0.0,0.0,0.0,0.0,0.0,0.0,0.0,0.0,0.0,0.0,0.0,0.0,0.0,0.0,0.0,0.0,1.0736,1.1053,1.136,1.1757,1.2538,1.3045,1.3125,1.3387,1.3581,1.3654,1.3734,1.3768,1.3768,1.3841,1.3881,1.3881,1.3881,1.3834,1.3754,1.3561,1.3373,1.3213,1.2872,1.2405,1.1835,1.179,1.1356,1.0814,1.0814,1.0854,1.0894,1.0754,1.0801,1.0929,1.1223,1.1663,1.2138,1.2469,1.2893,1.3347,1.3761,1.3921,1.3988,1.4068,1.4088,1.4088,1.4088,1.3915,1.3611,1.3279,1.318,1.2726,1.1399,1.1239,0.0,1.0453,1.0398,0.0,1.0875,1.0921,0.0,1.0921,0.0,1.0921,1.0921,1.0166,0.0,0.0,0.8798,0.8381,0.8638,0.8689,0.8781,0.8878,0.8885,0.8885,0.8885,0.8885,0.8885,0.8885,0.8885,0.8885,0.8885,0.8885,0.8885,0.8885,0.8885,0.8885,0.8885,0.8885,0.8885,0.8885,0.8885,0.8885,0.8885,0.8885,0.8858,0.8821,0.0,0.0,0.0,0.0,0.0,0.0,0.0,0.0,0.0,0.0,0.0,0.0,0.0,0.0,0.0,0.0,0.0,0.0,0.0,1.0868,1.1049,1.1049,1.1678,1.2013,1.2013,1.2271,1.2425,1.2425,1.2559,1.2625,1.2625,1.2752,1.2812,1.2812,1.2812,1.2812,1.2799,1.2625,1.2516,0.0,0.0,1.1643,1.1223,1.1096,1.0842,1.0593,1.0593,1.078,1.0982,1.0955,0.0,1.1403,1.157,1.2024,1.2596,1.2904,1.328,1.3666,1.4008,1.4088,1.4088,1.4088,1.4088,1.4055,1.3921,1.372,1.3404,1.2694,1.2668,1.2524,1.1534,1.1448,0.0,0.0,0.0,0.0,1.1836,1.1896,1.1896,0.0,1.2031,0.0,1.2146,1.1637,1.1383,0.0,0.9592,0.8537,0.8703,0.8774,0.8849,0.8881,0.8885,0.8885,0.8885,0.8885,0.8885,0.8885,0.8885,0.8885,0.8885,0.8885,0.8885,0.8885,0.0,0.8885,0.8885,0.8885,0.8885,0.8885,0.8885,0.8885,0.8885,0.8885,0.8885,0.8885,0.0,0.0,0.0,0.0,0.0,0.0,0.0,0.0,0.0,0.0,1.0593,0.0,0.0,0.0,0.0,0.0,0.0,0.0,0.0,0.0,1.0593,1.0593,1.0834,1.0935,1.0935,1.1182,1.1275,1.1275,1.1605,1.1732,1.1739,1.1957,1.2071,1.2071,1.2071,1.2071,1.2071,1.2071,1.1924,1.1705,1.1416,1.1156,1.0909,0.0,1.0593,1.0593,1.0633,1.0841,1.1096,1.139,1.1657,1.1913,1.1953,1.2368,1.2898,1.3133,1.3407,1.372,1.4015,1.4088,1.4088,1.4088,1.4088,1.4008,1.3666,1.3573,1.3138,1.1729,0.0,1.2464,1.1575,1.1567,1.1933,1.2681,0.0,1.1857,1.232,1.2415,1.2431,1.2431,1.2734,1.2927,1.2927,1.3015,1.3137,1.3278,1.0794,0.9219,0.9007,0.9136,0.9099,0.8885,0.8885,0.8885,0.8885,0.8885,0.8885,0.8885,0.8885,0.8885,0.8885,0.8885,0.8885,0.8885,0.0,0.0,0.8885,0.8885,0.8885,0.8885,0.8885,0.8885,0.8885,0.8885,0.8885,0.8885,0.0,0.0,0.0,0.0,0.0,0.0,0.0,0.0,0.0,0.0,1.0593,1.0593,0.0,0.0,0.0,0.0,0.0,0.0,0.0,0.0,0.0,1.0593,1.064,1.0667,1.0667,1.0713,1.0747,1.0747,1.0794,1.0821,1.0821,1.0874,1.0894,1.0894,1.0894,1.0894,1.0894,1.0894,1.0868,1.0814,1.076,1.0713,1.066,1.0613,0.0,0.0,1.0861,1.1102,1.1396,1.169,1.1859,1.1946,1.2151,1.2639,1.314,1.32,1.3587,1.4021,1.4075,1.4088,1.4088,1.4088,1.4088,1.4008,1.3666,1.342,0.0,0.0,1.2432,1.2414,1.2508,1.2549,1.2831,1.3714,1.392,1.4116,1.4724,1.4999,1.5099,0.0,1.5396,1.5624,0.0,0.0,0.0,0.0,0.0,0.0,1.0732,1.071,1.0131,0.8937,0.8885,0.8885,0.8885,0.8885,0.8885,0.8885,0.8885,0.8885,0.8885,0.8885,0.8885,0.8885,0.0,0.0,0.8885,0.8885,0.8885,0.8885,0.8885,0.8885,0.8885,0.8885,0.8885,0.8885,0.0,0.0,0.0,0.0,0.0,0.0,0.0,1.0593,1.0593,1.0593,1.0593,1.0593,1.0593,1.0593,1.0593,0.0,0.0,0.0,0.0,0.0,0.0,0.0,1.0593,1.0593,1.0593,1.0593,1.0593,1.0593,0.0,1.0593,1.0593,0.0,0.0,0.0,1.0593,1.0593,1.0593,1.0593,1.0593,1.0593,1.0593,1.0593,0.0,0.0,0.0,0.0,0.0,1.0955,1.1223,1.1363,1.1516,1.1717,1.2158,1.2719,1.318,1.3019,1.3541,1.4055,1.3901,1.3968,1.4088,1.4088,1.4088,1.3968,1.352,0.0,0.0,0.0,1.2051,1.1984,1.2432,1.2556,0.0,1.3707,1.4229,1.4676,1.511,1.5551,0.0,1.5784,1.6092,0.0,0.0,0.0,0.0,0.0,0.0,0.0,1.2349,1.1542,1.0781,1.0076,0.932,0.8885,0.8885,0.8885,0.8885,0.8885,0.8885,0.8885,0.8885,0.8885,0.8885,0.8885,0.0,0.0,0.8885,0.8885,0.8885,0.8885,0.8885,0.8885,0.8885,0.8885,0.8885,0.8885,0.0,0.0,0.0,0.0,0.0,0.0,1.0593,1.0593,1.0593,1.0593,1.0593,1.0593,1.0593,1.0593,1.0593,0.0,0.0,0.0,0.0,0.0,0.0,0.0,0.0,1.0593,1.0593,0.0,0.0,0.0,1.0593,0.0,0.0,0.0,0.0,0.0,0.0,0.0,0.0,1.0681,1.0713,0.0,0.0,0.0,0.0,0.0,0.0,0.0,0.0,1.078,1.0995,1.0995,1.1182,1.1469,1.1971,1.2485,1.2899,1.2817,1.3333,1.3874,1.3726,1.3908,1.4088,1.4088,1.4088,1.3915,1.3267,1.2965,0.0,1.1946,1.159,1.1568,1.2191,1.2251,1.2505,0.0,1.3893,1.4389,1.481,1.5317,1.5691,0.0,1.6092,0.0,0.0,0.0,0.0,0.0,0.0,0.0,0.0,1.2349,1.1592,1.1592,1.0457,0.986,0.986,0.986,0.9699,0.9372,0.9372,0.921,0.8885,0.8885,0.8885,0.8885,0.0,0.0,0.0,0.8885,0.8885,0.8885,0.8885,0.8885,0.8885,0.8885,0.8885,0.8885,0.0,0.0,0.0,0.0,0.0,0.0,1.0593,1.0593,1.0593,1.0593,1.0593,1.0593,1.0593,1.0593,1.0593,0.0,0.0,0.0,0.0,0.0,0.0,0.0,0.0,0.0,0.0,0.0,0.0,0.0,0.0,0.0,0.0,0.0,0.0,0.0,0.0,0.0,0.0,0.0,0.0,0.0,0.0,0.0,0.0,0.0,0.0,0.0,0.0,0.0,1.0995,1.0995,0.0,1.1402,1.1455,1.173,1.2127,1.2636,0.0,0.0,1.3908,1.4068,1.4088,1.4088,1.4088,1.3868,1.3013,0.0,1.2543,1.1643,1.1409,1.1568,1.2191,1.2084,1.2204,1.3106,1.3293,1.3621,1.4442,1.4843,1.5237,1.5718,0.0,0.0,0.0,0.0,0.0,0.0,0.0,0.0,0.0,1.3857,1.3107,1.3107,1.2994,1.2886,1.2886,1.2886,1.224,1.0891,1.0891,1.0186,0.8885,0.8885,0.8885,0.8885,0.0,0.0,0.0,0.8885,0.8885,0.8885,0.8885,0.8885,0.8885,0.8885,0.8885,0.8885,0.0,0.0,0.0,0.0,0.0,0.0,1.0593,1.0593,1.0593,1.0593,1.0593,1.0593,1.0593,1.0593,1.0593,1.0593,0.0,0.0,0.0,0.0,0.0,0.0,0.0,0.0,0.0,0.0,1.0593,1.0593,0.0,0.0,0.0,0.0,0.0,0.0,0.0,0.0,0.0,0.0,0.0,0.0,0.0,0.0,0.0,0.0,0.0,0.0,0.0,0.0,1.0767,1.0767,0.0,0.0,1.0909,1.1022,0.0,0.0,1.2418,1.3025,1.3259,1.3547,1.3861,1.4041,1.3955,1.3634,1.2958,0.0,1.2053,1.1309,1.1022,1.1029,1.1436,1.1563,1.1777,1.2318,1.2859,1.3454,1.4162,1.4713,1.5177,0.0,0.0,0.0,0.0,0.0,0.0,0.0,0.0,0.0,0.0,1.5364,1.4556,1.4556,1.375,1.3318,1.3318,1.3318,1.2994,1.2403,1.1538,1.0781,1.0186,0.932,0.8885,0.8885,0.0,0.0,0.0,0.8885,0.8885,0.8885,0.8885,0.8885,0.8885,0.8885,0.8885,0.8885,0.0,0.0,0.0,0.0,0.0,1.0593,1.0593,1.0593,1.0593,1.0593,1.0593,1.0593,1.0593,1.0593,1.0593,1.0593,1.0593,0.0,0.0,0.0,0.0,0.0,0.0,0.0,0.0,0.0,1.0593,1.0593,1.0593,1.0593,0.0,0.0,0.0,0.0,0.0,0.0,0.0,0.0,0.0,0.0,0.0,0.0,0.0,0.0,0.0,0.0,0.0,0.0,0.0,0.0,0.0,1.0593,1.0593,1.0593,1.0707,1.1256,1.1864,1.2449,1.2717,1.3092,1.3454,1.3754,1.3601,1.322,0.0,0.0,1.157,1.0989,1.0734,1.068,1.0942,1.1229,1.1523,1.1859,1.2472,1.318,1.3861,1.4389,1.4923,0.0,0.0,0.0,0.0,0.0,0.0,0.0,0.0,0.0,0.0,1.6605,1.6062,1.6062,1.5097,1.4561,1.4561,1.4561,1.4341,1.3911,1.2886,1.2132,1.1701,1.0676,0.997,0.0,0.0,0.0,0.0,0.8885,0.9154,0.9533,0.9533,0.9805,1.0131,0.9699,0.9809,1.008,0.0,0.0,0.0,0.0,0.0,0.0,1.0593,1.0593,1.0593,1.0593,1.0593,1.0593,1.0593,1.0593,1.0593,1.0593,1.0593,0.0,0.0,0.0,0.0,0.0,0.0,0.0,0.0,0.0,1.0593,1.0593,1.0593,1.0593,1.0593,1.0593,0.0,0.0,0.0,0.0,0.0,0.0,0.0,0.0,0.0,0.0,1.3009,0.0,0.0,0.0,0.0,0.0,0.0,0.0,0.0,0.0,0.0,1.0593,1.0707,1.1256,1.1395,1.163,1.2543,1.279,1.2871,1.314,1.3025,1.2636,1.2047,1.165,1.1269,1.0713,1.0593,1.068,1.0942,1.1229,1.1523,1.1859,1.2118,1.2625,1.348,1.3908,0.0,0.0,0.0,0.0,0.0,0.0,0.0,0.0,0.0,0.0,0.0,0.0,1.7582,1.7582,1.7582,1.7582,1.7582,1.7582,1.6823,1.5364,1.5364,1.4609,1.327,1.3264,0.0,0.0,0.0,0.0,0.0,0.8885,0.9754,1.1055,1.1055,1.1969,1.3102,1.1592,1.2023,1.2837,0.0,0.0,0.0,0.0,0.0,0.0,1.0593,1.0593,1.0593,1.0593,1.0593,1.0593,1.0593,1.0593,1.0593,1.0593,1.0593,0.0,0.0,0.0,0.0,0.0,0.0,0.0,0.0,1.0593,1.0593,1.0593,1.0593,1.0593,1.0593,1.0593,1.0895,1.1469,0.0,0.0,0.0,0.0,0.0,0.0,0.0,1.3666,1.451,0.0,0.0,0.0,0.0,0.0,0.0,0.0,0.0,0.0,0.0,0.0,0.0,1.0814,1.0975,1.1236,1.171,1.2027,1.2254,1.2518,1.2365,1.208,1.1657,1.1343,1.1022,1.0673,1.0593,1.062,1.0713,1.1096,1.1422,1.155,1.1984,1.2545,0.0,0.0,0.0,0.0,0.0,0.0,0.0,0.0,0.0,0.0,0.0,0.0,0.0,0.0,1.7582,1.7582,1.7582,1.7582,1.7582,1.7582,1.7364,1.6876,1.5902,1.515,1.4716,1.375,0.0,0.0,0.0,0.0,0.0,1.1919,1.2186,1.262,1.262,1.2886,1.3264,1.2778,1.2886,1.3161,0.0,0.0,0.0,0.0,0.0,0.0,1.1021,1.1045,1.117,1.1483,1.1514,1.1439,1.1285,1.1278,1.1227,1.1029,1.0892,0.0,0.0,0.0,0.0,0.0,0.0,0.0,1.0593,1.0593,1.0744,1.1045,1.1045,1.1202,1.1514,1.1514,1.1779,1.2297,1.3092,1.3726,0.0,0.0,0.0,0.0,1.4124,1.451,1.5294,0.0,0.0,0.0,0.0,0.0,0.0,0.0,0.0,0.0,0.0,0.0,0.0,0.0,1.1178,1.1298,1.1249,1.1396,1.161,1.1897,1.175,1.1524,1.1303,1.1035,1.0814,1.0626,1.0593,1.0593,1.0593,1.1035,1.1389,1.1389,1.1917,1.2518,0.0,0.0,0.0,0.0,0.0,0.0,0.0,0.0,0.0,0.0,0.0,0.0,0.0,0.0,1.7582,1.7582,1.7582,1.7582,1.7582,1.7582,1.7582,1.7582,1.6658,1.6227,1.6227,0.0,0.0,0.0,0.0,0.0,0.0,1.3318,1.3588,1.4073,1.4073,1.4449,1.4829,1.4288,1.4449,1.4776,0.0,0.0,0.0,0.0,0.0,0.0,0.0,1.1888,1.2128,1.2854,1.2967,1.2805,1.2393,1.2352,1.2147,1.1676,1.1295,0.0,0.0,0.0,0.0,0.0,0.0,0.0,1.0593,1.0649,1.1045,1.1803,1.1865,1.2266,1.3009,1.3009,1.3039,1.313,1.3885,1.4234,1.4323,1.5079,1.541,1.541,1.541,1.541,0.0,0.0,0.0,0.0,0.0,0.0,0.0,0.0,0.0,0.0,0.0,0.0,0.0,0.0,0.0,0.0,0.0,1.1054,1.1121,1.1364,1.1256,1.1054,1.1054,1.0819,0.0,1.0593,1.0593,1.0593,1.0593,1.1035,1.1389,1.1389,1.1917,1.2505,0.0,0.0,0.0,0.0,0.0,0.0,0.0,0.0,0.0,0.0,0.0,0.0,0.0,0.0,0.0,1.7582,1.7582,1.7582,1.7582,1.7582,1.7582,1.7582,1.7582,1.7582,1.7582,0.0,0.0,0.0,0.0,0.0,0.0,1.3588,1.4395,1.5577,1.5577,1.6387,1.7417,1.6062,1.644,1.7206,0.0,0.0,0.0,0.0,0.0,0.0,0.0,0.0,0.0,0.0,1.2545,1.2368,1.1906,1.1866,1.1607,0.0,0.0,0.0,0.0,0.0,0.0,0.0,0.0,0.0,1.0593,1.1195,1.1617,1.1803,1.242,1.2826,1.3009,1.3009,1.3342,1.3944,1.4115,1.454,1.5138,1.5323,1.541,1.541,1.541,1.541,0.0,0.0,0.0,0.0,1.541,1.5294,0.0,0.0,0.0,0.0,0.0,0.0,0.0,0.0,1.2734,1.2566,1.1807,0.0,1.1631,1.1704,1.166,1.1609,0.0,1.1094,1.0593,1.0593,1.0593,1.0593,1.0593,1.1035,1.1389,1.1389,1.1917,1.2432,0.0,0.0,0.0,0.0,0.0,0.0,0.0,0.0,0.0,0.0,0.0,0.0,0.0,0.0,0.0,1.7582,1.7582,1.7582,1.7582,1.7582,1.7582,1.7582,1.7582,1.7582,1.7582,0.0,0.0,0.0,0.0,0.0,1.6605,1.6605,1.677,1.7094,1.7094,1.7305,1.7582,1.7206,1.7312,1.7477,0.0,0.0,0.0,0.0,0.0,0.0,0.0,0.0,0.0,0.0,1.3484,1.3261,1.2591,1.2529,1.2298,0.0,0.0,0.0,0.0,0.0,0.0,0.0,0.0,1.1132,1.1132,1.1927,1.2535,1.2901,1.3334,1.3726,1.4085,1.4085,1.4323,1.4746,1.4746,1.4991,1.541,1.541,1.541,1.541,1.541,0.0,0.0,0.0,0.0,0.0,1.541,1.541,0.0,1.4903,1.451,1.4115,0.0,0.0,0.0,0.0,1.3545,1.3455,1.3023,1.2351,1.1803,1.1803,1.1803,1.1803,1.1803,1.1469,1.1045,1.0681,1.0593,1.0633,1.0767,1.1122,1.1435,1.1603,1.2124,0.0,0.0,0.0,0.0,0.0,0.0,0.0,0.0,0.0,0.0,0.0,0.0,0.0,0.0,0.0,0.0,0.0,1.7582,1.7582,1.7582,1.7582,1.7582,1.7582,1.7582,1.7582,1.7582,0.0,0.0,0.0,0.0,0.0,1.7582,1.7582,1.7582,1.7582,1.7582,1.7582,1.7582,1.7582,1.7582,1.7582,0.0,0.0,0.0,0.0,0.0,0.0,0.0,0.0,0.0,0.0,0.0,0.0,0.0,0.0,0.0,0.0,0.0,0.0,0.0,0.0,0.0,0.0,1.1343,1.1905,1.1981,1.2757,1.3515,1.4213,1.4332,1.4717,1.541,1.541,1.541,1.541,1.541,1.541,1.541,1.541,1.541,1.541,1.541,0.0,0.0,0.0,0.0,0.0,0.0,0.0,0.0,1.541,1.4962,1.4392,1.4392,0.0,0.0,0.0,0.0,0.0,1.4234,1.3205,1.2166,1.2166,1.2074,1.1981,1.1981,1.1888,1.1624,1.0926,1.0936,1.1092,1.1233,1.1533,0.0,0.0,0.0,0.0,0.0,0.0,0.0,0.0,0.0,0.0,0.0,0.0,0.0,0.0,0.0,0.0,0.0,0.0,0.0,0.0,1.7448,1.7448,1.7448,1.7535,1.7582,1.7582,1.7582,1.7582,1.7582,1.7582,0.0,0.0,0.0,0.0,1.7582,1.7582,1.7582,1.7582,1.7582,1.7582,1.7582,1.7582,1.7582,1.7582,0.0,0.0,0.0,0.0,0.0,0.0,0.0,0.0,0.0,0.0,0.0,0.0,0.0,0.0,0.0,0.0,0.0,0.0,0.0,0.0,0.0,1.1632,1.2059,1.2465,1.2818,1.3606,1.4085,1.4213,1.4874,1.5294,1.541,1.541,1.541,1.541,1.541,1.541,1.541,1.541,1.541,1.541,1.541,0.0,0.0,0.0,0.0,0.0,0.0,0.0,0.0,1.541,1.5323,1.5235,1.5235,0.0,0.0,0.0,0.0,0.0,1.4392,1.4025,1.3846,1.3846,1.3334,1.2826,1.2826,1.2297,1.1772,1.1648,1.2429,1.2996,1.2546,1.2949,1.3201,0.0,0.0,0.0,0.0,0.0,0.0,0.0,0.0,0.0,0.0,0.0,0.0,0.0,0.0,0.0,0.0,0.0,0.0,0.0,0.0,1.684,1.684,1.7335,1.7582,1.7582,1.7582,1.7582,1.7582,1.7582,1.7582,0.0,0.0,1.7582,1.7582,1.7582,1.7582,1.7582,1.7582,1.7582,1.7582,1.7582,1.7582,1.7582,0.0,0.0,0.0,0.0,0.0,0.0,0.0,0.0,0.0,0.0,0.0,0.0,0.0,0.0,0.0,0.0,0.0,0.0,0.0,0.0,1.2443,1.3068,1.3231,1.342,1.3627,1.4451,1.4844,1.4844,1.5235,1.541,1.541,1.541,1.541,1.541,1.541,1.541,1.541,1.541,1.541,1.541,0.0,0.0,0.0,0.0,0.0,0.0,0.0,0.0,0.0,0.0,1.541,1.541,1.541,0.0,0.0,0.0,0.0,0.0,1.4962,1.4844,1.4921,1.5147,1.4427,1.3515,1.31,1.3061,1.305,1.2813,1.3201,1.3542,0.0,0.0,1.3659,1.35,0.0,0.0,0.0,0.0,0.0,0.0,0.0,0.0,0.0,0.0,0.0,0.0,0.0,0.0,0.0,0.0,0.0,0.0,0.0,1.6707,1.6707,1.6974,1.7108,1.7108,1.7108,1.7194,1.74,1.74,1.7435,0.0,0.0,1.7582,1.7582,1.7582,1.7582,1.7582,1.7582,1.7582,1.7582,1.7582,1.7582,1.7582,0.0,0.0,0.0,0.0,0.0,0.0,0.0,0.0,0.0,0.0,0.0,0.0,0.0,0.0,0.0,0.0,0.0,0.0,0.0,1.2905,1.3262,1.4075,1.4104,1.4219,1.4492,1.5079,1.541,1.541,1.541,1.541,1.541,1.541,1.541,1.541,1.541,1.541,1.541,1.541,1.541,1.541,0.0,0.0,0.0,0.0,0.0,0.0,0.0,0.0,0.0,0.0,0.0,0.0,0.0,0.0,0.0,1.541,1.541,1.541,1.541,1.541,1.543,1.5611,1.4995,1.4243,1.3805,1.4188,1.4573,1.4399,1.4382,0.0,0.0,1.4052,0.0,0.0,0.0,0.0,0.0,0.0,0.0,0.0,0.0,0.0,0.0,0.0,0.0,0.0,0.0,0.0,0.0,0.0,0.0,0.0,0.0,0.0,1.65,1.65,1.6573,1.6707,1.6707,1.682,1.7099,1.7099,1.7259,1.7534,1.7534,1.7522,1.7582,1.7582,1.7582,1.7582,1.7582,1.7582,1.7582,1.7582,1.7582,1.7582,0.0,0.0,0.0,0.0,0.0,0.0,0.0,0.0,0.0,0.0,0.0,0.0,0.0,0.0,0.0,0.0,0.0,0.0,0.0,1.2905,1.3262,1.4075,1.4104,1.4476,1.5303,1.5381,1.541,1.541,1.541,1.541,1.541,1.541,1.541,1.541,1.541,1.541,1.541,1.541,1.541,1.541,1.541,0.0,0.0,0.0,0.0,0.0,0.0,0.0,0.0,0.0,0.0,0.0,0.0,0.0,1.541,1.541,1.541,1.541,1.541,1.541,1.5235,1.4517,1.4602,1.5015,1.5707,1.5903,1.6096,1.649,1.6651,0.0,0.0,1.5079,0.0,0.0,0.0,0.0,0.0,0.0,0.0,0.0,0.0,0.0,0.0,0.0,0.0,0.0,0.0,0.0,0.0,0.0,0.0,0.0,0.0,0.0,1.5844,1.5844,1.6166,1.6707,1.6707,1.6714,1.674,1.674,1.6901,1.7233,1.7233,1.7387,1.7582,1.7582,1.7582,1.7582,1.7582,1.7582,1.7582,1.7582,1.7582,1.7582,0.0,0.0,0.0,0.0,0.0,0.0,0.0,0.0,0.0,0.0,0.0,1.2905,1.2905,0.0,0.0,0.0,0.0,0.0,0.0,1.2905,1.3262,1.4075,1.4104,1.4504,1.5391,1.541,1.541,1.541,1.541,1.541,1.541,1.541,1.541,1.541,1.541,1.541,1.541,1.541,1.541,1.541,1.541,1.541,0.0,0.0,0.0,0.0,0.0,0.0,0.0,0.0,1.541,1.541,1.541,1.541,1.541,1.541,1.541,1.541,1.541,1.5605,1.5819,1.5785,1.6103,1.633,1.583,1.6346,1.7116,1.7792,1.7944,0.0,0.0,0.0,0.0,0.0,0.0,0.0,0.0,0.0,0.0,0.0,0.0,0.0,0.0,0.0,0.0,0.0,0.0,0.0,0.0,0.0,0.0,0.0,0.0,0.0,0.0,1.5784,1.5891,1.6159,1.6159,1.6259,1.6433,1.6433,1.6593,1.6874,1.6874,1.7041,1.7367,1.7367,1.7474,1.7582,1.7582,1.7582,1.7582,1.7582,1.7582,1.7582,0.0,0.0,0.0,0.0,0.0,0.0,0.0,0.0,1.3802,0.0,0.0,0.0,0.0,1.2905,0.0,0.0,0.0,0.0,1.2905,1.3032,1.3389,1.4075,1.4241,1.465,1.5391,1.541,1.541,1.541,1.541,1.541,1.541,1.541,1.541,1.541,1.541,1.541,1.541,1.541,1.541,1.541,1.541,1.541,0.0,0.0,0.0,0.0,0.0,0.0,0.0,0.0,1.541,1.541,1.541,1.541,1.541,1.541,1.541,1.541,1.541,1.5732,1.6202,1.659,1.7158,1.7435,1.6835,1.7269,1.8018,1.8831,1.8956,1.8599,1.761,0.0,0.0,0.0,0.0,0.0,0.0,0.0,0.0,0.0,0.0,0.0,0.0,0.0,0.0,0.0,0.0,0.0,0.0,0.0,0.0,0.0,0.0,0.0,0.0,1.5784,1.5784,1.5784,1.5784,1.5939,1.6132,1.6132,1.6293,1.6567,1.6567,1.674,1.7058,1.7058,1.7233,1.7455,1.7549,1.7582,1.7582,1.7582,1.7582,1.7582,0.0,0.0,0.0,0.0,0.0,0.0,0.0,0.0,1.3802,1.3013,1.2905,0.0,0.0,0.0,0.0,0.0,0.0,0.0,1.2905,1.3271,1.3665,1.4085,1.4551,1.498,1.54,1.541,1.541,1.541,1.541,1.541,1.541,1.541,1.541,1.541,1.541,1.541,1.541,1.541,1.541,1.541,1.541,1.541,1.541,0.0,0.0,0.0,0.0,0.0,0.0,0.0,1.541,1.541,1.541,1.541,1.541,1.541,1.541,1.542,1.542,1.5732,1.6212,1.6599,1.735,1.8232,1.9092,1.8955,1.8851,1.9699,1.9754,1.9347,1.8388,0.0,0.0,0.0,0.0,0.0,0.0,0.0,0.0,0.0,0.0,0.0,0.0,0.0,0.0,0.0,0.0,0.0,0.0,0.0,0.0,0.0,0.0,0.0,0.0,1.5784,1.5784,1.5784,1.5784,1.5784,1.5784,1.5784,1.5985,1.6321,1.6321,1.6433,1.67,1.6707,1.6881,1.7233,1.7468,1.7582,1.7582,1.7582,1.7582,1.7582,0.0,0.0,0.0,0.0,0.0,0.0,0.0,0.0,1.3802,1.3013,1.2905,0.0,0.0,0.0,0.0,0.0,0.0,0.0,1.2905,1.3271,1.3665,1.4085,1.4551,1.498,1.54,1.541,1.541,1.541,1.541,1.541,1.541,1.541,1.541,1.541,1.541,1.541,1.541,1.541,1.541,1.541,1.541,1.541,1.541,0.0,0.0,0.0,0.0,0.0,0.0,0.0,0.0,0.0,1.541,1.541,1.541,1.541,1.5625,1.5899,1.5899,1.6447,1.709,1.7519,1.8013,1.8594,1.916,1.9189,1.9258,0.0,2.0844,2.1198,1.9742,0.0,0.0,0.0,0.0,0.0,0.0,0.0,0.0,0.0,0.0,0.0,0.0,0.0,0.0,0.0,0.0,0.0,0.0,0.0,0.0,0.0,0.0,0.0,0.0,0.0,1.5784,1.5784,1.5784,1.5784,1.5784,1.5784,1.5831,1.5965,1.5965,1.6126,1.642,1.662,1.6881,1.7206,1.7293,1.7454,1.7582,1.7582,1.7582,1.7582,0.0,0.0,0.0,0.0,0.0,0.0,1.4475,1.4221,1.387,1.3213,1.3013,1.2905,0.0,0.0,0.0,1.2905,1.3062,0.0,1.3135,1.3682,1.4121,1.4385,1.4805,1.5156,1.5371,1.541,1.541,1.541,1.541,1.541,1.541,1.541,1.541,1.541,1.541,1.541,1.541,1.541,1.541,1.541,1.541,1.541,1.541,0.0,0.0,0.0,0.0,0.0,0.0,0.0,0.0,0.0,1.541,1.541,1.541,1.541,1.5723,1.6095,1.6095,1.6741,1.7529,1.8115,1.8539,1.9053,1.9658,1.9832,0.0,0.0,2.167,2.2258,2.1399,0.0,0.0,0.0,0.0,0.0,0.0,0.0,0.0,0.0,0.0,0.0,0.0,0.0,0.0,0.0,0.0,0.0,0.0,0.0,0.0,0.0,0.0,0.0,0.0,0.0,0.0,1.5784,1.5784,1.5784,1.5784,1.5784,1.5784,1.5784,1.5784,1.5932,1.6119,1.6413,1.664,1.6864,1.6978,1.7199,1.746,1.746,1.7482,1.7582,0.0,0.0,1.541,1.541,0.0,0.0,1.4844,1.4453,1.4016,1.3623,1.3232,1.3023,0.0,0.0,0.0,1.3023,1.334,1.3539,1.3539,1.4336,1.4813,1.4813,1.5186,1.541,1.541,1.541,1.541,1.541,1.541,1.541,1.541,1.541,1.541,1.541,1.541,1.541,1.541,1.541,1.541,1.541,1.541,1.541,1.541,1.541,0.0,0.0,0.0,0.0,0.0,0.0,0.0,0.0,1.541,1.541,1.541,1.541,1.5723,1.6105,1.6144,1.677,1.7598,1.8442,1.9053,1.9666,2.0527,2.0723,2.0938,2.167,0.0,2.2676,0.0,0.0,0.0,0.0,0.0,0.0,0.0,0.0,0.0,0.0,0.0,0.0,0.0,0.0,0.0,0.0,0.0,0.0,0.0,0.0,0.0,0.0,0.0,0.0,0.0,0.0,0.0,0.0,1.5967,1.592,1.5784,1.5784,1.5784,1.5784,1.5784,1.5784,1.5804,1.6119,1.6246,1.6299,1.6567,1.6847,1.7159,1.7159,1.7326,1.7508,0.0,0.0,1.541,1.541,0.0,0.0,1.4844,1.4707,1.4492,1.4026,1.3899,1.3841,1.3841,1.3841,0.0,1.3841,1.3919,1.3968,1.3968,1.4492,1.4813,1.4813,1.5186,1.541,1.541,1.541,1.541,1.541,1.541,1.541,1.541,1.541,1.541,1.541,1.541,1.541,1.541,1.541,1.541,1.541,1.541,1.541,1.541,1.541,1.541,0.0,0.0,0.0,0.0,0.0,0.0,0.0,1.541,1.541,1.541,1.541,1.5723,1.6173,1.6494,1.6982,1.7666,1.8857,1.9727,2.0556,2.1406,2.1602,2.1562,2.1406,2.2194,0.0,0.0,0.0,0.0,0.0,0.0,0.0,0.0,0.0,0.0,0.0,0.0,0.0,0.0,0.0,0.0,0.0,0.0,0.0,0.0,0.0,0.0,0.0,0.0,0.0,1.8718,1.8718,1.8218,0.0,1.7271,1.6756,1.5784,1.5784,1.5784,1.5784,1.5784,1.5784,1.5832,1.5899,1.6059,1.6328,1.6339,1.6547,1.68,1.68,1.684,1.6927,0.0,0.0,0.0,0.0,0.0,0.0,0.0,0.0,1.4463,1.4453,1.4241,1.4104,1.4104,1.4104,0.0,0.0,1.4299,1.4453,1.4453,1.4844,1.5088,1.5088,1.5293,1.541,1.541,1.541,1.541,1.541,1.541,1.541,1.541,1.541,1.541,1.541,1.541,1.541,1.541,1.541,1.541,1.541,1.541,1.541,1.541,1.541,1.541,1.541,1.541,0.0,0.0,0.0,0.0,0.0,0.0,0.0,1.541,1.541,1.5723,1.6193,1.658,1.7051,1.7729,1.8965,1.9969,2.0781,2.1416,2.1738,2.1875,2.1814,0.0,0.0,0.0,0.0,0.0,0.0,0.0,0.0,0.0,0.0,0.0,0.0,0.0,0.0,0.0,0.0,0.0,0.0,0.0,0.0,0.0,0.0,0.0,0.0,0.0,0.0,1.9497,1.9497,1.9177,1.8549,1.8549,1.8226,1.7522,1.6332,1.5784,1.5784,1.5784,1.6157,1.6669,1.6062,1.6618,1.7694,1.6525,1.6621,1.7316,1.674,1.6587,1.6727,0.0,0.0,0.0,0.0,0.0,0.0,0.0,0.0,0.0,1.4844,1.458,1.4328,1.4328,1.4328,1.4328,0.0,0.0,0.0,1.4893,1.5215,1.541,1.541,1.541,1.541,1.541,1.541,1.541,1.541,1.541,1.541,1.541,1.541,1.541,1.541,1.541,1.541,1.541,1.541,1.541,1.541,1.541,1.541,1.541,1.541,1.541,1.541,1.541,1.541,1.541,1.541,0.0,0.0,0.0,0.0,1.541,1.541,1.5664,1.6075,1.6494,1.71,1.7871,1.9004,1.9969,2.0723,2.1093,2.1514,2.1894,2.2314,0.0,0.0,0.0,0.0,0.0,0.0,0.0,0.0,0.0,0.0,0.0,0.0,0.0,0.0,0.0,0.0,0.0,0.0,0.0,0.0,0.0,0.0,2.1168,0.0,0.0,2.0133,2.0133,2.0133,2.0034,1.9807,1.9579,1.9497,1.9443,1.739,1.6426,1.6426,1.6197,1.685,1.7917,1.6669,1.7483,1.9306,1.725,1.7236,1.8223,1.7234,1.6877,1.6907,0.0,0.0,0.0,0.0,0.0,0.0,0.0,0.0,0.0,0.0,1.5283,1.5244,1.5244,1.5244,1.5244,1.5244,1.5264,1.5322,1.5322,0.0,0.0,1.541,1.541,1.541,1.541,1.541,1.541,1.541,1.541,1.541,1.541,1.541,1.541,1.541,1.541,1.541,1.541,1.541,1.541,1.541,1.541,1.541,1.541,1.541,1.541,1.541,1.541,1.541,1.541,1.541,1.541,0.0,0.0,0.0,1.541,1.541,1.5449,1.5596,1.6065,1.7285,1.8568,1.915,1.9969,2.0723,0.0,0.0,2.1405,0.0,0.0,0.0,0.0,0.0,0.0,0.0,0.0,0.0,0.0,0.0,0.0,0.0,0.0,0.0,0.0,0.0,0.0,0.0,0.0,0.0,0.0,2.2862,2.2775,2.2633,2.2643,0.0,2.2643,2.2643,2.2085,2.1069,1.9988,1.9497,1.9497,1.9177,1.8993,1.8948,1.7909,1.8141,1.9177,1.7956,1.8272,1.9451,1.9131,1.9109,1.9296,1.9104,1.8412,1.7581,0.0,0.0,0.0,0.0,0.0,0.0,0.0,0.0,0.0,0.0,0.0,1.541,1.541,1.541,1.541,1.541,1.541,1.541,1.541,1.541,1.541,1.541,1.541,1.541,1.541,1.541,1.541,1.541,1.541,1.541,1.541,1.541,1.541,1.541,1.541,1.541,1.541,1.541,1.541,1.541,1.541,1.541,1.541,1.541,1.541,1.541,1.541,1.541,1.541,1.541,1.541,1.541,1.541,0.0,0.0,0.0,1.541,1.5508,1.5977,1.7148,1.8354,1.8818,1.9561,2.0312,2.0752,0.0,2.1249,0.0,0.0,0.0,0.0,0.0,0.0,0.0,0.0,0.0,0.0,0.0,0.0,0.0,0.0,0.0,0.0,0.0,0.0,0.0,0.0,0.0,2.3091,2.3091,2.3091,2.3091,2.3091,0.0,2.3091,2.3091,2.2818,2.2306,2.1765,2.1498,2.1498,2.1498,2.0773,1.9488,1.8956,1.9405,2.0395,1.9222,1.9815,2.1355,2.0042,1.9898,2.044,1.9761,1.9177,1.875,0.0,0.0,0.0,0.0,0.0,0.0,0.0,0.0,0.0,0.0,0.0,1.541,1.541,0.0,0.0,0.0,1.541,1.541,1.541,1.541,1.541,1.541,1.541,1.541,1.541,1.541,1.541,1.541,1.541,1.541,1.541,1.541,1.541,1.541,1.541,1.541,1.541,1.541,1.541,1.541,1.541,1.541,1.541,1.541,1.541,1.541,1.541,1.541,1.541,1.541,1.541,1.541,1.541,1.541,0.0,0.0,0.0,1.5508,1.5977,1.6855,1.7779,1.8315,1.9085,1.9863,0.0,0.0,0.0,0.0,0.0,0.0,0.0,0.0,0.0,0.0,0.0,0.0,0.0,0.0,0.0,0.0,0.0,0.0,0.0,0.0,0.0,0.0,0.0,0.0,2.3091,2.3091,2.3091,2.3091,2.3091,2.3091,2.3091,2.3091,2.3091,2.3091,2.3091,2.3091,2.3091,2.3091,2.2129,2.0404,2.0079,2.0621,2.1658,2.044,2.1221,2.2906,2.1132,2.0944,2.1667,2.0764,2.0215,1.9943,0.0,0.0,0.0,0.0,0.0,0.0,0.0,0.0,0.0,0.0,0.0,1.541,1.541,1.541,1.541,1.541,1.541,1.541,1.541,1.541,1.541,1.541,1.541,0.0,1.541,1.541,1.541,1.541,1.541,1.541,1.541,1.541,1.541,1.541,1.541,1.541,1.541,1.541,1.541,1.541,1.541,1.541,1.541,1.541,1.541,1.541,1.541,1.541,1.541,1.541,1.541,1.541,1.541,1.541,1.541,0.0,0.0,0.0,1.5977,1.6426,1.697,1.7832,1.8691,1.9434,0.0,0.0,0.0,0.0,0.0,0.0,0.0,0.0,0.0,0.0,0.0,0.0,0.0,0.0,0.0,0.0,0.0,0.0,0.0,0.0,0.0,0.0,0.0,0.0,2.3091,2.3091,2.3091,2.3091,2.3091,2.3091,2.3091,2.3091,2.3091,2.3091,2.3091,2.3091,2.3091,2.3091,2.3047,2.2862,2.1712,2.1889,2.2906,2.1702,2.1943,2.3101,2.296,2.296,2.3003,2.296,2.2173,2.1203,0.0,0.0,0.0,0.0,0.0,0.0,0.0,0.0,0.0,0.0,0.0,0.0,0.0,1.541,1.541,1.541,1.541,1.541,1.541,1.541,1.541,1.541,1.541,1.541,1.541,1.541,1.541,1.541,1.541,1.541,1.541,1.541,1.541,1.541,1.541,1.541,1.541,1.541,1.5566,1.586,1.586,1.6006,1.6229,1.6229,1.6229,1.6268,1.6572,0.0,0.0,0.0,0.0,1.586,1.586,1.5635,1.541,1.541,1.541,1.5449,1.5605,1.5967,1.6445,1.7009,1.7627,1.8242,1.8936,0.0,0.0,0.0,0.0,0.0,0.0,0.0,0.0,0.0,0.0,0.0,0.0,0.0,0.0,0.0,0.0,0.0,0.0,0.0,0.0,0.0,0.0,0.0,2.2334,2.2588,2.2691,2.2691,2.2955,2.3091,2.3091,2.3091,2.3091,2.3091,2.3091,2.3091,2.3091,2.3091,2.3091,2.3091,2.2633,2.2677,2.3047,2.2633,2.2721,2.3091,2.3091,2.3091,2.3091,2.3091,2.2818,2.2448,0.0,0.0,0.0,1.541,0.0,1.541,1.541,1.541,1.541,1.541,0.0,0.0,0.0,0.0,1.541,1.541,1.541,1.541,1.541,1.541,1.541,1.541,1.541,1.541,1.541,1.541,1.541,1.541,1.541,1.541,1.541,1.541,1.541,1.542,1.5566,1.5625,1.5625,1.5625,1.5889,1.6289,1.6289,1.6465,1.6716,1.6863,1.6921,1.698,0.0,0.0,0.0,0.0,0.0,0.0,1.6289,1.5889,1.541,1.541,1.541,1.541,1.541,1.5625,0.0,0.0,1.6836,1.7353,1.8057,0.0,0.0,0.0,0.0,0.0,0.0,0.0,0.0,0.0,0.0,0.0,0.0,0.0,0.0,0.0,0.0,0.0,0.0,0.0,0.0,0.0,0.0,0.0,2.1885,2.2148,2.2305,2.2305,2.2672,2.2886,2.2886,2.3023,2.3091,2.3091,2.3091,2.3091,2.3091,2.3091,2.3091,2.3091,2.3091,2.3091,2.3091,2.3091,2.3091,2.3091,2.3091,2.3091,2.3091,2.3091,2.3091,2.3091,1.541,1.541,1.541,1.541,1.541,1.541,1.541,1.541,1.541,1.541,0.0,0.0,0.0,0.0,0.0,1.541,1.541,1.541,1.541,1.541,1.541,1.541,1.541,1.541,1.541,1.541,1.541,1.541,1.541,1.541,1.541,1.541,1.541,1.543,1.5899,1.6105,1.6114,1.6114,1.6338,1.6716,1.6736,1.6746,1.6804,1.7275,0.0,0.0,1.791,1.8057,0.0,1.8057,0.0,0.0,1.6697,1.6093,1.543,1.5391,1.541,1.541,0.0,0.0,0.0,0.0,0.0,0.0,1.7256,0.0,0.0,0.0,0.0,0.0,0.0,0.0,0.0,0.0,0.0,0.0,0.0,0.0,0.0,0.0,0.0,0.0,0.0,0.0,0.0,0.0,0.0,2.1846,2.1846,2.1855,2.1875,2.1885,2.2275,2.249,2.249,2.2867,2.3081,2.3081,2.3091,2.3091,2.3091,2.3091,2.3091,2.3091,2.3091,2.3091,2.3091,2.3091,2.3091,2.3091,2.3091,2.3091,2.3091,2.3091,2.3091,2.3091,1.541,1.541,1.541,1.541,1.541,1.541,1.541,1.541,1.541,0.0,0.0,0.0,1.541,1.541,1.541,1.541,1.541,1.541,1.541,1.541,1.541,1.541,1.541,1.541,1.541,1.541,1.541,1.541,1.541,1.541,1.541,1.541,1.541,1.543,1.5899,1.6271,1.6512,1.6512,1.6797,1.7227,1.7539,1.7808,1.813,0.0,0.0,0.0,0.0,1.9189,1.8975,0.0,1.8613,1.749,0.0,1.6114,1.585,1.5508,1.541,1.541,1.541,0.0,0.0,0.0,0.0,0.0,1.6707,1.7155,0.0,0.0,0.0,0.0,0.0,0.0,0.0,0.0,0.0,0.0,0.0,0.0,0.0,0.0,0.0,0.0,0.0,0.0,0.0,0.0,2.0967,2.0967,2.0967,2.124,2.1562,2.1875,2.2002,2.206,2.206,2.248,2.2685,2.2685,2.2955,2.3091,2.3091,2.3091,2.3091,2.3091,2.3091,2.3091,2.3091,2.3091,2.3091,2.3091,2.3091,2.3091,2.3091,2.3091,2.3091,2.3091,1.541,1.541,1.541,1.541,1.541,1.541,1.541,1.541,1.541,0.0,0.0,0.0,1.541,1.541,1.541,1.541,1.541,1.541,1.541,1.541,1.541,1.541,1.541,1.541,1.541,1.541,1.541,1.541,1.541,1.541,1.541,1.541,1.5508,1.5703,1.6143,1.6592,1.7012,1.7155,1.751,1.791,1.7978,0.0,0.0,1.9121,1.9287,0.0,0.0,0.0,1.9891,2.0098,1.9453,0.0,0.0,0.0,1.6525,1.5899,1.5684,1.5644,0.0,0.0,0.0,0.0,0.0,0.0,1.6034,1.6434,1.696,0.0,0.0,0.0,0.0,0.0,0.0,0.0,0.0,0.0,0.0,0.0,0.0,0.0,0.0,0.0,0.0,0.0,0.0,0.0,2.0605,2.0605,2.0605,2.081,2.1074,2.1368,2.1514,2.1611,2.1611,2.2031,2.2344,2.2519,2.2721,2.2925,2.3091,2.3091,2.3091,2.3091,2.3091,2.3091,2.3091,2.3091,2.3091,2.3091,2.3091,2.3091,2.3091,2.3091,2.3091,2.3091,0.0,1.541,1.541,1.541,1.541,1.541,1.541,1.541,1.541,0.0,1.541,1.541,1.541,1.541,1.541,1.541,1.541,1.541,1.541,1.541,1.541,1.541,1.541,1.541,1.541,1.541,1.541,1.541,1.541,1.541,1.541,1.5459,1.5693,1.6114,1.6582,1.7021,1.7445,1.7832,1.8247,1.8637,1.8301,1.8437,0.0,0.0,1.9531,1.9678,2.0478,2.0752,2.0732,2.0576,2.0028,0.0,0.0,0.0,0.0,0.0,1.6355,0.0,0.0,0.0,0.0,0.0,0.0,0.0,1.5556,1.6115,1.6697,0.0,0.0,0.0,0.0,0.0,0.0,0.0,0.0,0.0,0.0,0.0,0.0,0.0,0.0,0.0,0.0,0.0,2.0605,2.0605,2.0605,2.0605,2.0605,2.0605,2.0605,2.0605,2.0947,2.1122,2.1122,2.1592,2.2002,2.2373,2.2461,2.2705,2.3023,2.3071,2.3091,2.3091,2.3091,2.3091,2.3091,2.3091,2.3091,2.3091,2.3091,2.3091,2.3091,2.3091,2.3091,2.3091,1.541,1.541,1.541,1.541,1.541,1.541,1.541,1.541,1.541,1.541,1.541,1.541,1.541,1.541,1.541,1.541,1.541,1.541,1.541,1.541,1.541,1.541,1.541,1.541,1.541,1.541,1.541,1.541,1.541,1.541,1.542,1.5801,1.6007,1.6124,1.6936,1.7305,1.7445,1.7832,0.0,1.915,1.9072,0.0,2.0273,2.0684,2.1074,2.1396,2.1572,2.1672,2.1465,2.04,1.9932,1.9551,0.0,0.0,0.0,1.8279,0.0,0.0,0.0,0.0,0.0,0.0,0.0,0.0,1.6641,1.6236,1.5868,0.0,0.0,0.0,0.0,0.0,0.0,0.0,0.0,0.0,0.0,0.0,0.0,0.0,0.0,0.0,0.0,0.0,2.0605,2.0605,2.0605,2.0605,2.0605,2.0605,2.0605,2.0605,2.0693,2.0732,2.0732,2.1143,2.1366,2.1453,2.2178,2.2559,2.2646,2.2945,2.3091,2.3091,2.3091,2.3091,2.3091,2.3091,2.3091,2.3091,2.3091,2.3091,2.3091,2.3091,2.3091,2.3091,1.541,1.541,1.541,1.541,1.541,1.541,1.541,1.541,1.541,1.541,1.541,1.5498,1.5713,1.5732,1.583,1.6015,1.6044,1.6044,1.6044,1.6044,1.5967,1.5752,1.5732,1.5635,1.542,1.5625,1.5732,1.5732,1.5957,1.6044,1.6044,1.6299,1.6514,1.677,1.722,1.75,1.7734,1.8379,1.9014,1.958,1.9375,0.0,2.0654,2.1064,2.1327,2.1592,2.1807,2.1885,2.1748,2.083,2.043,0.0,0.0,1.8969,1.8954,0.0,1.8627,1.8321,0.0,0.0,0.0,1.6908,0.0,0.0,0.0,1.6372,1.6142,0.0,0.0,0.0,0.0,0.0,0.0,0.0,0.0,0.0,0.0,0.0,0.0,0.0,0.0,0.0,0.0,0.0,2.037,2.0586,2.0605,2.0605,2.0605,2.0605,2.0605,2.0605,2.0605,2.0605,2.0605,2.0791,2.1016,2.12,2.1894,2.2305,2.2529,2.2906,2.3091,2.3091,2.3091,2.3091,2.3091,2.3091,2.3091,2.3091,2.3091,2.3091,2.3091,2.3091,2.3091,2.3091,1.541,1.541,1.541,1.541,1.541,1.541,1.541,1.541,1.5439,1.5527,1.5615,1.583,1.63,1.6271,1.6367,1.6785,1.6746,1.6697,1.6697,1.6697,1.6572,1.6242,1.6222,1.6025,1.5644,1.6016,1.6222,1.6222,1.6553,1.6697,1.6697,1.6785,1.7051,1.7393,1.7471,1.7783,1.8301,1.8994,0.0,2.0146,0.0,2.0205,2.0909,2.1309,2.1434,2.1492,2.1973,2.207,2.1985,2.1727,2.1303,2.0791,2.0363,1.9826,0.0,0.0,0.0,0.0,0.0,0.0,0.0,0.0,0.0,1.6931,0.0,0.0,0.0,0.0,0.0,0.0,0.0,0.0,0.0,0.0,0.0,0.0,0.0,0.0,0.0,0.0,0.0,0.0,0.0,0.0,1.9971,2.0449,2.0478,2.0517,2.0595,2.0605,2.0605,2.0605,2.0605,2.0605,2.0605,2.0605,2.0752,2.1073,2.1553,2.1982,2.2402,2.2779,2.3023,2.3091,2.3091,2.3091,2.3091,2.3091,2.3091,2.3091,2.3091,2.3091,2.3091,2.3091,2.3091,2.3091,1.541,1.541,1.541,1.541,1.541,1.541,1.541,1.541,1.5547,1.5968,1.6338,1.6716,1.7187,1.6894,1.6836,1.7275,1.6921,0.0,1.6697,1.6697,1.6677,1.6629,1.6619,1.6599,1.6551,1.6599,1.6619,1.6619,1.6677,1.6697,1.6707,1.7129,1.7334,1.7435,1.7773,1.8389,1.915,0.0,1.998,0.0,2.1455,2.165,0.0,2.2207,2.2363,2.2422,2.2808,2.2711,2.249,0.0,2.2585,2.1717,0.0,2.1718,2.1936,2.1195,0.0,0.0,0.0,0.0,0.0,0.0,1.9166,0.0,0.0,0.0,1.7479,0.0,0.0,0.0,0.0,0.0,0.0,0.0,0.0,0.0,0.0,0.0,0.0,0.0,0.0,0.0,0.0,0.0,0.0,1.9961,1.999,2.0156,2.0586,2.0605,2.0605,2.0605,2.0605,2.0605,2.0605,2.0605,2.0635,2.0683,2.1094,2.1533,2.1973,2.2393,2.274,2.3091,2.3091,2.3091,2.3091,2.3091,2.3091,2.3091,2.3091,2.3091,2.3091,2.3091,2.3091,2.3091,1.541,1.541,1.541,1.541,1.541,1.5498,1.5752,1.6006,1.6219,1.6426,1.659,1.696,1.7676,0.0,0.0,1.8428,0.0,1.8213,0.0,0.0,1.7798,1.7798,1.7373,1.7109,1.7109,1.7109,1.7109,1.7109,1.7353,1.7438,1.7447,1.7656,1.7744,1.7773,1.8447,0.0,1.9355,0.0,2.0967,0.0,0.0,0.0,0.0,2.2627,2.2838,2.2857,2.3033,2.2984,2.3014,0.0,2.3628,0.0,0.0,0.0,0.0,0.0,0.0,0.0,0.0,0.0,0.0,0.0,0.0,0.0,2.0046,0.0,1.8767,0.0,0.0,0.0,0.0,0.0,0.0,0.0,0.0,0.0,0.0,0.0,0.0,0.0,0.0,0.0,0.0,0.0,0.0,0.0,0.0,1.9629,1.9852,2.0331,2.0605,2.0605,2.0605,2.0605,2.0605,2.0605,2.0605,2.0605,2.1025,2.1465,2.1904,2.2324,2.2744,2.3091,2.3091,2.3091,2.3091,2.3091,2.3091,2.3091,2.3091,2.3091,2.3091,2.3091,2.3091,2.3091,1.5771,1.5547,1.5449,1.5566,1.5586,1.5742,1.6212,1.6621,1.6921,1.7038,1.7155,0.0,1.8603,1.8603,0.0,0.0,1.9707,1.9676,0.0,0.0,1.8997,0.0,1.8359,0.0,1.79,1.7793,1.7666,1.7549,1.7861,1.8008,1.8008,1.8091,1.8149,1.8213,1.8955,1.9482,1.9902,0.0,2.1728,2.1775,2.2389,2.25,2.2285,2.2783,2.2994,2.3091,2.3091,2.3091,2.3256,2.4414,2.4388,0.0,2.5258,0.0,0.0,0.0,0.0,0.0,2.4309,0.0,0.0,0.0,0.0,0.0,0.0,0.0,0.0,0.0,0.0,0.0,0.0,0.0,0.0,0.0,0.0,0.0,0.0,0.0,0.0,0.0,0.0,0.0,0.0,0.0,0.0,0.0,0.0,0.0,1.9268,1.992,2.0361,2.0595,2.0605,2.0605,2.0605,2.0605,2.0605,2.0605,2.1025,2.1465,2.1904,2.2324,2.2744,2.3091,2.3091,2.3091,2.3091,2.3091,2.3091,2.3091,2.3091,2.3091,2.3091,2.3091,2.3091,2.3091,1.6658,1.5966,1.5547,1.5997,1.6075,1.6222,1.6609,1.708,1.751,1.792,0.0,0.0,0.0,0.0,0.0,0.0,0.0,2.0566,2.0566,0.0,2.0059,0.0,0.0,1.9228,0.0,1.8773,1.8364,1.7988,1.8008,1.8008,1.8018,1.8393,1.8578,1.8598,1.9082,1.999,2.1132,2.119,2.1921,2.3033,2.3062,2.3062,2.3013,0.0,2.274,2.3091,2.3091,0.0,0.0,2.4414,2.4766,0.0,0.0,0.0,0.0,0.0,0.0,0.0,0.0,0.0,0.0,2.4705,0.0,0.0,0.0,0.0,2.1277,0.0,0.0,0.0,0.0,0.0,0.0,0.0,0.0,0.0,0.0,0.0,0.0,0.0,0.0,0.0,0.0,0.0,0.0,0.0,0.0,0.0,1.9219,1.9316,1.9744,2.0576,2.0605,2.0605,2.0605,2.0605,2.0605,2.0605,2.1025,2.1465,2.1904,2.2324,2.2744,2.3091,2.3091,2.3091,2.3091,2.3091,2.3091,2.3091,2.3091,2.3091,2.3091,2.3091,2.3091,2.3091,1.6697,1.6463,1.6297,1.6484,1.6504,1.665,1.71,1.7764,1.8369,0.0,1.9219,0.0,0.0,2.0879,2.0986,0.0,0.0,2.1476,2.1476,2.1025,0.0,0.0,0.0,2.0175,0.0,0.0,1.9277,1.8857,1.8857,1.8857,1.8857,1.9004,1.9072,1.9102,1.9814,2.0547,0.0,0.0,0.0,0.0,0.0,2.2559,2.2353,0.0,0.0,2.3222,2.3963,2.3757,0.0,2.6108,2.6491,2.6199,2.7755,2.8166,2.7964,2.7298,2.7067,0.0,0.0,0.0,2.6364,2.6,0.0,0.0,0.0,0.0,0.0,0.0,0.0,0.0,0.0,0.0,0.0,0.0,0.0,0.0,0.0,0.0,0.0,0.0,0.0,0.0,0.0,0.0,0.0,0.0,0.0,0.0,0.0,1.8984,1.9678,2.0576,2.0605,2.0605,2.0605,2.0605,2.0605,2.0605,2.1025,2.1465,2.1904,2.2324,2.2744,2.3091,2.3091,2.3091,2.3091,2.3091,2.3091,2.3091,2.3091,2.3091,2.3091,2.3091,2.3091,2.3091,1.7155,1.7155,1.7106,1.696,1.7184,1.7467,1.7783,1.8545,0.0,0.0,2.0019,0.0,2.1387,0.0,2.1824,0.0,2.2334,2.2334,2.2334,2.1924,0.0,2.2872,2.211,0.0,0.0,0.0,0.0,0.0,0.0,1.9287,1.9287,1.9443,1.9512,1.9541,2.0282,2.081,2.1239,2.1992,2.2373,0.0,0.0,2.2353,0.0,0.0,2.2877,2.3059,0.0,2.4339,2.4092,2.6655,2.7331,2.7331,2.874,2.9195,2.9164,2.8812,2.8461,2.8122,2.7921,2.772,0.0,2.7165,2.6314,0.0,2.5016,0.0,0.0,0.0,0.0,0.0,0.0,0.0,0.0,0.0,0.0,0.0,0.0,1.8221,0.0,0.0,0.0,0.0,0.0,0.0,0.0,0.0,0.0,0.0,0.0,0.0,1.9287,2.0341,2.0517,2.0605,2.0605,2.0605,2.0605,2.0615,2.1182,2.1611,2.1904,2.248,2.2838,2.3091,2.3091,2.3091,2.3091,2.3091,2.3091,2.3135,2.3551,2.3474,2.3091,2.3091,2.3091,2.3091,1.8076,1.8076,1.7949,1.7549,1.8135,0.0,0.0,0.0,1.9922,0.0,2.0693,2.1424,2.1904,2.2344,2.2773,2.312,2.3159,2.3159,2.3159,2.2832,0.0,0.0,2.3948,2.4017,2.5138,0.0,0.0,0.0,0.0,1.9346,1.9355,1.9766,1.9941,1.9961,2.0381,0.0,2.122,2.168,2.2109,2.251,2.2539,2.2529,2.251,2.2539,0.0,2.2729,2.4302,2.483,2.4999,2.6224,2.7279,2.8124,2.8176,2.8937,2.9792,2.9792,2.9792,2.9666,2.9076,2.8586,2.8185,2.816,0.0,0.0,0.0,0.0,2.4675,0.0,0.0,0.0,0.0,0.0,0.0,0.0,0.0,0.0,0.0,0.0,0.0,0.0,0.0,0.0,0.0,0.0,0.0,0.0,0.0,0.0,0.0,0.0,0.0,1.9844,2.0322,2.0605,2.0605,2.0605,2.0615,2.0644,2.1475,2.1894,2.1943,2.2721,2.3091,2.3091,2.3091,2.3091,2.3091,2.3091,2.3135,2.3299,2.4382,2.4168,2.3266,2.3135,2.3091,2.3091,1.8965,1.8965,1.8926,0.0,1.8975,1.9121,0.0,0.0,0.0,0.0,2.1445,2.2353,2.2773,2.3477,2.3975,2.4082,2.4092,0.0,0.0,0.0,0.0,2.4048,2.3829,2.3939,2.4448,2.2838,0.0,2.2586,0.0,0.0,2.0282,2.039,2.0439,2.0449,2.0556,2.081,2.12,2.1317,2.1826,2.2539,2.2808,2.275,0.0,0.0,2.274,2.2814,2.5228,2.5504,2.5241,2.7999,2.8569,2.8255,2.9106,2.9573,2.9792,2.9792,2.9792,2.9767,2.9616,2.9465,2.9264,2.8825,2.8084,2.7281,0.0,0.0,0.0,0.0,0.0,0.0,0.0,0.0,0.0,0.0,0.0,0.0,0.0,0.0,0.0,1.9501,0.0,0.0,0.0,0.0,0.0,0.0,0.0,0.0,0.0,0.0,0.0,1.9414,2.0214,2.0605,2.0605,2.0605,2.0732,2.1064,2.1621,2.2051,2.2373,2.2857,2.3091,2.3091,2.3091,2.3091,2.3091,2.3091,2.3594,2.4372,2.4702,2.5126,2.5431,2.3724,2.3091,2.3091,1.9287,1.9434,0.0,1.9561,0.0,0.0,1.9881,0.0,0.0,2.1387,2.2549,0.0,2.3418,2.4014,2.4414,2.4414,2.4414,0.0,2.5209,0.0,0.0,2.6366,2.6152,2.6341,2.6966,2.5246,0.0,2.4529,0.0,0.0,2.1859,2.1859,2.1859,2.1859,0.0,2.1334,2.1567,2.2039,2.2218,2.2317,2.322,0.0,0.0,2.3503,2.3861,2.4504,2.6483,2.6502,2.5964,2.8831,2.9365,2.8949,2.9585,2.9792,2.9792,2.9792,2.9792,2.9792,2.9792,2.9792,2.9716,2.939,2.8888,2.8298,2.7682,2.6917,2.6251,0.0,0.0,0.0,0.0,0.0,0.0,0.0,0.0,0.0,0.0,0.0,0.0,0.0,0.0,0.0,0.0,0.0,0.0,0.0,0.0,0.0,0.0,0.0,0.0,1.8975,1.9834,2.0376,2.0581,2.1002,2.1545,2.2226,2.2941,2.3492,2.3981,2.4398,2.4595,2.4595,2.4595,2.4595,2.4595,2.4595,2.4967,2.5546,2.5546,2.6213,2.6994,2.5221,2.4264,2.3844,1.9453,1.9746,0.0,0.0,0.0,0.0,0.0,2.1777,0.0,2.2578,0.0,2.4277,2.3906,2.4307,2.459,2.459,0.0,2.5033,2.6135,2.6226,2.717,2.9347,2.8902,2.9224,3.0468,2.8436,0.0,0.0,0.0,0.0,2.3294,2.3294,2.3368,2.3441,0.0,0.0,0.0,2.3124,2.3072,2.252,2.3949,2.4489,2.4489,2.4489,2.5324,2.6637,2.7723,2.7481,2.7005,2.9079,2.9792,2.9792,2.9792,2.9792,2.9792,2.9792,2.9792,2.9792,2.9792,2.9792,2.9792,2.9792,2.9415,2.8988,2.8913,2.8185,2.7457,2.7318,2.6502,0.0,0.0,0.0,0.0,0.0,0.0,0.0,0.0,0.0,0.0,0.0,0.0,0.0,0.0,0.0,0.0,0.0,0.0,0.0,0.0,0.0,0.0,0.0,1.9514,0.0,2.0697,0.0,2.2692,2.3727,2.459,2.5324,2.5925,2.6322,2.6524,2.6524,2.6524,2.6524,2.6524,2.6524,2.6595,2.6719,2.6894,2.7493,2.8227,2.7302,2.6213,2.5199,2.038,0.0,0.0,0.0,0.0,2.1484,2.2591,2.2305,2.2246,2.2896,2.3838,2.4385,2.4316,2.4982,2.546,2.546,2.546,0.0,0.0,0.0,0.0,2.7364,2.7312,2.8087,2.9905,2.7847,2.6525,0.0,0.0,0.0,2.2253,2.2253,2.2702,2.3441,0.0,0.0,2.2773,2.3271,0.0,2.5161,2.582,2.6102,2.6102,2.6102,2.6281,2.6637,2.7723,2.7964,2.8016,2.9365,2.9792,2.9792,2.9792,2.9792,2.9792,2.9792,2.9792,2.9792,2.9792,2.9792,2.9792,2.9792,2.9716,2.9515,2.9001,2.8737,2.8386,2.7469,2.7118,2.6678,2.5649,0.0,0.0,0.0,0.0,0.0,0.0,0.0,0.0,0.0,0.0,0.0,0.0,0.0,0.0,0.0,0.0,0.0,0.0,0.0,0.0,0.0,0.0,0.0,0.0,0.0,0.0,2.4747,2.4915,2.5475,2.639,2.6479,2.6524,2.6524,2.6524,2.6524,2.6524,2.6524,2.7005,2.7896,2.887,2.9339,2.9495,2.9287,2.849,2.7389,0.0,0.0,0.0,0.0,0.0,0.0,0.0,2.332,0.0,2.4053,2.4697,2.505,2.505,2.544,2.5965,2.662,2.6668,2.721,2.8484,2.853,2.902,3.0059,2.9825,0.0,3.1038,2.9777,2.8554,2.7517,0.0,0.0,2.4349,2.4349,2.4576,2.5028,0.0,2.3831,0.0,0.0,0.0,2.592,2.7208,2.7754,2.7788,2.8108,2.8545,2.9121,2.9622,2.9824,2.9791,2.9799,2.9792,2.9792,2.9792,2.9792,2.9792,2.9792,2.9792,2.9792,2.9792,2.9792,2.9792,2.9792,2.9792,2.9716,2.944,2.9101,2.8737,2.8247,2.7682,2.6942,2.5799,2.472,0.0,0.0,0.0,0.0,0.0,0.0,0.0,0.0,0.0,0.0,0.0,0.0,0.0,0.0,0.0,0.0,0.0,0.0,0.0,0.0,0.0,0.0,0.0,0.0,0.0,2.579,2.6326,2.7186,2.8211,2.8211,2.8211,2.8211,2.8211,2.8211,2.8211,2.8211,2.8542,2.9028,2.9585,2.9792,2.9792,2.9792,2.9443,2.8819,0.0,2.1328,0.0,0.0,2.2397,0.0,2.3834,2.4506,2.4977,2.5194,2.5518,2.5693,2.5693,2.5917,2.638,2.7125,2.7683,2.868,3.0316,3.0676,3.1368,3.2655,3.2221,3.2125,3.2403,3.1851,3.0738,0.0,0.0,0.0,0.0,0.0,0.0,0.0,0.0,0.0,0.0,0.0,2.7325,2.6972,2.8748,2.9417,2.9465,2.994,3.0663,3.1386,3.1386,3.1386,3.126,3.0419,3.0055,2.9942,2.9829,2.9792,2.9792,2.9792,2.9792,2.9792,2.9792,2.9792,2.9792,2.9792,2.9792,2.9792,2.9792,2.944,2.9038,2.8913,2.8047,2.7017,2.6126,2.5423,0.0,0.0,0.0,0.0,0.0,0.0,0.0,0.0,0.0,0.0,0.0,0.0,0.0,0.0,0.0,0.0,0.0,0.0,0.0,0.0,0.0,0.0,2.2861,0.0,2.5809,0.0,2.7808,2.8812,2.9792,2.9792,2.9792,2.9792,2.9792,2.9792,2.9792,2.9792,2.9792,2.9792,2.9792,2.9792,2.9792,2.9792,2.9792,2.9663,0.0,0.0,0.0,0.0,0.0,0.0,0.0,2.5671,2.6398,2.5712,2.5664,2.5693,2.5693,2.6706,2.6993,2.5965,2.7945,2.8866,2.8002,2.8958,3.0135,3.1311,3.1308,3.1836,3.2993,3.2428,3.1373,0.0,0.0,0.0,0.0,0.0,0.0,0.0,0.0,0.0,0.0,2.7917,2.8986,3.0216,3.091,3.1188,3.1188,3.1238,3.1304,3.1386,3.1386,3.1386,3.1373,3.1273,3.0934,3.0457,2.9942,2.9792,2.9792,2.9792,2.9792,2.9792,2.9792,2.9792,2.9792,2.9792,2.9792,2.9792,2.9792,2.9754,2.9566,2.9001,2.8047,2.7291,2.7143,2.6251,2.5184,0.0,0.0,0.0,0.0,0.0,0.0,0.0,0.0,0.0,0.0,0.0,0.0,0.0,0.0,0.0,0.0,0.0,0.0,0.0,0.0,2.2805,2.343,2.5376,0.0,2.7959,2.8524,2.9189,2.9792,2.9792,2.9792,2.9792,2.9792,2.9792,2.9792,2.9792,2.9792,2.9792,2.9792,2.9792,2.9792,2.9792,2.9792,2.9792,0.0,0.0,0.0,0.0,0.0,0.0,0.0,2.6231,2.7191,2.6877,2.6149,2.5965,2.6754,2.7315,2.8002,2.8936,2.9897,3.0598,3.0878,3.1335,3.1833,3.2326,3.2326,3.2568,3.3081,3.2855,3.2109,0.0,0.0,0.0,0.0,0.0,0.0,0.0,0.0,2.8457,2.8938,2.9788,3.0524,3.1135,3.1662,3.1888,3.1913,3.2265,3.2403,3.2403,3.2403,3.2403,3.2353,3.2001,3.1524,3.0984,3.0457,3.0281,3.0218,2.9892,2.9792,2.9792,2.9792,2.9792,2.9792,2.9792,2.9792,2.9792,2.9792,2.9792,2.9729,2.9503,2.8549,2.767,2.7379,2.6675,2.5896,0.0,0.0,0.0,0.0,0.0,0.0,0.0,0.0,0.0,0.0,0.0,0.0,0.0,0.0,0.0,0.0,0.0,0.0,2.2689,0.0,2.3673,2.4751,2.5915,2.6889,2.762,2.8511,2.9239,2.9792,2.9792,2.9792,2.9792,2.9792,2.9792,2.9792,2.9792,2.9792,2.9792,2.9792,2.9792,2.9792,2.9792,2.9792,2.9792,2.3773,0.0,2.4297,0.0,2.5518,2.6202,2.6202,2.759,2.8541,2.8179,2.7352,2.7115,2.8038,2.8459,2.9223,3.0541,3.1356,3.1965,3.2525,3.2884,3.3124,3.3124,3.3124,0.0,3.3124,3.3124,3.2692,3.1888,3.1185,0.0,0.0,0.0,0.0,0.0,2.9679,3.0118,3.0319,3.1248,3.1637,3.1675,3.224,3.2466,3.2516,3.2918,3.3124,3.3124,3.3124,3.3124,3.3018,3.2604,3.2202,3.1763,3.106,3.0846,3.0733,3.0193,3.003,2.9993,2.9829,2.9792,2.9792,2.9792,2.9792,2.9792,2.9792,2.9792,2.9792,2.9792,2.9026,2.8185,2.762,2.7115,2.6499,2.5711,0.0,0.0,0.0,0.0,0.0,0.0,2.2221,2.2397,2.2008,0.0,0.0,0.0,0.0,0.0,0.0,0.0,0.0,0.0,0.0,0.0,0.0,0.0,2.6939,2.777,2.8737,2.9402,2.9792,2.9792,2.9792,2.9792,2.9792,2.9792,2.9792,2.9792,2.9792,2.9792,2.9792,2.9792,2.9792,2.9792,2.9792,2.9792,2.5567,2.5352,2.5464,2.6645,2.7914,2.8779,2.8779,3.0126,3.0721,2.9544,2.9361,2.9361,2.9361,3.0451,3.0676,2.9544,3.1645,3.2568,3.1311,3.2382,3.3124,0.0,0.0,3.3124,3.3124,3.3124,3.3111,3.3056,0.0,0.0,3.0583,0.0,2.9477,3.0583,3.0595,3.0884,3.1411,3.1964,3.2202,3.2252,3.283,3.3111,3.3111,3.3124,3.3124,3.3124,3.3124,3.3124,3.3124,3.3111,3.3056,3.2898,3.1738,3.1386,3.1273,3.0758,3.0608,3.0482,2.9942,2.9792,2.9792,2.9792,2.9792,2.9792,2.9792,2.9792,2.9792,2.9792,2.9327,2.8712,2.8197,2.7645,2.6904,2.5774,0.0,0.0,0.0,0.0,0.0,0.0,2.2757,2.3095,2.3083,0.0,0.0,0.0,0.0,0.0,0.0,0.0,0.0,2.3966,2.3421,0.0,2.5573,2.6197,2.7281,2.8875,2.9503,2.9779,2.9792,2.9792,2.9792,2.9792,2.9792,2.9792,2.9792,2.9792,2.9792,2.9792,2.9792,2.9792,2.9792,2.9792,2.9792,2.9792,2.8118,2.8132,2.8164,2.8543,2.8944,2.9228,2.9228,3.0347,3.1033,3.0676,3.1368,3.1921,3.1921,3.15,3.1412,0.0,3.2655,3.2939,0.0,3.2884,3.3124,3.3124,3.3124,3.3124,3.3124,3.3124,3.3124,3.3124,0.0,0.0,0.0,3.116,3.116,3.116,3.1537,3.18,3.1989,3.2566,3.2805,3.2817,3.3006,3.3124,3.3124,3.3124,3.3124,3.3124,3.3124,3.3124,3.3124,3.3124,3.3124,3.3061,3.2654,3.2265,3.1838,3.1298,3.0896,3.057,3.0407,3.008,2.9792,2.9792,2.9792,2.9792,2.9792,2.9792,2.9792,2.9792,2.934,2.8838,2.8662,2.7908,2.7077,2.6336,0.0,0.0,0.0,0.0,0.0,0.0,0.0,2.3715,0.0,2.3183,0.0,0.0,0.0,0.0,0.0,0.0,0.0,0.0,2.4908,0.0,2.6741,2.6964,2.7657,2.89,2.9515,2.9792,2.9792,2.9792,2.9792,2.9792,2.9792,2.9792,2.9792,2.9792,2.9792,2.9792,2.9792,2.9792,2.9792,2.9792,2.9792,2.9792,2.9351,2.9407,2.9544,3.0,3.009,3.0226,3.0732,3.1412,3.1909,3.1909,3.2612,3.3124,3.3124,3.2382,0.0,3.3025,3.3124,3.3124,3.3124,3.3124,3.3124,3.3124,3.3124,3.3124,3.3124,0.0,0.0,3.3124,3.2717,3.2365,3.2026,3.2378,3.2353,3.2039,3.239,3.2541,3.2554,3.2918,3.3124,3.3124,3.3124,3.3124,3.3124,3.3124,3.3124,3.3124,3.3124,3.3124,3.3124,3.3124,3.3124,3.3124,3.3124,3.283,3.2428,3.1863,3.1474,3.1122,3.0721,3.0369,3.0055,2.9842,2.9792,2.9792,2.9792,2.9792,2.9792,2.9792,2.9503,2.9189,2.8938,2.8197,2.7406,2.6889,0.0,2.6172,2.5247,0.0,0.0,0.0,0.0,0.0,0.0,2.4268,0.0,0.0,0.0,0.0,0.0,0.0,0.0,2.5285,2.5485,0.0,2.7268,2.7494,2.8147,2.9252,2.9616,2.9792,2.9792,2.9792,2.9792,2.9792,2.9792,2.9792,2.9792,2.9792,2.9792,2.9792,2.9792,2.9792,2.9792,2.9792,2.9792,2.9792,2.9681,2.9681,0.0,0.0,3.1311,0.0,3.2927,3.3124,3.3124,3.3124,3.3124,3.3124,3.3124,3.3124,3.3124,3.3124,0.0,0.0,0.0,3.3124,3.3124,3.3124,3.3124,3.3124,3.3124,3.3124,3.3124,3.3124,3.3124,3.3124,3.3124,3.3124,3.3124,3.3124,3.3124,3.3124,3.3124,3.3124,3.3124,3.3124,3.3124,3.3124,3.3124,3.3124,3.3124,3.3124,3.3124,3.3124,3.3124,3.3124,3.3124,3.3124,3.3124,3.3124,3.2968,3.2428,3.224,3.1989,3.0997,3.067,3.0495,2.998,2.9817,2.9792,2.9792,2.9792,2.9792,2.9792,2.9792,2.9628,2.9089,2.8536,2.7984,2.7431,2.6914,2.6336,2.5686,0.0,0.0,0.0,0.0,0.0,0.0,2.5649,2.5636,0.0,0.0,0.0,0.0,0.0,2.5001,2.4963,2.5498,2.6289,2.7394,2.7908,2.8712,2.9792,2.9792,2.9792,2.9792,2.9792,2.9792,2.9792,2.9792,2.9792,2.9792,2.9792,2.9792,2.9792,2.9792,2.9792,2.9792,2.9792,2.9792,2.9792,0.0,0.0,3.2295,3.2612,3.2655,3.2754,3.3068,3.3124,3.3124,3.3124,3.3124,3.3124,3.3124,3.3124,3.3124,3.3124,3.3124,3.3124,3.3124,3.3124,3.3124,3.3124,3.3124,3.3124,3.3124,3.3124,3.3124,3.3124,3.3124,3.3124,3.3124,3.3124,3.3124,3.3124,3.3124,3.3124,3.3124,3.3124,3.3124,3.3124,3.3124,3.3124,3.3124,3.3124,3.3124,3.3124,3.3124,3.3124,3.3124,3.3124,3.3124,3.3124,3.3124,3.3124,3.3056,3.2918,3.2554,3.2152,3.1901,3.1235,3.0583,3.0457,3.0105,2.9792,2.9792,2.9792,2.9792,2.9792,2.9792,2.9754,2.9616,2.9126,2.8549,2.7996,2.7444,2.6776,2.5737,2.5711,0.0,0.0,2.5523,2.5774,2.6248,2.6285,2.6109,0.0,0.0,0.0,0.0,0.0,2.713,2.6716,2.7231,2.7846,2.8499,2.8662,2.9089,2.9792,2.9792,2.9792,2.9792,2.9792,2.9792,2.9792,2.9792,2.9792,2.9792,2.9792,2.9792,2.9792,2.9792,2.9792,2.9792,2.9792,2.9792,2.9792,3.3124,3.3124,3.3124,3.3124,3.3124,3.3124,3.3124,3.3124,3.3124,3.3124,3.3124,3.3124,3.3124,3.3124,3.3124,3.3124,3.3124,3.3124,3.3124,3.3124,3.3124,3.3124,3.3124,3.3124,3.3124,3.3124,3.3124,3.3124,3.3124,3.3124,3.3124,3.3124,3.3124,3.3124,3.3124,3.3124,3.3124,3.3124,3.3124,3.3124,3.3124,3.3124,3.3124,3.3124,3.3124,3.3124,3.3124,3.3124,3.3124,3.3124,3.3124,3.3124,3.3124,3.3124,3.3124,3.3124,3.2855,3.2554,3.2277,3.1599,3.0846,3.0369,3.0018,2.9792,2.9792,2.9792,2.9792,2.9792,2.9792,2.9792,2.9792,2.9315,2.8787,2.8499,2.7808,2.7014,2.6147,2.6021,0.0,2.5624,2.605,2.649,2.6839,2.7102,2.7115,2.6766,0.0,0.0,2.6753,2.7607,2.7846,2.7341,2.8059,2.8624,2.8888,2.9189,2.9478,2.9792,2.9792,2.9792,2.9792,2.9792,2.9792,2.9792,2.9792,2.9792,2.9792,2.9792,2.9792,2.9792,2.9792,2.9792,2.9792,2.9792,2.9792,2.9792,3.3124,3.3124,3.3124,3.3124,3.3124,3.3124,3.3124,3.3124,3.3124,3.3124,3.3124,3.3124,3.3124,3.3124,3.3124,3.3124,3.3124,3.3124,3.3124,3.3124,3.3124,3.3124,3.3124,3.3124,3.3124,3.3124,3.3124,3.3124,3.3124,3.3124,3.3124,3.3124,3.3124,3.3124,3.3124,3.3124,3.3124,3.3124,3.3124,3.3124,3.3124,3.3124,3.3124,3.3124,3.3124,3.3124,3.3124,3.3124,3.3124,3.3124,3.3124,3.3124,3.3124,3.3124,3.3124,3.3124,3.3124,3.2968,3.2478,3.1876,3.1148,3.0168,2.9854,2.9792,2.9792,2.9792,2.9792,2.9792,2.9792,2.9792,2.9792,2.939,2.8963,2.88,2.8009,2.7216,2.6587,0.0,2.6436,2.5912,2.6779,2.7406,2.7406,2.7833,2.8109,2.8109,2.7745,0.0,0.0,2.826,2.8109,2.7544,2.8524,2.9026,2.9026,2.9553,2.9792,2.9792,2.9792,2.9792,2.9792,2.9792,2.9792,2.9792,2.9792,2.9792,2.9792,2.9792,2.9792,2.9792,2.9792,2.9792,2.9792,2.9792,2.9792,2.9792,3.3124,3.3124,3.3124,3.3124,3.3124,3.3124,3.3124,3.3124,3.3124,3.3124,3.3124,3.3124,3.3124,3.3124,3.3124,3.3124,3.3124,3.3124,3.3124,3.3124,3.3124,3.3124,3.3124,3.3124,3.3124,3.3124,3.3124,3.3124,3.3124,3.3124,3.3124,3.3124,3.3124,3.3124,3.3124,3.3124,3.3124,3.3124,3.3124,3.3124,3.3124,3.3124,3.3124,3.3124,3.3124,3.3124,3.3124,3.3124,3.3124,3.3124,3.3124,3.3124,3.3124,3.3124,3.3124,3.3124,3.3124,3.3056,3.3011,3.2177,3.1248,3.0633,3.0143,2.9792,2.9792,2.9792,2.9792,2.9792,2.9792,2.9792,2.9792,2.9716,2.9352,2.8386,2.8084,2.762,2.6637,0.0,2.7118,2.7065,2.7582,2.7971,2.7971,2.8059,2.8109,2.8109,2.8461,2.8511,2.8122,2.9013,2.9264,2.865,2.9315,2.9654,2.9654,2.9741,2.9792,2.9792,2.9792,2.9792,2.9792,2.9792,2.9792,2.9792,2.9792,2.9792,2.9792,2.9792,2.9792,2.9792,2.9792,2.9792,2.9792,2.9792,2.9792,2.9792,3.3124,3.3124,3.3124,3.3124,3.3124,3.3124,3.3124,3.3124,3.3124,3.3124,3.3124,3.3124,3.3124,3.3124,3.3124,3.3124,3.3124,3.3124,3.3124,3.3124,3.3124,3.3124,3.3124,3.3124,3.3124,3.3124,3.3124,3.3124,3.3124,3.3124,3.3124,3.3124,3.3124,3.3124,3.3124,3.3124,3.3124,3.3124,3.3124,3.3124,3.3124,3.3124,3.3124,3.3124,3.3124,3.3124,3.3124,3.3124,3.3124,3.3124,3.3124,3.3124,3.3124,3.3124,3.3124,3.3124,3.3124,3.3048,3.2692,3.2227,3.17,3.116,3.0633,3.0231,3.0231,3.0005,2.9792,2.9792,2.9792,2.9792,2.9792,2.9792,2.9515,2.8687,2.8512,0.0,0.0,2.7381,2.7607,2.7318,2.8034,2.8512,2.8512,2.8837,2.9013,2.9013,2.9252,2.9277,2.9026,2.9503,2.9666,2.9402,2.9654,2.9792,2.9792,2.9792,2.9792,2.9792,2.9792,2.9792,2.9792,2.9792,2.9792,2.9792,2.9792,2.9792,2.9792,2.9792,2.9792,2.9792,2.9792,2.9792,2.9792,2.9792,2.9792,2.9792,3.3124,3.3124,3.3124,3.3124,3.3124,3.3124,3.3124,3.3124,3.3124,3.3124,3.3124,3.3124,3.3124,3.3124,3.3124,3.3124,3.3124,3.3124,3.3124,3.3124,3.3124,3.3124,3.3124,3.3124,3.3124,3.3124,3.3124,3.3124,3.3124,3.3124,3.3124,3.3124,3.3124,3.3124,3.3124,3.3124,3.3124,3.3124,3.3124,3.3124,3.3124,3.3124,3.3124,3.3124,3.3124,3.3124,3.3124,3.3124,3.3124,3.3124,3.3124,3.3124,3.3124,3.3124,3.3124,3.3124,3.3124,3.298,3.2541,3.2315,3.2114,3.1687,3.1185,3.0758,3.0645,3.0281,2.9942,2.9817,2.9792,2.9792,2.9792,2.9792,2.9603,2.8988,0.0,0.0,0.0,2.8034,2.8197,2.7896,2.8612,2.9126,2.9126,2.9528,2.9792,2.9792,2.9792,2.9792,2.9792,2.9792,2.9792,2.9792,2.9792,2.9792,2.9792,2.9792,2.9792,2.9792,2.993,2.998,2.9993,3.0118,3.0168,3.0168,3.0168,3.0093,2.998,2.998,2.9905,2.9792,2.9792,2.9792,2.9792,2.9792,2.9792,2.9792,3.3124,3.3124,3.3124,3.3124,3.3124,3.3124,3.3124,3.3124,3.3124,3.3124,3.3124,3.3124,3.3124,3.3124,3.3124,3.3124,3.3124,3.3124,3.3124,3.3124,3.3124,3.3124,3.3124,3.3124,3.3124,3.3124,3.3124,3.3124,3.3124,3.3124,3.3124,3.3124,3.3124,3.3124,3.3124,3.3124,3.3124,3.3124,3.3124,3.3124,3.3124,3.3124,3.3124,3.3124,3.3124,3.3124,3.3124,3.3124,3.3124,3.3124,3.3124,3.3124,3.3124,3.3124,3.3124,3.3124,3.3124,3.3111,3.3074,3.2616,3.2202,3.2164,3.1738,3.121,3.0721,3.0583,3.0407,2.9892,2.9792,2.9792,2.9792,2.9792,2.9603,2.8988,0.0,0.0,2.8787,2.8813,2.9013,2.9553,2.9679,2.9729,2.9729,2.9767,2.9792,2.9792,2.9792,2.9792,2.9792,2.9792,2.9792,2.9792,2.9792,2.9792,2.9792,2.9792,2.9792,2.9804,3.0306,3.0557,3.057,3.106,3.1273,3.1273,3.1273,3.0997,3.0557,3.0557,3.0256,2.9792,2.9792,2.9792,2.9792,2.9792,2.9792,2.9792,3.3124,3.3124,3.3124,3.3124,3.3124,3.3124,3.3124,3.3124,3.3124,3.3124,3.3124,3.3124,3.3124,3.3124,3.3124,3.3124,3.3124,3.3124,3.3124,3.3124,3.3124,3.3124,3.3124,3.3124,3.3124,3.3124,3.3124,3.3124,3.3124,3.3124,3.3124,3.3124,3.3124,3.3124,3.3124,3.3124,3.3124,3.3124,3.3124,3.3124,3.3124,3.3124,3.3124,3.3124,3.3124,3.3124,3.3124,3.3124,3.3124,3.3124,3.3124,3.3124,3.3124,3.3124,3.3124,3.3124,3.3124,3.3124,3.3124,3.2918,3.2754,3.2754,3.2315,3.1851,3.165,3.1336,3.0947,3.0419,3.0306,3.0193,2.9854,2.9792,2.9603,2.8988,0.0,2.934,2.8938,2.9239,2.9541,2.9767,2.9792,2.9792,2.9792,2.9792,2.9792,2.9792,2.9792,2.9792,2.9792,2.9792,2.9792,2.9792,3.0118,3.0306,3.0306,3.0306,3.047,3.0783,3.0997,3.1097,3.1097,3.1298,3.1386,3.1386,3.1386,3.1273,3.1097,3.1097,3.0972,3.0783,3.0783,3.0583,3.0306,3.0306,3.0093,2.9792,3.3124,3.3124,3.3124,3.3124,3.3124,3.3124,3.3124,3.3124,3.3124,3.3124,3.3124,3.3124,3.3124,3.3124,3.3124,3.3124,3.3124,3.3124,3.3124,3.3124,3.3124,3.3124,3.3124,3.3124,3.3124,3.3124,3.3124,3.3124,3.3124,3.3124,3.3124,3.3124,3.3124,3.3124,3.3124,3.3124,3.3124,3.3124,3.3124,3.3124,3.3124,3.3124,3.3124,3.3124,3.3124,3.3124,3.3124,3.3124,3.3124,3.3124,3.3124,3.3124,3.3124,3.3124,3.3124,3.3124,3.3124,3.3124,3.3124,3.3124,3.3124,3.3124,3.278,3.2441,3.2252,3.1913,3.1499,3.0972,3.0859,3.0696,3.0143,3.0043,2.9867,2.9289,2.9528,2.9654,2.9252,2.9541,2.9792,2.9792,2.9792,2.9792,2.9792,2.9792,2.9792,2.9792,2.9792,2.9867,3.0043,3.0043,3.0131,3.0294,3.0658,3.0934,3.111,3.0947,3.1035,3.1386,3.1562,3.165,3.165,3.1838,3.1913,3.1913,3.1913,3.1813,3.165,3.165,3.1549,3.1386,3.1386,3.1072,3.062,3.062,3.0269,2.9792,3.3124,3.3124,3.3124,3.3124,3.3124,3.3124,3.3124,3.3124,3.3124,3.3124,3.3124,3.3124,3.3124,3.3124,3.3124,3.3124,3.3124,3.3124,3.3124,3.3124,3.3124,3.3124,3.3124,3.3124,3.3124,3.3124,3.3124,3.3124,3.3124,3.3124,3.3124,3.3124,3.3124,3.3124,3.3124,3.3124,3.3124,3.3124,3.3124,3.3124,3.3124,3.3124,3.3124,3.3124,3.3124,3.3124,3.3124,3.3124,3.3124,3.3124,3.3124,3.3124,3.3124,3.3124,3.3124,3.3124,3.3124,3.3124,3.3124,3.3124,3.3124,3.3124,3.3124,3.293,3.2353,3.2227,3.2064,3.1512,3.1399,3.1235,3.0721,3.062,3.0444,2.9892,2.9804,2.9792,2.9792,2.9792,2.9792,2.9792,2.9792,2.9792,2.9792,2.9792,2.9792,2.9792,2.9792,3.0043,3.0595,3.062,3.0859,3.1373,3.1399,3.1662,3.2202,3.1675,3.1399,3.1411,3.1951,3.2227,3.224,3.2817,3.3124,3.3124,3.3124,3.2754,3.2227,3.2227,3.1901,3.1399,3.1399,3.1085,3.062,3.062,3.0281,2.9804,3.3124,3.3124,3.3124,3.3124,3.3124,3.3124,3.3124,3.3124,3.3124,3.3124,3.3124,3.3124,3.3124,3.3124,3.3124,3.3124,3.3124,3.3124,3.3124,3.3124,3.3124,3.3124,3.3124,3.3124,3.3124,3.3124,3.3124,3.3124,3.3124,3.3124,3.3124,3.3124,3.3124,3.3124,3.3124,3.3124,3.3124,3.3124,3.3124,3.3124,3.3124,3.3124,3.3124,3.3124,3.3124,3.3124,3.3124,3.3124,3.3124,3.3124,3.3124,3.3124,3.3124,3.3124,3.3124,3.3124,3.3124,3.3124,3.3124,3.3124,3.3124,3.3124,3.3124,3.3031,3.2855,3.2817,3.2654,3.2089,3.1964,3.18,3.126,3.116,3.0984,3.0457,3.0369,3.0231,2.9842,2.9792,2.9792,2.9792,2.9792,2.9792,2.9792,2.9792,2.9792,2.9792,3.0156,3.0595,3.1135,3.116,3.1223,3.1386,3.1763,3.2051,3.2215,3.2051,3.2164,3.2579,3.2742,3.2817,3.283,3.3006,3.3124,3.3124,3.3124,3.298,3.2817,3.2817,3.2717,3.2566,3.2566,3.224,3.1738,3.1738,3.116,3.0369,3.3721,3.3721,3.3721,3.3721,3.3721,3.3721,3.3721,3.3721,3.3721,3.3721,3.3533,3.3407,3.3407,3.3206,3.3124,3.3124,3.3124,3.3124,3.3124,3.3124,3.3124,3.3124,3.3124,3.3124,3.3124,3.3124,3.3124,3.3124,3.3124,3.3124,3.3124,3.3124,3.3124,3.3124,3.3124,3.3124,3.3124,3.3124,3.3124,3.3124,3.3124,3.3124,3.3124,3.3124,3.3124,3.3124,3.3124,3.3124,3.3124,3.3124,3.3124,3.3124,3.3124,3.3124,3.3124,3.3124,3.3124,3.3124,3.3124,3.3124,3.3124,3.3124,3.3124,3.3124,3.3124,3.3124,3.298,3.2629,3.2554,3.2378,3.1813,3.1725,3.1537,3.1009,3.0922,3.0796,3.047,3.0419,3.0344,3.0143,3.0294,3.0344,3.0143,3.0306,3.0419,3.0419,3.0733,3.1148,3.1687,3.1725,3.1825,3.2051,3.2378,3.2554,3.2554,3.2554,3.2729,3.3124,3.3124,3.3124,3.3124,3.3124,3.3124,3.3124,3.3124,3.3124,3.3124,3.3124,3.3124,3.3124,3.3124,3.2717,3.2215,3.2215,3.1662,3.0922,3.468,3.468,3.468,3.468,3.468,3.468,3.468,3.468,3.468,3.468,3.4286,3.3972,3.3972,3.3483,3.3156,3.3156,3.3149,3.3124,3.3124,3.3124,3.3124,3.3124,3.3124,3.3124,3.3124,3.3124,3.3124,3.3124,3.3124,3.3124,3.3124,3.3124,3.3124,3.3124,3.3124,3.3124,3.3124,3.3124,3.3124,3.3124,3.3124,3.3124,3.3124,3.3124,3.3124,3.3124,3.3124,3.3124,3.3124,3.3124,3.3124,3.3124,3.3124,3.3124,3.3124,3.3124,3.3124,3.3124,3.3124,3.3124,3.3124,3.3124,3.3124,3.3124,3.3124,3.3124,3.3124,3.3124,3.3124,3.2918,3.239,3.229,3.2102,3.1549,3.1461,3.1449,3.1399,3.1386,3.1223,3.0746,3.1097,3.1198,3.0733,3.111,3.1411,3.1461,3.1461,3.17,3.2252,3.229,3.2528,3.3056,3.3124,3.3124,3.3124,3.3124,3.3124,3.3124,3.3124,3.3124,3.3124,3.3124,3.3124,3.3124,3.3124,3.3124,3.3124,3.3124,3.3124,3.3124,3.3124,3.2754,3.229,3.229,3.1938,3.1449,3.468,3.468,3.468,3.468,3.468,3.468,3.468,3.468,3.468,3.468,3.4613,3.455,3.455,3.4048,3.3721,3.3721,3.3319,3.3124,3.3124,3.3124,3.3124,3.3124,3.3124,3.3124,3.3124,3.3124,3.3124,3.3124,3.3124,3.3124,3.3124,3.3124,3.3124,3.3124,3.3124,3.3124,3.3124,3.3124,3.3124,3.3124,3.3124,3.3124,3.3124,3.3124,3.3124,3.3124,3.3124,3.3124,3.3124,3.3124,3.3124,3.3124,3.3124,3.3124,3.3124,3.3124,3.3124,3.3124,3.3124,3.3124,3.3124,3.3124,3.3124,3.3124,3.3124,3.3124,3.3124,3.3124,3.3124,3.3043,3.2918,3.288,3.2704,3.2127,3.2039,3.1888,3.1449,3.1386,3.1348,3.1235,3.1323,3.1348,3.1235,3.1323,3.1574,3.2001,3.2039,3.229,3.2855,3.288,3.2943,3.3124,3.3124,3.3124,3.3124,3.3124,3.3124,3.3124,3.3124,3.3124,3.3124,3.3124,3.3124,3.3124,3.3124,3.3124,3.3124,3.3124,3.3124,3.3124,3.3124,3.3006,3.288,3.288,3.2528,3.1976,3.5504,3.5504,3.5504,3.5504,3.5504,3.5504,3.5504,3.5504,3.5504,3.5504,3.5278,3.5069,3.5069,3.4625,3.4186,3.3922,3.3633,3.3357,3.3136,3.3124,3.3124,3.3124,3.3124,3.3124,3.3124,3.3124,3.3124,3.3124,3.3124,3.3124,3.3124,3.3124,3.3124,3.3124,3.3124,3.3124,3.3124,3.3124,3.3124,3.3124,3.3124,3.3124,3.3124,3.3124,3.3124,3.3124,3.3124,3.3124,3.3124,3.3124,3.3124,3.3124,3.3124,3.3124,3.3124,3.3124,3.3124,3.3124,3.3124,3.3124,3.3124,3.3124,3.3124,3.3124,3.3124,3.3124,3.3124,3.3124,3.3124,3.3124,3.3124,3.3124,3.298,3.2667,3.2629,3.2516,3.2227,3.219,3.2089,3.1813,3.2026,3.219,3.219,3.219,3.2315,3.2604,3.2629,3.2754,3.3056,3.3124,3.3124,3.3124,3.3124,3.3124,3.3124,3.3124,3.3124,3.3124,3.3124,3.3124,3.3124,3.3124,3.3124,3.3124,3.3124,3.3124,3.3124,3.3124,3.3124,3.3124,3.3124,3.3124,3.3124,3.3124,3.288,3.2591,3.6405,3.6405,3.6405,3.6405,3.6405,3.6405,3.6405,3.6405,3.6405,3.6405,3.5968,3.5633,3.5633,3.5144,3.4638,3.4085,3.4035,3.3809,3.3257,3.3262,3.3224,3.3124,3.3124,3.3124,3.3124,3.3124,3.3124,3.3124,3.3124,3.3124,3.3124,3.3124,3.3124,3.3124,3.3124,3.3124,3.3124,3.3124,3.3124,3.3124,3.3124,3.3124,3.3124,3.3124,3.3124,3.3124,3.3124,3.3124,3.3124,3.3124,3.3124,3.3124,3.3124,3.3124,3.3124,3.3124,3.3124,3.3124,3.3124,3.324,3.3313,3.3154,3.324,3.3313,3.3154,3.3124,3.3124,3.3124,3.3124,3.3124,3.3124,3.3124,3.3124,3.3124,3.3124,3.3124,3.3124,3.3124,3.2893,3.2416,3.278,3.3124,3.3124,3.3124,3.3124,3.3124,3.3124,3.3124,3.3124,3.3124,3.3124,3.3124,3.3124,3.3124,3.3124,3.3124,3.3124,3.3124,3.3124,3.3124,3.3124,3.3124,3.3124,3.3124,3.3124,3.3124,3.3124,3.3313,3.3283,3.3124,3.3313,3.3283,3.3124,3.3124,3.3124,3.3111,3.6405,3.6405,3.6405,3.6405,3.6405,3.6405,3.6405,3.6405,3.6405,3.6405,3.6342,3.6304,3.6304,3.5768,3.5169,3.4663,3.4613,3.4374,3.3822,3.3784,3.3571,3.3106,3.3124,3.3124,3.3124,3.3124,3.3124,3.3124,3.3124,3.3124,3.3124,3.3124,3.3124,3.3124,3.3124,3.3124,3.3124,3.3124,3.3124,3.3124,3.3124,3.3124,3.3124,3.3124,3.3124,3.3124,3.3124,3.3124,3.3124,3.3124,3.3124,3.3124,3.3124,3.3124,3.3124,3.3124,3.3124,3.3124,3.3124,3.3797,3.4275,3.3313,3.3797,3.4233,3.3313,3.3124,3.3124,3.3124,3.3124,3.3124,3.3124,3.3124,3.3124,3.3124,3.3124,3.3124,3.3124,3.3124,3.3056,3.2968,3.3074,3.3124,3.3124,3.3124,3.3124,3.3124,3.3124,3.3124,3.3124,3.3124,3.3124,3.3124,3.3124,3.3124,3.3124,3.3124,3.3124,3.3124,3.3124,3.3124,3.3124,3.3124,3.3124,3.3124,3.3124,3.3124,3.3154,3.4108,3.3953,3.3197,3.4108,3.3911,3.3124,3.3124,3.3124,3.324,3.6405,3.6405,3.6405,3.6405,3.6405,3.6405,3.6405,3.6405,3.6405,3.6405,3.6405,3.6405,3.6405,3.6144,3.578,3.5182,3.5144,3.4906,3.4399,3.4361,3.4248,3.401,3.3997,3.3847,3.3545,3.3533,3.3382,3.3124,3.3124,3.3124,3.3124,3.3124,3.3124,3.3124,3.3124,3.3124,3.3124,3.3124,3.3124,3.3124,3.3124,3.3124,3.3124,3.3124,3.3124,3.3124,3.3124,3.3124,3.3124,3.3124,3.3124,3.3124,3.3124,3.3124,3.3124,3.3124,3.3124,3.3124,3.3124,3.3869,3.4594,3.4108,3.4774,3.5426,3.4952,3.4374,3.3839,3.324,3.3124,3.3124,3.3124,3.3124,3.3124,3.3124,3.3124,3.3124,3.3124,3.3124,3.3124,3.3124,3.3124,3.3356,3.3953,3.3995,3.422,3.4802,3.4843,3.4843,3.4843,3.4843,3.4843,3.4843,3.4843,3.4843,3.4843,3.4843,3.4843,3.4843,3.4843,3.4207,3.3124,3.3124,3.3124,3.3111,3.3713,3.3995,3.4066,3.5129,3.5278,3.4884,3.5346,3.5238,3.4761,3.4191,3.3995,3.4079]}]]